<?xml version="1.0" encoding="utf-8"?>
<gpx xmlns:xsi="http://www.w3.org/2001/XMLSchema-instance" xmlns:xsd="http://www.w3.org/2001/XMLSchema" version="1.1" creator="Shapelink.com" xmlns="http://www.topografix.com/GPX/1/1" xmlns:gpxtpx="http://www.garmin.com/xmlschemas/TrackPointExtension/v1">
  <metadata>
    <name>Radfahren 34.96 km, 2018-08-05</name>
    <desc></desc>
    <author><name>Patrik Andersson</name></author> 
    <time>2018-08-05T17:09:36Z</time>
  </metadata>
  <trk>
    <name>Radfahren 34.96 km, 2018-08-05</name>
    <trkseg>
      <trkpt lat="59.002284713498" lon="15.060733371504">
        <ele>110.4</ele>
        <time>2018-08-05T17:09:36Z</time>
      </trkpt>
      <trkpt lat="59.002155213143" lon="15.060780813058">
        <ele>109.6</ele>
        <time>2018-08-05T17:09:41Z</time>
      </trkpt>
      <trkpt lat="59.00212696614" lon="15.061007627272">
        <ele>109.6</ele>
        <time>2018-08-05T17:09:45Z</time>
      </trkpt>
      <trkpt lat="59.002138868438" lon="15.061383555487">
        <ele>108.2</ele>
        <time>2018-08-05T17:09:50Z</time>
      </trkpt>
      <trkpt lat="59.002146831243" lon="15.06154675108">
        <ele>107.8</ele>
        <time>2018-08-05T17:09:52Z</time>
      </trkpt>
      <trkpt lat="59.002174240056" lon="15.061978670387">
        <ele>106.2</ele>
        <time>2018-08-05T17:09:57Z</time>
      </trkpt>
      <trkpt lat="59.00217306659" lon="15.062370272755">
        <ele>105.2</ele>
        <time>2018-08-05T17:10:01Z</time>
      </trkpt>
      <trkpt lat="59.002179185377" lon="15.062760198743">
        <ele>104.4</ele>
        <time>2018-08-05T17:10:05Z</time>
      </trkpt>
      <trkpt lat="59.002153872039" lon="15.063032359036">
        <ele>104.4</ele>
        <time>2018-08-05T17:10:09Z</time>
      </trkpt>
      <trkpt lat="59.001991933731" lon="15.063048368465">
        <ele>104.2</ele>
        <time>2018-08-05T17:10:14Z</time>
      </trkpt>
      <trkpt lat="59.001794456167" lon="15.06295239571">
        <ele>104</ele>
        <time>2018-08-05T17:10:19Z</time>
      </trkpt>
      <trkpt lat="59.001623716864" lon="15.062844688295">
        <ele>103.8</ele>
        <time>2018-08-05T17:10:23Z</time>
      </trkpt>
      <trkpt lat="59.001436632856" lon="15.062742764391">
        <ele>103.8</ele>
        <time>2018-08-05T17:10:27Z</time>
      </trkpt>
      <trkpt lat="59.001245106441" lon="15.062621981212">
        <ele>103.6</ele>
        <time>2018-08-05T17:10:31Z</time>
      </trkpt>
      <trkpt lat="59.001049975809" lon="15.062503796422">
        <ele>104.2</ele>
        <time>2018-08-05T17:10:35Z</time>
      </trkpt>
      <trkpt lat="59.000847301467" lon="15.062390137858">
        <ele>104</ele>
        <time>2018-08-05T17:10:39Z</time>
      </trkpt>
      <trkpt lat="59.000636580501" lon="15.062281424615">
        <ele>103.8</ele>
        <time>2018-08-05T17:10:43Z</time>
      </trkpt>
      <trkpt lat="59.000440276403" lon="15.062186122412">
        <ele>103.2</ele>
        <time>2018-08-05T17:10:47Z</time>
      </trkpt>
      <trkpt lat="59.000251013101" lon="15.0620815163">
        <ele>102</ele>
        <time>2018-08-05T17:10:51Z</time>
      </trkpt>
      <trkpt lat="59.000113382303" lon="15.061972048686">
        <ele>102.6</ele>
        <time>2018-08-05T17:10:54Z</time>
      </trkpt>
      <trkpt lat="58.999936105118" lon="15.061791670198">
        <ele>102.2</ele>
        <time>2018-08-05T17:10:58Z</time>
      </trkpt>
      <trkpt lat="58.999748937291" lon="15.061604250914">
        <ele>101.8</ele>
        <time>2018-08-05T17:11:02Z</time>
      </trkpt>
      <trkpt lat="58.999550286261" lon="15.061414652336">
        <ele>100.8</ele>
        <time>2018-08-05T17:11:06Z</time>
      </trkpt>
      <trkpt lat="58.999344678254" lon="15.061213319098">
        <ele>101.8</ele>
        <time>2018-08-05T17:11:10Z</time>
      </trkpt>
      <trkpt lat="58.999142590645" lon="15.061014332792">
        <ele>102.2</ele>
        <time>2018-08-05T17:11:14Z</time>
      </trkpt>
      <trkpt lat="58.998931702041" lon="15.060818112513">
        <ele>102.6</ele>
        <time>2018-08-05T17:11:18Z</time>
      </trkpt>
      <trkpt lat="58.998718550324" lon="15.060627675745">
        <ele>102.8</ele>
        <time>2018-08-05T17:11:22Z</time>
      </trkpt>
      <trkpt lat="58.998520737484" lon="15.06044201666">
        <ele>102.4</ele>
        <time>2018-08-05T17:11:26Z</time>
      </trkpt>
      <trkpt lat="58.998317476409" lon="15.060262644">
        <ele>101.4</ele>
        <time>2018-08-05T17:11:30Z</time>
      </trkpt>
      <trkpt lat="58.998259138385" lon="15.060232636798">
        <ele>101.4</ele>
        <time>2018-08-05T17:11:31Z</time>
      </trkpt>
      <trkpt lat="58.998074149852" lon="15.06019223604">
        <ele>100.8</ele>
        <time>2018-08-05T17:11:34Z</time>
      </trkpt>
      <trkpt lat="58.997889161319" lon="15.060139178613">
        <ele>100.6</ele>
        <time>2018-08-05T17:11:37Z</time>
      </trkpt>
      <trkpt lat="58.997830823295" lon="15.06010590247">
        <ele>100.8</ele>
        <time>2018-08-05T17:11:38Z</time>
      </trkpt>
      <trkpt lat="58.997672321566" lon="15.059941365773">
        <ele>101.2</ele>
        <time>2018-08-05T17:11:41Z</time>
      </trkpt>
      <trkpt lat="58.997520944452" lon="15.059751096643">
        <ele>101.4</ele>
        <time>2018-08-05T17:11:44Z</time>
      </trkpt>
      <trkpt lat="58.997330423865" lon="15.059496203064">
        <ele>101.8</ele>
        <time>2018-08-05T17:11:48Z</time>
      </trkpt>
      <trkpt lat="58.997140490011" lon="15.059245248978">
        <ele>102.2</ele>
        <time>2018-08-05T17:11:52Z</time>
      </trkpt>
      <trkpt lat="58.996954160374" lon="15.05898524244">
        <ele>102.2</ele>
        <time>2018-08-05T17:11:56Z</time>
      </trkpt>
      <trkpt lat="58.996758526828" lon="15.058732695793">
        <ele>102.2</ele>
        <time>2018-08-05T17:12:00Z</time>
      </trkpt>
      <trkpt lat="58.996548644052" lon="15.058512670918">
        <ele>102.6</ele>
        <time>2018-08-05T17:12:04Z</time>
      </trkpt>
      <trkpt lat="58.996338090724" lon="15.058331705697">
        <ele>103.2</ele>
        <time>2018-08-05T17:12:08Z</time>
      </trkpt>
      <trkpt lat="58.996132817993" lon="15.058162642774">
        <ele>103.4</ele>
        <time>2018-08-05T17:12:12Z</time>
      </trkpt>
      <trkpt lat="58.995935088972" lon="15.057972289825">
        <ele>103.4</ele>
        <time>2018-08-05T17:12:16Z</time>
      </trkpt>
      <trkpt lat="58.995743981652" lon="15.057743128679">
        <ele>103.4</ele>
        <time>2018-08-05T17:12:20Z</time>
      </trkpt>
      <trkpt lat="58.995552455237" lon="15.057512710248">
        <ele>103.2</ele>
        <time>2018-08-05T17:12:24Z</time>
      </trkpt>
      <trkpt lat="58.995361599374" lon="15.057271730623">
        <ele>103.2</ele>
        <time>2018-08-05T17:12:28Z</time>
      </trkpt>
      <trkpt lat="58.995167306932" lon="15.057024967487">
        <ele>103.2</ele>
        <time>2018-08-05T17:12:32Z</time>
      </trkpt>
      <trkpt lat="58.994978127449" lon="15.056796979807">
        <ele>103.4</ele>
        <time>2018-08-05T17:12:36Z</time>
      </trkpt>
      <trkpt lat="58.994801604635" lon="15.056553737069">
        <ele>103.2</ele>
        <time>2018-08-05T17:12:40Z</time>
      </trkpt>
      <trkpt lat="58.994690712098" lon="15.056371430744">
        <ele>103.4</ele>
        <time>2018-08-05T17:12:43Z</time>
      </trkpt>
      <trkpt lat="58.994528354695" lon="15.056226088598">
        <ele>102.8</ele>
        <time>2018-08-05T17:12:47Z</time>
      </trkpt>
      <trkpt lat="58.994346635103" lon="15.05599877147">
        <ele>102.2</ele>
        <time>2018-08-05T17:12:51Z</time>
      </trkpt>
      <trkpt lat="58.994185367347" lon="15.055765670831">
        <ele>102</ele>
        <time>2018-08-05T17:12:55Z</time>
      </trkpt>
      <trkpt lat="58.994023764315" lon="15.055549753087">
        <ele>101.4</ele>
        <time>2018-08-05T17:12:59Z</time>
      </trkpt>
      <trkpt lat="58.99388001473" lon="15.055466101725">
        <ele>101.8</ele>
        <time>2018-08-05T17:13:03Z</time>
      </trkpt>
      <trkpt lat="58.99376937365" lon="15.055748404117">
        <ele>101.4</ele>
        <time>2018-08-05T17:13:08Z</time>
      </trkpt>
      <trkpt lat="58.993567537498" lon="15.055772041075">
        <ele>100.6</ele>
        <time>2018-08-05T17:13:12Z</time>
      </trkpt>
      <trkpt lat="58.993463518119" lon="15.055647737498">
        <ele>100.2</ele>
        <time>2018-08-05T17:13:14Z</time>
      </trkpt>
      <trkpt lat="58.993303759105" lon="15.055428299356">
        <ele>99.8</ele>
        <time>2018-08-05T17:13:17Z</time>
      </trkpt>
      <trkpt lat="58.993142575168" lon="15.055197880925">
        <ele>99.2</ele>
        <time>2018-08-05T17:13:20Z</time>
      </trkpt>
      <trkpt lat="58.99298650419" lon="15.054970144702">
        <ele>99</ele>
        <time>2018-08-05T17:13:23Z</time>
      </trkpt>
      <trkpt lat="58.992827751004" lon="15.054759423736">
        <ele>98.8</ele>
        <time>2018-08-05T17:13:26Z</time>
      </trkpt>
      <trkpt lat="58.992668159628" lon="15.054555911204">
        <ele>99</ele>
        <time>2018-08-05T17:13:29Z</time>
      </trkpt>
      <trkpt lat="58.992504880216" lon="15.054382573512">
        <ele>99.2</ele>
        <time>2018-08-05T17:13:32Z</time>
      </trkpt>
      <trkpt lat="58.992288878653" lon="15.054204039042">
        <ele>99.4</ele>
        <time>2018-08-05T17:13:36Z</time>
      </trkpt>
      <trkpt lat="58.992063237905" lon="15.05407847818">
        <ele>99.6</ele>
        <time>2018-08-05T17:13:40Z</time>
      </trkpt>
      <trkpt lat="58.991838686804" lon="15.053991641696">
        <ele>100</ele>
        <time>2018-08-05T17:13:44Z</time>
      </trkpt>
      <trkpt lat="58.991618997205" lon="15.053933806586">
        <ele>99.4</ele>
        <time>2018-08-05T17:13:48Z</time>
      </trkpt>
      <trkpt lat="58.991390171335" lon="15.05392844217">
        <ele>99.6</ele>
        <time>2018-08-05T17:13:52Z</time>
      </trkpt>
      <trkpt lat="58.991162770388" lon="15.053956772992">
        <ele>99.8</ele>
        <time>2018-08-05T17:13:56Z</time>
      </trkpt>
      <trkpt lat="58.990937381097" lon="15.054037490689">
        <ele>100</ele>
        <time>2018-08-05T17:14:00Z</time>
      </trkpt>
      <trkpt lat="58.990722804457" lon="15.054160536981">
        <ele>100.2</ele>
        <time>2018-08-05T17:14:04Z</time>
      </trkpt>
      <trkpt lat="58.990511580577" lon="15.054280230513">
        <ele>100.6</ele>
        <time>2018-08-05T17:14:08Z</time>
      </trkpt>
      <trkpt lat="58.990296501023" lon="15.054396236009">
        <ele>100.8</ele>
        <time>2018-08-05T17:14:12Z</time>
      </trkpt>
      <trkpt lat="58.99008049946" lon="15.05451517517">
        <ele>100.8</ele>
        <time>2018-08-05T17:14:16Z</time>
      </trkpt>
      <trkpt lat="58.989869527037" lon="15.054644759344">
        <ele>101</ele>
        <time>2018-08-05T17:14:20Z</time>
      </trkpt>
      <trkpt lat="58.989665427772" lon="15.054764620514">
        <ele>101</ele>
        <time>2018-08-05T17:14:24Z</time>
      </trkpt>
      <trkpt lat="58.989560654022" lon="15.054825556927">
        <ele>101</ele>
        <time>2018-08-05T17:14:26Z</time>
      </trkpt>
      <trkpt lat="58.989339958595" lon="15.054946507744">
        <ele>101</ele>
        <time>2018-08-05T17:14:30Z</time>
      </trkpt>
      <trkpt lat="58.989124292308" lon="15.05507508609">
        <ele>101</ele>
        <time>2018-08-05T17:14:34Z</time>
      </trkpt>
      <trkpt lat="58.988904602709" lon="15.055206011368">
        <ele>101.4</ele>
        <time>2018-08-05T17:14:38Z</time>
      </trkpt>
      <trkpt lat="58.988848527798" lon="15.05523182762">
        <ele>101.4</ele>
        <time>2018-08-05T17:14:39Z</time>
      </trkpt>
      <trkpt lat="58.988619366652" lon="15.055276838423">
        <ele>102</ele>
        <time>2018-08-05T17:14:43Z</time>
      </trkpt>
      <trkpt lat="58.988512329789" lon="15.055288237807">
        <ele>102.6</ele>
        <time>2018-08-05T17:14:45Z</time>
      </trkpt>
      <trkpt lat="58.988307308515" lon="15.055307348539">
        <ele>103.4</ele>
        <time>2018-08-05T17:14:49Z</time>
      </trkpt>
      <trkpt lat="58.98810153287" lon="15.055319753751">
        <ele>104.2</ele>
        <time>2018-08-05T17:14:54Z</time>
      </trkpt>
      <trkpt lat="58.988013020006" lon="15.055446571898">
        <ele>104.4</ele>
        <time>2018-08-05T17:14:57Z</time>
      </trkpt>
      <trkpt lat="58.987991981437" lon="15.055823003027">
        <ele>103.8</ele>
        <time>2018-08-05T17:15:01Z</time>
      </trkpt>
      <trkpt lat="58.988007487952" lon="15.056292473246">
        <ele>102.8</ele>
        <time>2018-08-05T17:15:05Z</time>
      </trkpt>
      <trkpt lat="58.988019809345" lon="15.056682483053">
        <ele>102.4</ele>
        <time>2018-08-05T17:15:08Z</time>
      </trkpt>
      <trkpt lat="58.988033136566" lon="15.057060506743">
        <ele>102.4</ele>
        <time>2018-08-05T17:15:11Z</time>
      </trkpt>
      <trkpt lat="58.988065071605" lon="15.057408271774">
        <ele>102.4</ele>
        <time>2018-08-05T17:15:14Z</time>
      </trkpt>
      <trkpt lat="58.988120978878" lon="15.057853266845">
        <ele>102.2</ele>
        <time>2018-08-05T17:15:18Z</time>
      </trkpt>
      <trkpt lat="58.988168168975" lon="15.058308655472">
        <ele>101.8</ele>
        <time>2018-08-05T17:15:22Z</time>
      </trkpt>
      <trkpt lat="58.98819457196" lon="15.058676872339">
        <ele>101.4</ele>
        <time>2018-08-05T17:15:25Z</time>
      </trkpt>
      <trkpt lat="58.988225417352" lon="15.059039557152">
        <ele>100.6</ele>
        <time>2018-08-05T17:15:28Z</time>
      </trkpt>
      <trkpt lat="58.988275541114" lon="15.059416994109">
        <ele>100.4</ele>
        <time>2018-08-05T17:15:31Z</time>
      </trkpt>
      <trkpt lat="58.988314181673" lon="15.059784959519">
        <ele>100.2</ele>
        <time>2018-08-05T17:15:34Z</time>
      </trkpt>
      <trkpt lat="58.988343685961" lon="15.060138340423">
        <ele>100</ele>
        <time>2018-08-05T17:15:37Z</time>
      </trkpt>
      <trkpt lat="58.98837226824" lon="15.060495409363">
        <ele>99.4</ele>
        <time>2018-08-05T17:15:40Z</time>
      </trkpt>
      <trkpt lat="58.988395402284" lon="15.060867649542">
        <ele>98.4</ele>
        <time>2018-08-05T17:15:43Z</time>
      </trkpt>
      <trkpt lat="58.988427085866" lon="15.061242907205">
        <ele>98.2</ele>
        <time>2018-08-05T17:15:46Z</time>
      </trkpt>
      <trkpt lat="58.988456422516" lon="15.061601987801">
        <ele>98.2</ele>
        <time>2018-08-05T17:15:49Z</time>
      </trkpt>
      <trkpt lat="58.988483663691" lon="15.062055113315">
        <ele>98</ele>
        <time>2018-08-05T17:15:53Z</time>
      </trkpt>
      <trkpt lat="58.988470252651" lon="15.062501952404">
        <ele>98.6</ele>
        <time>2018-08-05T17:15:57Z</time>
      </trkpt>
      <trkpt lat="58.98845608724" lon="15.062607480525">
        <ele>98.8</ele>
        <time>2018-08-05T17:15:58Z</time>
      </trkpt>
      <trkpt lat="58.988331951301" lon="15.062993383201">
        <ele>99.6</ele>
        <time>2018-08-05T17:16:02Z</time>
      </trkpt>
      <trkpt lat="58.988283503919" lon="15.063081644608">
        <ele>99.8</ele>
        <time>2018-08-05T17:16:03Z</time>
      </trkpt>
      <trkpt lat="58.988116955566" lon="15.063332850151">
        <ele>100</ele>
        <time>2018-08-05T17:16:06Z</time>
      </trkpt>
      <trkpt lat="58.987945545711" lon="15.063568800636">
        <ele>100.2</ele>
        <time>2018-08-05T17:16:09Z</time>
      </trkpt>
      <trkpt lat="58.987774554951" lon="15.063784969837">
        <ele>100.6</ele>
        <time>2018-08-05T17:16:12Z</time>
      </trkpt>
      <trkpt lat="58.987612532824" lon="15.063986470713">
        <ele>101</ele>
        <time>2018-08-05T17:16:15Z</time>
      </trkpt>
      <trkpt lat="58.987457886769" lon="15.064168022667">
        <ele>101.2</ele>
        <time>2018-08-05T17:16:18Z</time>
      </trkpt>
      <trkpt lat="58.987252111124" lon="15.064397938184">
        <ele>101.6</ele>
        <time>2018-08-05T17:16:22Z</time>
      </trkpt>
      <trkpt lat="58.987046838393" lon="15.064621315819">
        <ele>102</ele>
        <time>2018-08-05T17:16:26Z</time>
      </trkpt>
      <trkpt lat="58.986836201246" lon="15.064831114776">
        <ele>102.2</ele>
        <time>2018-08-05T17:16:30Z</time>
      </trkpt>
      <trkpt lat="58.98662883304" lon="15.065025910132">
        <ele>102.6</ele>
        <time>2018-08-05T17:16:34Z</time>
      </trkpt>
      <trkpt lat="58.986435881702" lon="15.065206204801">
        <ele>103.4</ele>
        <time>2018-08-05T17:16:38Z</time>
      </trkpt>
      <trkpt lat="58.986246450762" lon="15.06534039902">
        <ele>104</ele>
        <time>2018-08-05T17:16:42Z</time>
      </trkpt>
      <trkpt lat="58.986059534392" lon="15.065453387032">
        <ele>104.4</ele>
        <time>2018-08-05T17:16:46Z</time>
      </trkpt>
      <trkpt lat="58.985879407361" lon="15.065552544909">
        <ele>105.2</ele>
        <time>2018-08-05T17:16:50Z</time>
      </trkpt>
      <trkpt lat="58.985670278956" lon="15.065649858768">
        <ele>106.2</ele>
        <time>2018-08-05T17:16:55Z</time>
      </trkpt>
      <trkpt lat="58.985478668722" lon="15.065714902312">
        <ele>107.2</ele>
        <time>2018-08-05T17:17:00Z</time>
      </trkpt>
      <trkpt lat="58.985278006036" lon="15.065770893404">
        <ele>108.6</ele>
        <time>2018-08-05T17:17:06Z</time>
      </trkpt>
      <trkpt lat="58.985085138517" lon="15.065851108187">
        <ele>109.6</ele>
        <time>2018-08-05T17:17:11Z</time>
      </trkpt>
      <trkpt lat="58.984900988174" lon="15.065928724581">
        <ele>111</ele>
        <time>2018-08-05T17:17:16Z</time>
      </trkpt>
      <trkpt lat="58.984697727099" lon="15.066001060378">
        <ele>112.4</ele>
        <time>2018-08-05T17:17:22Z</time>
      </trkpt>
      <trkpt lat="58.984501758277" lon="15.066078760591">
        <ele>114</ele>
        <time>2018-08-05T17:17:28Z</time>
      </trkpt>
      <trkpt lat="58.98430620855" lon="15.06621295481">
        <ele>113</ele>
        <time>2018-08-05T17:17:34Z</time>
      </trkpt>
      <trkpt lat="58.984248541078" lon="15.066333905627">
        <ele>112.6</ele>
        <time>2018-08-05T17:17:36Z</time>
      </trkpt>
      <trkpt lat="58.984175702367" lon="15.06674101451">
        <ele>111.2</ele>
        <time>2018-08-05T17:17:41Z</time>
      </trkpt>
      <trkpt lat="58.984130356288" lon="15.067112500318">
        <ele>110.2</ele>
        <time>2018-08-05T17:17:45Z</time>
      </trkpt>
      <trkpt lat="58.984081657449" lon="15.067495804605">
        <ele>109.6</ele>
        <time>2018-08-05T17:17:49Z</time>
      </trkpt>
      <trkpt lat="58.984037652474" lon="15.067891346466">
        <ele>109.2</ele>
        <time>2018-08-05T17:17:53Z</time>
      </trkpt>
      <trkpt lat="58.984021643045" lon="15.068271968545">
        <ele>110.8</ele>
        <time>2018-08-05T17:17:57Z</time>
      </trkpt>
      <trkpt lat="58.984025498719" lon="15.068698439617">
        <ele>111.8</ele>
        <time>2018-08-05T17:18:02Z</time>
      </trkpt>
      <trkpt lat="58.984029773488" lon="15.069050311779">
        <ele>112</ele>
        <time>2018-08-05T17:18:06Z</time>
      </trkpt>
      <trkpt lat="58.984037484836" lon="15.069421965225">
        <ele>112.2</ele>
        <time>2018-08-05T17:18:10Z</time>
      </trkpt>
      <trkpt lat="58.984041256691" lon="15.069798396354">
        <ele>113.4</ele>
        <time>2018-08-05T17:18:14Z</time>
      </trkpt>
      <trkpt lat="58.984047962211" lon="15.070156052027">
        <ele>115.2</ele>
        <time>2018-08-05T17:18:18Z</time>
      </trkpt>
      <trkpt lat="58.984055841197" lon="15.070324360579">
        <ele>115.8</ele>
        <time>2018-08-05T17:18:20Z</time>
      </trkpt>
      <trkpt lat="58.984088949702" lon="15.070647566643">
        <ele>115.4</ele>
        <time>2018-08-05T17:18:24Z</time>
      </trkpt>
      <trkpt lat="58.984176121462" lon="15.070972700544">
        <ele>115</ele>
        <time>2018-08-05T17:18:28Z</time>
      </trkpt>
      <trkpt lat="58.984264885783" lon="15.071346952379">
        <ele>113.6</ele>
        <time>2018-08-05T17:18:32Z</time>
      </trkpt>
      <trkpt lat="58.984338311227" lon="15.071708882821">
        <ele>111.8</ele>
        <time>2018-08-05T17:18:35Z</time>
      </trkpt>
      <trkpt lat="58.984414754155" lon="15.072141724137">
        <ele>109.8</ele>
        <time>2018-08-05T17:18:38Z</time>
      </trkpt>
      <trkpt lat="58.984501339182" lon="15.072592921814">
        <ele>108.4</ele>
        <time>2018-08-05T17:18:41Z</time>
      </trkpt>
      <trkpt lat="58.984580715775" lon="15.073036994876">
        <ele>107</ele>
        <time>2018-08-05T17:18:44Z</time>
      </trkpt>
      <trkpt lat="58.984660930558" lon="15.073448294709">
        <ele>105.4</ele>
        <time>2018-08-05T17:18:47Z</time>
      </trkpt>
      <trkpt lat="58.9847378764" lon="15.073823887648">
        <ele>104.8</ele>
        <time>2018-08-05T17:18:50Z</time>
      </trkpt>
      <trkpt lat="58.984818594097" lon="15.074202246614">
        <ele>103.4</ele>
        <time>2018-08-05T17:18:53Z</time>
      </trkpt>
      <trkpt lat="58.984906101133" lon="15.074591921145">
        <ele>101.4</ele>
        <time>2018-08-05T17:18:56Z</time>
      </trkpt>
      <trkpt lat="58.985021016982" lon="15.074998443295">
        <ele>98.8</ele>
        <time>2018-08-05T17:18:59Z</time>
      </trkpt>
      <trkpt lat="58.985142470713" lon="15.075435140285">
        <ele>97.6</ele>
        <time>2018-08-05T17:19:02Z</time>
      </trkpt>
      <trkpt lat="58.985167448775" lon="15.07557721349">
        <ele>97.4</ele>
        <time>2018-08-05T17:19:03Z</time>
      </trkpt>
      <trkpt lat="58.985200138185" lon="15.075833280535">
        <ele>97.2</ele>
        <time>2018-08-05T17:19:05Z</time>
      </trkpt>
      <trkpt lat="58.985200305823" lon="15.076191439122">
        <ele>101.2</ele>
        <time>2018-08-05T17:19:08Z</time>
      </trkpt>
      <trkpt lat="58.985189828448" lon="15.07630392422">
        <ele>102.2</ele>
        <time>2018-08-05T17:19:09Z</time>
      </trkpt>
      <trkpt lat="58.985126964198" lon="15.076714804958">
        <ele>105</ele>
        <time>2018-08-05T17:19:13Z</time>
      </trkpt>
      <trkpt lat="58.985073403857" lon="15.077157872192">
        <ele>106.6</ele>
        <time>2018-08-05T17:19:17Z</time>
      </trkpt>
      <trkpt lat="58.985079355006" lon="15.077584427083">
        <ele>106.8</ele>
        <time>2018-08-05T17:19:21Z</time>
      </trkpt>
      <trkpt lat="58.98511590009" lon="15.077847451105">
        <ele>106.6</ele>
        <time>2018-08-05T17:19:24Z</time>
      </trkpt>
      <trkpt lat="58.985167700232" lon="15.078205525873">
        <ele>106.2</ele>
        <time>2018-08-05T17:19:28Z</time>
      </trkpt>
      <trkpt lat="58.98521480651" lon="15.078578436604">
        <ele>105.6</ele>
        <time>2018-08-05T17:19:32Z</time>
      </trkpt>
      <trkpt lat="58.985263756806" lon="15.07891740064">
        <ele>106.4</ele>
        <time>2018-08-05T17:19:36Z</time>
      </trkpt>
      <trkpt lat="58.985331231101" lon="15.079306069343">
        <ele>110.8</ele>
        <time>2018-08-05T17:19:41Z</time>
      </trkpt>
      <trkpt lat="58.985398621577" lon="15.079659031152">
        <ele>113.4</ele>
        <time>2018-08-05T17:19:46Z</time>
      </trkpt>
      <trkpt lat="58.98551236396" lon="15.080014675169">
        <ele>115.6</ele>
        <time>2018-08-05T17:19:52Z</time>
      </trkpt>
      <trkpt lat="58.985658711934" lon="15.080313070809">
        <ele>115.2</ele>
        <time>2018-08-05T17:19:56Z</time>
      </trkpt>
      <trkpt lat="58.985777148181" lon="15.080605263843">
        <ele>115.8</ele>
        <time>2018-08-05T17:19:59Z</time>
      </trkpt>
      <trkpt lat="58.985832971635" lon="15.080821600682">
        <ele>117</ele>
        <time>2018-08-05T17:20:01Z</time>
      </trkpt>
      <trkpt lat="58.985897679903" lon="15.081161570546">
        <ele>116.2</ele>
        <time>2018-08-05T17:20:04Z</time>
      </trkpt>
      <trkpt lat="58.986013769218" lon="15.081547557041">
        <ele>115</ele>
        <time>2018-08-05T17:20:07Z</time>
      </trkpt>
      <trkpt lat="58.986172103309" lon="15.081917450288">
        <ele>114.8</ele>
        <time>2018-08-05T17:20:10Z</time>
      </trkpt>
      <trkpt lat="58.986324905346" lon="15.082222802905">
        <ele>115.6</ele>
        <time>2018-08-05T17:20:13Z</time>
      </trkpt>
      <trkpt lat="58.98646622418" lon="15.082468224937">
        <ele>117.4</ele>
        <time>2018-08-05T17:20:16Z</time>
      </trkpt>
      <trkpt lat="58.986633191628" lon="15.082755053555">
        <ele>118.4</ele>
        <time>2018-08-05T17:20:20Z</time>
      </trkpt>
      <trkpt lat="58.986781718896" lon="15.083019837776">
        <ele>118.8</ele>
        <time>2018-08-05T17:20:24Z</time>
      </trkpt>
      <trkpt lat="58.98694650705" lon="15.083292836259">
        <ele>117.4</ele>
        <time>2018-08-05T17:20:28Z</time>
      </trkpt>
      <trkpt lat="58.986993194233" lon="15.083377828725">
        <ele>116.8</ele>
        <time>2018-08-05T17:20:29Z</time>
      </trkpt>
      <trkpt lat="58.987131411764" lon="15.083712350354">
        <ele>114.2</ele>
        <time>2018-08-05T17:20:32Z</time>
      </trkpt>
      <trkpt lat="58.987218164429" lon="15.084006638863">
        <ele>112.6</ele>
        <time>2018-08-05T17:20:34Z</time>
      </trkpt>
      <trkpt lat="58.987308437492" lon="15.084343339786">
        <ele>110.8</ele>
        <time>2018-08-05T17:20:36Z</time>
      </trkpt>
      <trkpt lat="58.987407679188" lon="15.084707449522">
        <ele>109.2</ele>
        <time>2018-08-05T17:20:38Z</time>
      </trkpt>
      <trkpt lat="58.987512033843" lon="15.08509653732">
        <ele>107</ele>
        <time>2018-08-05T17:20:40Z</time>
      </trkpt>
      <trkpt lat="58.987622339647" lon="15.085497862692">
        <ele>105.2</ele>
        <time>2018-08-05T17:20:42Z</time>
      </trkpt>
      <trkpt lat="58.987734489469" lon="15.085896589675">
        <ele>103.4</ele>
        <time>2018-08-05T17:20:44Z</time>
      </trkpt>
      <trkpt lat="58.987842615979" lon="15.08627670884">
        <ele>102.6</ele>
        <time>2018-08-05T17:20:46Z</time>
      </trkpt>
      <trkpt lat="58.98794227677" lon="15.086630089744">
        <ele>102.2</ele>
        <time>2018-08-05T17:20:48Z</time>
      </trkpt>
      <trkpt lat="58.988034058575" lon="15.086964779011">
        <ele>101.6</ele>
        <time>2018-08-05T17:20:50Z</time>
      </trkpt>
      <trkpt lat="58.988127432941" lon="15.087305335608">
        <ele>100.6</ele>
        <time>2018-08-05T17:20:52Z</time>
      </trkpt>
      <trkpt lat="58.988215191434" lon="15.087648909689">
        <ele>99.4</ele>
        <time>2018-08-05T17:20:54Z</time>
      </trkpt>
      <trkpt lat="58.988291885819" lon="15.088001033308">
        <ele>98.8</ele>
        <time>2018-08-05T17:20:56Z</time>
      </trkpt>
      <trkpt lat="58.988350642938" lon="15.08835458185">
        <ele>98.6</ele>
        <time>2018-08-05T17:20:58Z</time>
      </trkpt>
      <trkpt lat="58.988394144999" lon="15.08869321061">
        <ele>98.4</ele>
        <time>2018-08-05T17:21:00Z</time>
      </trkpt>
      <trkpt lat="58.988450722824" lon="15.089157316413">
        <ele>98</ele>
        <time>2018-08-05T17:21:03Z</time>
      </trkpt>
      <trkpt lat="58.988508138839" lon="15.089559647613">
        <ele>97.6</ele>
        <time>2018-08-05T17:21:06Z</time>
      </trkpt>
      <trkpt lat="58.988543426638" lon="15.089988884712">
        <ele>97.6</ele>
        <time>2018-08-05T17:21:10Z</time>
      </trkpt>
      <trkpt lat="58.988540660611" lon="15.090338745218">
        <ele>96.8</ele>
        <time>2018-08-05T17:21:15Z</time>
      </trkpt>
      <trkpt lat="58.988495649808" lon="15.090728587387">
        <ele>96.4</ele>
        <time>2018-08-05T17:21:22Z</time>
      </trkpt>
      <trkpt lat="58.988419374518" lon="15.091085153413">
        <ele>96.2</ele>
        <time>2018-08-05T17:21:29Z</time>
      </trkpt>
      <trkpt lat="58.988322060659" lon="15.091398971749">
        <ele>95.4</ele>
        <time>2018-08-05T17:21:36Z</time>
      </trkpt>
      <trkpt lat="58.988234553623" lon="15.091761488924">
        <ele>97.4</ele>
        <time>2018-08-05T17:21:42Z</time>
      </trkpt>
      <trkpt lat="58.988187698802" lon="15.092152588378">
        <ele>100.8</ele>
        <time>2018-08-05T17:21:49Z</time>
      </trkpt>
      <trkpt lat="58.988191135381" lon="15.092539077787">
        <ele>106.6</ele>
        <time>2018-08-05T17:21:57Z</time>
      </trkpt>
      <trkpt lat="58.988201528937" lon="15.092917352934">
        <ele>110.8</ele>
        <time>2018-08-05T17:22:05Z</time>
      </trkpt>
      <trkpt lat="58.988206809534" lon="15.093301327773">
        <ele>115</ele>
        <time>2018-08-05T17:22:13Z</time>
      </trkpt>
      <trkpt lat="58.988251401242" lon="15.09365110446">
        <ele>118.6</ele>
        <time>2018-08-05T17:22:24Z</time>
      </trkpt>
      <trkpt lat="58.988303201384" lon="15.094005826468">
        <ele>121</ele>
        <time>2018-08-05T17:22:34Z</time>
      </trkpt>
      <trkpt lat="58.988362545236" lon="15.094345041961">
        <ele>122.4</ele>
        <time>2018-08-05T17:22:42Z</time>
      </trkpt>
      <trkpt lat="58.988392887714" lon="15.094732537198">
        <ele>124.4</ele>
        <time>2018-08-05T17:22:50Z</time>
      </trkpt>
      <trkpt lat="58.988381404511" lon="15.09509195307">
        <ele>126</ele>
        <time>2018-08-05T17:22:57Z</time>
      </trkpt>
      <trkpt lat="58.988348715101" lon="15.095471234045">
        <ele>127.6</ele>
        <time>2018-08-05T17:23:06Z</time>
      </trkpt>
      <trkpt lat="58.988296495864" lon="15.095843893319">
        <ele>127</ele>
        <time>2018-08-05T17:23:14Z</time>
      </trkpt>
      <trkpt lat="58.988249976319" lon="15.09620004025">
        <ele>127.6</ele>
        <time>2018-08-05T17:23:22Z</time>
      </trkpt>
      <trkpt lat="58.988212928321" lon="15.096547637643">
        <ele>127.8</ele>
        <time>2018-08-05T17:23:30Z</time>
      </trkpt>
      <trkpt lat="58.988192979399" lon="15.096897665787">
        <ele>129</ele>
        <time>2018-08-05T17:23:38Z</time>
      </trkpt>
      <trkpt lat="58.988156769591" lon="15.097274767468">
        <ele>130.2</ele>
        <time>2018-08-05T17:23:44Z</time>
      </trkpt>
      <trkpt lat="58.988106981105" lon="15.097692102269">
        <ele>130.6</ele>
        <time>2018-08-05T17:23:49Z</time>
      </trkpt>
      <trkpt lat="58.988067250899" lon="15.098069371588">
        <ele>130.8</ele>
        <time>2018-08-05T17:23:53Z</time>
      </trkpt>
      <trkpt lat="58.988036489326" lon="15.098467930933">
        <ele>131.8</ele>
        <time>2018-08-05T17:23:57Z</time>
      </trkpt>
      <trkpt lat="58.988028777978" lon="15.098830196651">
        <ele>133</ele>
        <time>2018-08-05T17:24:01Z</time>
      </trkpt>
      <trkpt lat="58.988062221759" lon="15.099253314963">
        <ele>134</ele>
        <time>2018-08-05T17:24:06Z</time>
      </trkpt>
      <trkpt lat="58.988109998589" lon="15.099611641188">
        <ele>134.4</ele>
        <time>2018-08-05T17:24:10Z</time>
      </trkpt>
      <trkpt lat="58.98815182427" lon="15.099974242182">
        <ele>134.8</ele>
        <time>2018-08-05T17:24:14Z</time>
      </trkpt>
      <trkpt lat="58.988194069046" lon="15.100320498471">
        <ele>135</ele>
        <time>2018-08-05T17:24:18Z</time>
      </trkpt>
      <trkpt lat="58.988238325478" lon="15.100723835499">
        <ele>135.6</ele>
        <time>2018-08-05T17:24:23Z</time>
      </trkpt>
      <trkpt lat="58.988290712353" lon="15.10112105374">
        <ele>136.2</ele>
        <time>2018-08-05T17:24:28Z</time>
      </trkpt>
      <trkpt lat="58.988322395935" lon="15.101497065774">
        <ele>136.4</ele>
        <time>2018-08-05T17:24:33Z</time>
      </trkpt>
      <trkpt lat="58.988349720929" lon="15.101870730876">
        <ele>136</ele>
        <time>2018-08-05T17:24:39Z</time>
      </trkpt>
      <trkpt lat="58.988378806122" lon="15.102269709316">
        <ele>135.4</ele>
        <time>2018-08-05T17:24:46Z</time>
      </trkpt>
      <trkpt lat="58.988404622374" lon="15.102652594508">
        <ele>135.6</ele>
        <time>2018-08-05T17:24:52Z</time>
      </trkpt>
      <trkpt lat="58.988432031187" lon="15.102997174417">
        <ele>136.4</ele>
        <time>2018-08-05T17:24:57Z</time>
      </trkpt>
      <trkpt lat="58.988475449429" lon="15.103374695193">
        <ele>137.2</ele>
        <time>2018-08-05T17:25:03Z</time>
      </trkpt>
      <trkpt lat="58.98851056959" lon="15.103742241508">
        <ele>137.4</ele>
        <time>2018-08-05T17:25:08Z</time>
      </trkpt>
      <trkpt lat="58.988534206548" lon="15.104131077849">
        <ele>137</ele>
        <time>2018-08-05T17:25:13Z</time>
      </trkpt>
      <trkpt lat="58.988568320881" lon="15.104519746552">
        <ele>136.8</ele>
        <time>2018-08-05T17:25:18Z</time>
      </trkpt>
      <trkpt lat="58.988597322255" lon="15.104899446622">
        <ele>137</ele>
        <time>2018-08-05T17:25:23Z</time>
      </trkpt>
      <trkpt lat="58.98860947601" lon="15.105274620466">
        <ele>137</ele>
        <time>2018-08-05T17:25:28Z</time>
      </trkpt>
      <trkpt lat="58.98857846298" lon="15.105629174836">
        <ele>138.4</ele>
        <time>2018-08-05T17:25:33Z</time>
      </trkpt>
      <trkpt lat="58.988486429718" lon="15.105974676754">
        <ele>139.4</ele>
        <time>2018-08-05T17:25:39Z</time>
      </trkpt>
      <trkpt lat="58.988354163336" lon="15.106245663581">
        <ele>142.4</ele>
        <time>2018-08-05T17:25:47Z</time>
      </trkpt>
      <trkpt lat="58.988211251941" lon="15.106507514137">
        <ele>145.2</ele>
        <time>2018-08-05T17:25:55Z</time>
      </trkpt>
      <trkpt lat="58.988084349975" lon="15.106796522049">
        <ele>150.4</ele>
        <time>2018-08-05T17:26:04Z</time>
      </trkpt>
      <trkpt lat="58.987962896244" lon="15.107090810558">
        <ele>154.6</ele>
        <time>2018-08-05T17:26:15Z</time>
      </trkpt>
      <trkpt lat="58.98784253216" lon="15.107388787103">
        <ele>157.8</ele>
        <time>2018-08-05T17:26:25Z</time>
      </trkpt>
      <trkpt lat="58.987723760637" lon="15.107697408661">
        <ele>161</ele>
        <time>2018-08-05T17:26:35Z</time>
      </trkpt>
      <trkpt lat="58.987625943864" lon="15.108001839269">
        <ele>164.2</ele>
        <time>2018-08-05T17:26:43Z</time>
      </trkpt>
      <trkpt lat="58.987521840666" lon="15.108331415577">
        <ele>166.4</ele>
        <time>2018-08-05T17:26:51Z</time>
      </trkpt>
      <trkpt lat="58.987432489612" lon="15.108663422636">
        <ele>167.2</ele>
        <time>2018-08-05T17:26:59Z</time>
      </trkpt>
      <trkpt lat="58.987331906812" lon="15.10900506888">
        <ele>165.6</ele>
        <time>2018-08-05T17:27:07Z</time>
      </trkpt>
      <trkpt lat="58.98723149165" lon="15.109298351561">
        <ele>165.4</ele>
        <time>2018-08-05T17:27:14Z</time>
      </trkpt>
      <trkpt lat="58.987117581629" lon="15.109642344737">
        <ele>164</ele>
        <time>2018-08-05T17:27:21Z</time>
      </trkpt>
      <trkpt lat="58.987029320222" lon="15.109957587996">
        <ele>164.8</ele>
        <time>2018-08-05T17:27:26Z</time>
      </trkpt>
      <trkpt lat="58.986934940028" lon="15.11033276184">
        <ele>165.8</ele>
        <time>2018-08-05T17:27:32Z</time>
      </trkpt>
      <trkpt lat="58.986847432992" lon="15.110662086691">
        <ele>166</ele>
        <time>2018-08-05T17:27:37Z</time>
      </trkpt>
      <trkpt lat="58.986736456636" lon="15.111035500336">
        <ele>166.6</ele>
        <time>2018-08-05T17:27:42Z</time>
      </trkpt>
      <trkpt lat="58.986630257963" lon="15.111349989224">
        <ele>167.2</ele>
        <time>2018-08-05T17:27:46Z</time>
      </trkpt>
      <trkpt lat="58.986519784521" lon="15.111659448972">
        <ele>167.2</ele>
        <time>2018-08-05T17:27:50Z</time>
      </trkpt>
      <trkpt lat="58.986407467061" lon="15.11194711578">
        <ele>167.4</ele>
        <time>2018-08-05T17:27:54Z</time>
      </trkpt>
      <trkpt lat="58.986283079665" lon="15.112242913031">
        <ele>166.8</ele>
        <time>2018-08-05T17:27:59Z</time>
      </trkpt>
      <trkpt lat="58.986149891274" lon="15.112503925397">
        <ele>166.8</ele>
        <time>2018-08-05T17:28:04Z</time>
      </trkpt>
      <trkpt lat="58.986019385091" lon="15.112760076261">
        <ele>167.6</ele>
        <time>2018-08-05T17:28:09Z</time>
      </trkpt>
      <trkpt lat="58.985869181443" lon="15.113027207414">
        <ele>168.2</ele>
        <time>2018-08-05T17:28:15Z</time>
      </trkpt>
      <trkpt lat="58.985711769361" lon="15.113302720467">
        <ele>169</ele>
        <time>2018-08-05T17:28:20Z</time>
      </trkpt>
      <trkpt lat="58.985565589025" lon="15.113599523546">
        <ele>169.8</ele>
        <time>2018-08-05T17:28:24Z</time>
      </trkpt>
      <trkpt lat="58.985459222714" lon="15.11388501106">
        <ele>170.4</ele>
        <time>2018-08-05T17:28:28Z</time>
      </trkpt>
      <trkpt lat="58.985382528329" lon="15.114253479384">
        <ele>171.2</ele>
        <time>2018-08-05T17:28:33Z</time>
      </trkpt>
      <trkpt lat="58.985351180023" lon="15.114601998786">
        <ele>171.4</ele>
        <time>2018-08-05T17:28:37Z</time>
      </trkpt>
      <trkpt lat="58.985316478957" lon="15.115006928375">
        <ele>171.2</ele>
        <time>2018-08-05T17:28:41Z</time>
      </trkpt>
      <trkpt lat="58.985258476209" lon="15.115376067251">
        <ele>171.2</ele>
        <time>2018-08-05T17:28:45Z</time>
      </trkpt>
      <trkpt lat="58.985195109045" lon="15.115715701839">
        <ele>170.6</ele>
        <time>2018-08-05T17:28:49Z</time>
      </trkpt>
      <trkpt lat="58.985150433518" lon="15.116132617545">
        <ele>170.6</ele>
        <time>2018-08-05T17:28:54Z</time>
      </trkpt>
      <trkpt lat="58.985141129609" lon="15.116219789305">
        <ele>170.4</ele>
        <time>2018-08-05T17:28:55Z</time>
      </trkpt>
      <trkpt lat="58.98513601665" lon="15.116636453554">
        <ele>169.4</ele>
        <time>2018-08-05T17:29:00Z</time>
      </trkpt>
      <trkpt lat="58.985145069102" lon="15.117047334292">
        <ele>169.2</ele>
        <time>2018-08-05T17:29:05Z</time>
      </trkpt>
      <trkpt lat="58.985120258678" lon="15.117414377693">
        <ele>168.6</ele>
        <time>2018-08-05T17:29:11Z</time>
      </trkpt>
      <trkpt lat="58.985078265359" lon="15.117761891267">
        <ele>169.4</ele>
        <time>2018-08-05T17:29:17Z</time>
      </trkpt>
      <trkpt lat="58.985008025037" lon="15.118083420951">
        <ele>169.6</ele>
        <time>2018-08-05T17:29:23Z</time>
      </trkpt>
      <trkpt lat="58.984924122218" lon="15.118465132677">
        <ele>171.6</ele>
        <time>2018-08-05T17:29:30Z</time>
      </trkpt>
      <trkpt lat="58.984907358418" lon="15.118844916566">
        <ele>175.4</ele>
        <time>2018-08-05T17:29:36Z</time>
      </trkpt>
      <trkpt lat="58.984904592391" lon="15.119232830898">
        <ele>177.2</ele>
        <time>2018-08-05T17:29:42Z</time>
      </trkpt>
      <trkpt lat="58.984889756428" lon="15.11960481962">
        <ele>178.2</ele>
        <time>2018-08-05T17:29:48Z</time>
      </trkpt>
      <trkpt lat="58.984848349842" lon="15.119946717321">
        <ele>178.6</ele>
        <time>2018-08-05T17:29:53Z</time>
      </trkpt>
      <trkpt lat="58.984781043185" lon="15.12031644293">
        <ele>178.8</ele>
        <time>2018-08-05T17:29:58Z</time>
      </trkpt>
      <trkpt lat="58.984713485071" lon="15.120697316466">
        <ele>179.4</ele>
        <time>2018-08-05T17:30:03Z</time>
      </trkpt>
      <trkpt lat="58.984649195898" lon="15.121057654347">
        <ele>180.4</ele>
        <time>2018-08-05T17:30:08Z</time>
      </trkpt>
      <trkpt lat="58.984585828734" lon="15.121422099359">
        <ele>181.4</ele>
        <time>2018-08-05T17:30:13Z</time>
      </trkpt>
      <trkpt lat="58.984531597841" lon="15.12175645335">
        <ele>181</ele>
        <time>2018-08-05T17:30:18Z</time>
      </trkpt>
      <trkpt lat="58.984470242333" lon="15.122114611937">
        <ele>180</ele>
        <time>2018-08-05T17:30:24Z</time>
      </trkpt>
      <trkpt lat="58.984419783295" lon="15.12245382743">
        <ele>180</ele>
        <time>2018-08-05T17:30:30Z</time>
      </trkpt>
      <trkpt lat="58.984375694501" lon="15.122814332949">
        <ele>180.2</ele>
        <time>2018-08-05T17:30:37Z</time>
      </trkpt>
      <trkpt lat="58.984329594051" lon="15.123162014161">
        <ele>182</ele>
        <time>2018-08-05T17:30:44Z</time>
      </trkpt>
      <trkpt lat="58.984288522741" lon="15.123531153037">
        <ele>184</ele>
        <time>2018-08-05T17:30:52Z</time>
      </trkpt>
      <trkpt lat="58.984249882182" lon="15.123879756258">
        <ele>185.6</ele>
        <time>2018-08-05T17:30:59Z</time>
      </trkpt>
      <trkpt lat="58.984204955198" lon="15.124252750808">
        <ele>187</ele>
        <time>2018-08-05T17:31:06Z</time>
      </trkpt>
      <trkpt lat="58.984143180595" lon="15.124638904941">
        <ele>188.2</ele>
        <time>2018-08-05T17:31:13Z</time>
      </trkpt>
      <trkpt lat="58.984089704073" lon="15.125021873952">
        <ele>188.2</ele>
        <time>2018-08-05T17:31:20Z</time>
      </trkpt>
      <trkpt lat="58.984039077397" lon="15.125356898495">
        <ele>189</ele>
        <time>2018-08-05T17:31:26Z</time>
      </trkpt>
      <trkpt lat="58.984003789598" lon="15.125734000176">
        <ele>188.2</ele>
        <time>2018-08-05T17:31:33Z</time>
      </trkpt>
      <trkpt lat="58.984013847878" lon="15.125856627373">
        <ele>188.2</ele>
        <time>2018-08-05T17:31:37Z</time>
      </trkpt>
      <trkpt lat="58.984147874459" lon="15.126085201786">
        <ele>187.4</ele>
        <time>2018-08-05T17:31:46Z</time>
      </trkpt>
      <trkpt lat="58.984308555482" lon="15.126309836706">
        <ele>186.4</ele>
        <time>2018-08-05T17:31:50Z</time>
      </trkpt>
      <trkpt lat="58.984471415799" lon="15.126525251536">
        <ele>185</ele>
        <time>2018-08-05T17:31:53Z</time>
      </trkpt>
      <trkpt lat="58.984676520892" lon="15.126834711284">
        <ele>182.6</ele>
        <time>2018-08-05T17:31:56Z</time>
      </trkpt>
      <trkpt lat="58.984827227454" lon="15.127093460537">
        <ele>180.6</ele>
        <time>2018-08-05T17:31:58Z</time>
      </trkpt>
      <trkpt lat="58.984978101654" lon="15.127360507871">
        <ele>179.2</ele>
        <time>2018-08-05T17:32:00Z</time>
      </trkpt>
      <trkpt lat="58.985121683601" lon="15.127618418934">
        <ele>179</ele>
        <time>2018-08-05T17:32:02Z</time>
      </trkpt>
      <trkpt lat="58.985271719611" lon="15.127998370461">
        <ele>178.4</ele>
        <time>2018-08-05T17:32:05Z</time>
      </trkpt>
      <trkpt lat="58.985339613001" lon="15.128356780505">
        <ele>178</ele>
        <time>2018-08-05T17:32:08Z</time>
      </trkpt>
      <trkpt lat="58.985348246358" lon="15.128451412156">
        <ele>177.8</ele>
        <time>2018-08-05T17:32:09Z</time>
      </trkpt>
      <trkpt lat="58.985370877488" lon="15.128838655936">
        <ele>175.4</ele>
        <time>2018-08-05T17:32:15Z</time>
      </trkpt>
      <trkpt lat="58.985393508618" lon="15.129197652713">
        <ele>172.8</ele>
        <time>2018-08-05T17:32:21Z</time>
      </trkpt>
      <trkpt lat="58.985396609921" lon="15.129564863752">
        <ele>171.2</ele>
        <time>2018-08-05T17:32:28Z</time>
      </trkpt>
      <trkpt lat="58.985399124491" lon="15.129914305163">
        <ele>172</ele>
        <time>2018-08-05T17:32:35Z</time>
      </trkpt>
      <trkpt lat="58.98543273591" lon="15.130308170644">
        <ele>173.4</ele>
        <time>2018-08-05T17:32:43Z</time>
      </trkpt>
      <trkpt lat="58.985450170262" lon="15.130717458821">
        <ele>174.2</ele>
        <time>2018-08-05T17:32:50Z</time>
      </trkpt>
      <trkpt lat="58.98542351582" lon="15.131116101985">
        <ele>174.4</ele>
        <time>2018-08-05T17:32:56Z</time>
      </trkpt>
      <trkpt lat="58.985377583008" lon="15.131455820392">
        <ele>175.4</ele>
        <time>2018-08-05T17:33:01Z</time>
      </trkpt>
      <trkpt lat="58.985361741217" lon="15.131859827972">
        <ele>181.2</ele>
        <time>2018-08-05T17:33:07Z</time>
      </trkpt>
      <trkpt lat="58.985339110087" lon="15.132215136713">
        <ele>182.8</ele>
        <time>2018-08-05T17:33:12Z</time>
      </trkpt>
      <trkpt lat="58.985319664079" lon="15.132590981109">
        <ele>183.6</ele>
        <time>2018-08-05T17:33:17Z</time>
      </trkpt>
      <trkpt lat="58.985296446216" lon="15.133006890987">
        <ele>184.4</ele>
        <time>2018-08-05T17:33:22Z</time>
      </trkpt>
      <trkpt lat="58.98526677429" lon="15.133437636828">
        <ele>184.8</ele>
        <time>2018-08-05T17:33:27Z</time>
      </trkpt>
      <trkpt lat="58.985244059341" lon="15.13378615623">
        <ele>185</ele>
        <time>2018-08-05T17:33:31Z</time>
      </trkpt>
      <trkpt lat="58.985213381587" lon="15.134191588733">
        <ele>186</ele>
        <time>2018-08-05T17:33:36Z</time>
      </trkpt>
      <trkpt lat="58.985165772395" lon="15.134588639336">
        <ele>186.6</ele>
        <time>2018-08-05T17:33:41Z</time>
      </trkpt>
      <trkpt lat="58.985094861521" lon="15.134915784893">
        <ele>186.6</ele>
        <time>2018-08-05T17:33:45Z</time>
      </trkpt>
      <trkpt lat="58.985003414992" lon="15.135216778922">
        <ele>186.4</ele>
        <time>2018-08-05T17:33:49Z</time>
      </trkpt>
      <trkpt lat="58.984905262943" lon="15.135575356604">
        <ele>186.8</ele>
        <time>2018-08-05T17:33:54Z</time>
      </trkpt>
      <trkpt lat="58.984869975144" lon="15.13599059593">
        <ele>186.8</ele>
        <time>2018-08-05T17:33:59Z</time>
      </trkpt>
      <trkpt lat="58.984857402294" lon="15.1364205874">
        <ele>185.6</ele>
        <time>2018-08-05T17:34:03Z</time>
      </trkpt>
      <trkpt lat="58.984846673462" lon="15.136771956648">
        <ele>185.4</ele>
        <time>2018-08-05T17:34:06Z</time>
      </trkpt>
      <trkpt lat="58.984846086729" lon="15.13689248837">
        <ele>185.2</ele>
        <time>2018-08-05T17:34:07Z</time>
      </trkpt>
      <trkpt lat="58.984845499996" lon="15.137280486521">
        <ele>184.2</ele>
        <time>2018-08-05T17:34:10Z</time>
      </trkpt>
      <trkpt lat="58.984861341787" lon="15.137544935466">
        <ele>183.8</ele>
        <time>2018-08-05T17:34:12Z</time>
      </trkpt>
      <trkpt lat="58.98493652743" lon="15.137872919213">
        <ele>182.8</ele>
        <time>2018-08-05T17:34:15Z</time>
      </trkpt>
      <trkpt lat="58.985010120512" lon="15.138062182515">
        <ele>182</ele>
        <time>2018-08-05T17:34:17Z</time>
      </trkpt>
      <trkpt lat="58.985126377465" lon="15.138348759676">
        <ele>181</ele>
        <time>2018-08-05T17:34:20Z</time>
      </trkpt>
      <trkpt lat="58.98524162859" lon="15.138662242736">
        <ele>180</ele>
        <time>2018-08-05T17:34:23Z</time>
      </trkpt>
      <trkpt lat="58.985336846974" lon="15.139003721342">
        <ele>179</ele>
        <time>2018-08-05T17:34:26Z</time>
      </trkpt>
      <trkpt lat="58.985391413143" lon="15.139360287368">
        <ele>178.2</ele>
        <time>2018-08-05T17:34:29Z</time>
      </trkpt>
      <trkpt lat="58.98539920831" lon="15.139709393503">
        <ele>177.2</ele>
        <time>2018-08-05T17:34:32Z</time>
      </trkpt>
      <trkpt lat="58.985375990447" lon="15.14007677218">
        <ele>176.6</ele>
        <time>2018-08-05T17:34:36Z</time>
      </trkpt>
      <trkpt lat="58.985316059862" lon="15.140475415344">
        <ele>173.2</ele>
        <time>2018-08-05T17:34:41Z</time>
      </trkpt>
      <trkpt lat="58.985294518379" lon="15.140922086795">
        <ele>172.4</ele>
        <time>2018-08-05T17:34:46Z</time>
      </trkpt>
      <trkpt lat="58.985257973295" lon="15.141360795441">
        <ele>173.2</ele>
        <time>2018-08-05T17:34:50Z</time>
      </trkpt>
      <trkpt lat="58.985214303596" lon="15.141773101102">
        <ele>173.4</ele>
        <time>2018-08-05T17:34:54Z</time>
      </trkpt>
      <trkpt lat="58.985207178981" lon="15.141867648934">
        <ele>173.8</ele>
        <time>2018-08-05T17:34:55Z</time>
      </trkpt>
      <trkpt lat="58.985198964719" lon="15.142048446517">
        <ele>174.4</ele>
        <time>2018-08-05T17:34:57Z</time>
      </trkpt>
      <trkpt lat="58.985216734347" lon="15.142398474661">
        <ele>175.2</ele>
        <time>2018-08-05T17:35:01Z</time>
      </trkpt>
      <trkpt lat="58.985276413475" lon="15.14271790887">
        <ele>175.4</ele>
        <time>2018-08-05T17:35:05Z</time>
      </trkpt>
      <trkpt lat="58.985324357943" lon="15.143063326969">
        <ele>175.2</ele>
        <time>2018-08-05T17:35:09Z</time>
      </trkpt>
      <trkpt lat="58.98537825356" lon="15.143452498586">
        <ele>174</ele>
        <time>2018-08-05T17:35:13Z</time>
      </trkpt>
      <trkpt lat="58.985416055929" lon="15.143816273046">
        <ele>173</ele>
        <time>2018-08-05T17:35:16Z</time>
      </trkpt>
      <trkpt lat="58.985419911603" lon="15.144111064469">
        <ele>172.6</ele>
        <time>2018-08-05T17:35:18Z</time>
      </trkpt>
      <trkpt lat="58.985383617976" lon="15.144571733693">
        <ele>172.8</ele>
        <time>2018-08-05T17:35:21Z</time>
      </trkpt>
      <trkpt lat="58.985375068438" lon="15.144718919857">
        <ele>173.8</ele>
        <time>2018-08-05T17:35:22Z</time>
      </trkpt>
      <trkpt lat="58.985374230248" lon="15.145144720377">
        <ele>173.8</ele>
        <time>2018-08-05T17:35:25Z</time>
      </trkpt>
      <trkpt lat="58.98539753193" lon="15.14555937297">
        <ele>174</ele>
        <time>2018-08-05T17:35:28Z</time>
      </trkpt>
      <trkpt lat="58.985415888291" lon="15.145924069439">
        <ele>174.8</ele>
        <time>2018-08-05T17:35:31Z</time>
      </trkpt>
      <trkpt lat="58.985448996796" lon="15.146372584908">
        <ele>176.2</ele>
        <time>2018-08-05T17:35:35Z</time>
      </trkpt>
      <trkpt lat="58.985472549935" lon="15.146727558373">
        <ele>177</ele>
        <time>2018-08-05T17:35:38Z</time>
      </trkpt>
      <trkpt lat="58.985516974005" lon="15.14713684655">
        <ele>179.2</ele>
        <time>2018-08-05T17:35:42Z</time>
      </trkpt>
      <trkpt lat="58.985589225983" lon="15.147500201915">
        <ele>181.8</ele>
        <time>2018-08-05T17:35:47Z</time>
      </trkpt>
      <trkpt lat="58.985684276729" lon="15.147813852613">
        <ele>184.2</ele>
        <time>2018-08-05T17:35:52Z</time>
      </trkpt>
      <trkpt lat="58.985749236454" lon="15.148147452233">
        <ele>186.2</ele>
        <time>2018-08-05T17:35:57Z</time>
      </trkpt>
      <trkpt lat="58.985803802623" lon="15.148502174241">
        <ele>187.8</ele>
        <time>2018-08-05T17:36:02Z</time>
      </trkpt>
      <trkpt lat="58.985855518946" lon="15.148837869336">
        <ele>188.4</ele>
        <time>2018-08-05T17:36:07Z</time>
      </trkpt>
      <trkpt lat="58.985897344627" lon="15.149178593571">
        <ele>188.6</ele>
        <time>2018-08-05T17:36:12Z</time>
      </trkpt>
      <trkpt lat="58.985967668768" lon="15.149510181535">
        <ele>188.4</ele>
        <time>2018-08-05T17:36:17Z</time>
      </trkpt>
      <trkpt lat="58.986054086157" lon="15.149865155">
        <ele>188.2</ele>
        <time>2018-08-05T17:36:22Z</time>
      </trkpt>
      <trkpt lat="58.986114268199" lon="15.150277628299">
        <ele>187.4</ele>
        <time>2018-08-05T17:36:27Z</time>
      </trkpt>
      <trkpt lat="58.986157183527" lon="15.150688089942">
        <ele>186.6</ele>
        <time>2018-08-05T17:36:32Z</time>
      </trkpt>
      <trkpt lat="58.986202781063" lon="15.151054127515">
        <ele>187.6</ele>
        <time>2018-08-05T17:36:37Z</time>
      </trkpt>
      <trkpt lat="58.986246450762" lon="15.151439192001">
        <ele>186.4</ele>
        <time>2018-08-05T17:36:42Z</time>
      </trkpt>
      <trkpt lat="58.986292299755" lon="15.151792908181">
        <ele>186.6</ele>
        <time>2018-08-05T17:36:47Z</time>
      </trkpt>
      <trkpt lat="58.986338567843" lon="15.152224492212">
        <ele>184.6</ele>
        <time>2018-08-05T17:36:52Z</time>
      </trkpt>
      <trkpt lat="58.986388188691" lon="15.152620201711">
        <ele>182.8</ele>
        <time>2018-08-05T17:36:56Z</time>
      </trkpt>
      <trkpt lat="58.986405287767" lon="15.15272003014">
        <ele>182.4</ele>
        <time>2018-08-05T17:36:57Z</time>
      </trkpt>
      <trkpt lat="58.986456249719" lon="15.152911472736">
        <ele>181.2</ele>
        <time>2018-08-05T17:36:59Z</time>
      </trkpt>
      <trkpt lat="58.986573680138" lon="15.15320031301">
        <ele>180.4</ele>
        <time>2018-08-05T17:37:02Z</time>
      </trkpt>
      <trkpt lat="58.98672103394" lon="15.153562662547">
        <ele>179.4</ele>
        <time>2018-08-05T17:37:06Z</time>
      </trkpt>
      <trkpt lat="58.986820694731" lon="15.153877654349">
        <ele>178.4</ele>
        <time>2018-08-05T17:37:09Z</time>
      </trkpt>
      <trkpt lat="58.986900574238" lon="15.15425643241">
        <ele>177.2</ele>
        <time>2018-08-05T17:37:12Z</time>
      </trkpt>
      <trkpt lat="58.986973748225" lon="15.154608723667">
        <ele>176.6</ele>
        <time>2018-08-05T17:37:15Z</time>
      </trkpt>
      <trkpt lat="58.987028062937" lon="15.154798238426">
        <ele>176.2</ele>
        <time>2018-08-05T17:37:17Z</time>
      </trkpt>
      <trkpt lat="58.987149684306" lon="15.155047180856">
        <ele>175.8</ele>
        <time>2018-08-05T17:37:20Z</time>
      </trkpt>
      <trkpt lat="58.987299133583" lon="15.15528992068">
        <ele>175.8</ele>
        <time>2018-08-05T17:37:23Z</time>
      </trkpt>
      <trkpt lat="58.987401560401" lon="15.155463258372">
        <ele>176.4</ele>
        <time>2018-08-05T17:37:25Z</time>
      </trkpt>
      <trkpt lat="58.987522427399" lon="15.155758049795">
        <ele>177.4</ele>
        <time>2018-08-05T17:37:28Z</time>
      </trkpt>
      <trkpt lat="58.987590069332" lon="15.156097852021">
        <ele>178.8</ele>
        <time>2018-08-05T17:37:31Z</time>
      </trkpt>
      <trkpt lat="58.987585291649" lon="15.156448885993">
        <ele>179.8</ele>
        <time>2018-08-05T17:37:34Z</time>
      </trkpt>
      <trkpt lat="58.987465179022" lon="15.156795980472">
        <ele>181.4</ele>
        <time>2018-08-05T17:37:38Z</time>
      </trkpt>
      <trkpt lat="58.987394854881" lon="15.156928833587">
        <ele>182.2</ele>
        <time>2018-08-05T17:37:40Z</time>
      </trkpt>
      <trkpt lat="58.987364596222" lon="15.157313981892">
        <ele>184.8</ele>
        <time>2018-08-05T17:37:45Z</time>
      </trkpt>
      <trkpt lat="58.987409858482" lon="15.157446751188">
        <ele>185.8</ele>
        <time>2018-08-05T17:37:47Z</time>
      </trkpt>
      <trkpt lat="58.987537431" lon="15.157784709396">
        <ele>187.4</ele>
        <time>2018-08-05T17:37:52Z</time>
      </trkpt>
      <trkpt lat="58.987677492549" lon="15.158051421454">
        <ele>188</ele>
        <time>2018-08-05T17:37:56Z</time>
      </trkpt>
      <trkpt lat="58.987760305721" lon="15.158159631783">
        <ele>188.2</ele>
        <time>2018-08-05T17:37:58Z</time>
      </trkpt>
      <trkpt lat="58.98790539641" lon="15.158396169001">
        <ele>188.8</ele>
        <time>2018-08-05T17:38:02Z</time>
      </trkpt>
      <trkpt lat="58.988012768549" lon="15.158677717022">
        <ele>189.4</ele>
        <time>2018-08-05T17:38:06Z</time>
      </trkpt>
      <trkpt lat="58.988080159025" lon="15.158899753553">
        <ele>189.8</ele>
        <time>2018-08-05T17:38:09Z</time>
      </trkpt>
      <trkpt lat="58.988170348269" lon="15.159212314604">
        <ele>190.2</ele>
        <time>2018-08-05T17:38:13Z</time>
      </trkpt>
      <trkpt lat="58.988256011287" lon="15.159595870348">
        <ele>189.2</ele>
        <time>2018-08-05T17:38:17Z</time>
      </trkpt>
      <trkpt lat="58.988340836115" lon="15.160018569565">
        <ele>190</ele>
        <time>2018-08-05T17:38:21Z</time>
      </trkpt>
      <trkpt lat="58.988414513016" lon="15.160368094795">
        <ele>191.2</ele>
        <time>2018-08-05T17:38:25Z</time>
      </trkpt>
      <trkpt lat="58.988500762767" lon="15.160765229217">
        <ele>192.4</ele>
        <time>2018-08-05T17:38:30Z</time>
      </trkpt>
      <trkpt lat="58.988586928699" lon="15.161108551841">
        <ele>192.6</ele>
        <time>2018-08-05T17:38:34Z</time>
      </trkpt>
      <trkpt lat="58.98869916234" lon="15.161432344638">
        <ele>193.2</ele>
        <time>2018-08-05T17:38:38Z</time>
      </trkpt>
      <trkpt lat="58.988833188921" lon="15.161728309527">
        <ele>193.8</ele>
        <time>2018-08-05T17:38:42Z</time>
      </trkpt>
      <trkpt lat="58.988862777028" lon="15.16181187707">
        <ele>193.8</ele>
        <time>2018-08-05T17:38:43Z</time>
      </trkpt>
      <trkpt lat="58.988943327087" lon="15.162171292942">
        <ele>194.4</ele>
        <time>2018-08-05T17:38:47Z</time>
      </trkpt>
      <trkpt lat="58.988969478615" lon="15.1623625679">
        <ele>194.2</ele>
        <time>2018-08-05T17:38:49Z</time>
      </trkpt>
      <trkpt lat="58.988994372858" lon="15.162753332078">
        <ele>194.4</ele>
        <time>2018-08-05T17:38:53Z</time>
      </trkpt>
      <trkpt lat="58.989009627916" lon="15.163179467874">
        <ele>194</ele>
        <time>2018-08-05T17:38:58Z</time>
      </trkpt>
      <trkpt lat="58.989013651228" lon="15.163572746622">
        <ele>193.4</ele>
        <time>2018-08-05T17:39:02Z</time>
      </trkpt>
      <trkpt lat="58.989021781671" lon="15.163777767896">
        <ele>192.8</ele>
        <time>2018-08-05T17:39:04Z</time>
      </trkpt>
      <trkpt lat="58.989082885722" lon="15.164178422716">
        <ele>192.4</ele>
        <time>2018-08-05T17:39:08Z</time>
      </trkpt>
      <trkpt lat="58.989141559022" lon="15.164427784241">
        <ele>193</ele>
        <time>2018-08-05T17:39:11Z</time>
      </trkpt>
      <trkpt lat="58.989264521495" lon="15.164754426884">
        <ele>192.8</ele>
        <time>2018-08-05T17:39:16Z</time>
      </trkpt>
      <trkpt lat="58.989369546702" lon="15.16505231961">
        <ele>190.4</ele>
        <time>2018-08-05T17:39:20Z</time>
      </trkpt>
      <trkpt lat="58.989504579111" lon="15.165421542305">
        <ele>189.8</ele>
        <time>2018-08-05T17:39:24Z</time>
      </trkpt>
      <trkpt lat="58.989608430852" lon="15.165732594614">
        <ele>188.8</ele>
        <time>2018-08-05T17:39:27Z</time>
      </trkpt>
      <trkpt lat="58.989704822702" lon="15.166041802905">
        <ele>187.2</ele>
        <time>2018-08-05T17:39:30Z</time>
      </trkpt>
      <trkpt lat="58.989796185412" lon="15.166280770874">
        <ele>185.6</ele>
        <time>2018-08-05T17:39:33Z</time>
      </trkpt>
      <trkpt lat="58.989959883919" lon="15.16652501944">
        <ele>184</ele>
        <time>2018-08-05T17:39:37Z</time>
      </trkpt>
      <trkpt lat="58.990036745942" lon="15.166654603614">
        <ele>183.4</ele>
        <time>2018-08-05T17:39:39Z</time>
      </trkpt>
      <trkpt lat="58.990090893016" lon="15.16705056457">
        <ele>182</ele>
        <time>2018-08-05T17:39:43Z</time>
      </trkpt>
      <trkpt lat="58.990072369017" lon="15.167335968265">
        <ele>181.4</ele>
        <time>2018-08-05T17:39:46Z</time>
      </trkpt>
      <trkpt lat="58.99006205928" lon="15.167418027066">
        <ele>181.4</ele>
        <time>2018-08-05T17:39:47Z</time>
      </trkpt>
      <trkpt lat="58.99001679702" lon="15.167687840427">
        <ele>181</ele>
        <time>2018-08-05T17:39:51Z</time>
      </trkpt>
      <trkpt lat="58.989963069041" lon="15.168039125856">
        <ele>182.6</ele>
        <time>2018-08-05T17:39:58Z</time>
      </trkpt>
      <trkpt lat="58.989911436537" lon="15.168411868949">
        <ele>184</ele>
        <time>2018-08-05T17:40:05Z</time>
      </trkpt>
      <trkpt lat="58.989883105715" lon="15.168801292023">
        <ele>185.8</ele>
        <time>2018-08-05T17:40:11Z</time>
      </trkpt>
      <trkpt lat="58.989848823744" lon="15.169219045919">
        <ele>188</ele>
        <time>2018-08-05T17:40:17Z</time>
      </trkpt>
      <trkpt lat="58.989821331112" lon="15.169586592234">
        <ele>190.2</ele>
        <time>2018-08-05T17:40:22Z</time>
      </trkpt>
      <trkpt lat="58.989769447151" lon="15.169948941771">
        <ele>192</ele>
        <time>2018-08-05T17:40:27Z</time>
      </trkpt>
      <trkpt lat="58.989739439949" lon="15.170260329356">
        <ele>193.2</ele>
        <time>2018-08-05T17:40:31Z</time>
      </trkpt>
      <trkpt lat="58.989701386123" lon="15.170659894529">
        <ele>194.4</ele>
        <time>2018-08-05T17:40:35Z</time>
      </trkpt>
      <trkpt lat="58.989665008677" lon="15.171081001185">
        <ele>195.2</ele>
        <time>2018-08-05T17:40:39Z</time>
      </trkpt>
      <trkpt lat="58.989614214363" lon="15.171497833072">
        <ele>195.6</ele>
        <time>2018-08-05T17:40:43Z</time>
      </trkpt>
      <trkpt lat="58.989553445588" lon="15.171910557828">
        <ele>195.2</ele>
        <time>2018-08-05T17:40:47Z</time>
      </trkpt>
      <trkpt lat="58.989548919362" lon="15.172014493388">
        <ele>195</ele>
        <time>2018-08-05T17:40:48Z</time>
      </trkpt>
      <trkpt lat="58.98957171813" lon="15.17243006799">
        <ele>193.2</ele>
        <time>2018-08-05T17:40:52Z</time>
      </trkpt>
      <trkpt lat="58.989619411141" lon="15.17284329566">
        <ele>190.6</ele>
        <time>2018-08-05T17:40:56Z</time>
      </trkpt>
      <trkpt lat="58.989659811899" lon="15.173199442591">
        <ele>189</ele>
        <time>2018-08-05T17:40:59Z</time>
      </trkpt>
      <trkpt lat="58.989659057528" lon="15.173588027475">
        <ele>187.8</ele>
        <time>2018-08-05T17:41:02Z</time>
      </trkpt>
      <trkpt lat="58.989595271269" lon="15.174021036429">
        <ele>186.8</ele>
        <time>2018-08-05T17:41:06Z</time>
      </trkpt>
      <trkpt lat="58.989527377879" lon="15.174439712334">
        <ele>187.4</ele>
        <time>2018-08-05T17:41:10Z</time>
      </trkpt>
      <trkpt lat="58.989470716235" lon="15.174774736877">
        <ele>186.6</ele>
        <time>2018-08-05T17:41:13Z</time>
      </trkpt>
      <trkpt lat="58.989426459803" lon="15.175016135597">
        <ele>186.4</ele>
        <time>2018-08-05T17:41:15Z</time>
      </trkpt>
      <trkpt lat="58.989338533672" lon="15.175349064665">
        <ele>186.2</ele>
        <time>2018-08-05T17:41:18Z</time>
      </trkpt>
      <trkpt lat="58.989245159306" lon="15.175653076178">
        <ele>185.6</ele>
        <time>2018-08-05T17:41:21Z</time>
      </trkpt>
      <trkpt lat="58.989153377501" lon="15.175959937537">
        <ele>185.2</ele>
        <time>2018-08-05T17:41:24Z</time>
      </trkpt>
      <trkpt lat="58.989063188257" lon="15.176266128344">
        <ele>184.6</ele>
        <time>2018-08-05T17:41:27Z</time>
      </trkpt>
      <trkpt lat="58.989039802756" lon="15.176364783307">
        <ele>184.4</ele>
        <time>2018-08-05T17:41:28Z</time>
      </trkpt>
      <trkpt lat="58.988965371484" lon="15.176785387049">
        <ele>183.8</ele>
        <time>2018-08-05T17:41:32Z</time>
      </trkpt>
      <trkpt lat="58.988910972953" lon="15.177220826754">
        <ele>184</ele>
        <time>2018-08-05T17:41:36Z</time>
      </trkpt>
      <trkpt lat="58.988906614365" lon="15.177326690151">
        <ele>183.8</ele>
        <time>2018-08-05T17:41:37Z</time>
      </trkpt>
      <trkpt lat="58.988916588826" lon="15.177755172879">
        <ele>183.4</ele>
        <time>2018-08-05T17:41:41Z</time>
      </trkpt>
      <trkpt lat="58.988954475014" lon="15.17818005139">
        <ele>183.8</ele>
        <time>2018-08-05T17:41:45Z</time>
      </trkpt>
      <trkpt lat="58.988996803609" lon="15.178610797231">
        <ele>182.6</ele>
        <time>2018-08-05T17:41:49Z</time>
      </trkpt>
      <trkpt lat="58.989028822467" lon="15.178959232814">
        <ele>181.6</ele>
        <time>2018-08-05T17:41:52Z</time>
      </trkpt>
      <trkpt lat="58.989049106665" lon="15.179315631202">
        <ele>183.2</ele>
        <time>2018-08-05T17:41:55Z</time>
      </trkpt>
      <trkpt lat="58.989028738648" lon="15.179768924354">
        <ele>185</ele>
        <time>2018-08-05T17:41:59Z</time>
      </trkpt>
      <trkpt lat="58.988986829148" lon="15.180219032384">
        <ele>186.4</ele>
        <time>2018-08-05T17:42:03Z</time>
      </trkpt>
      <trkpt lat="58.988953050091" lon="15.180673750459">
        <ele>186.8</ele>
        <time>2018-08-05T17:42:07Z</time>
      </trkpt>
      <trkpt lat="58.988930083685" lon="15.181019587653">
        <ele>187.2</ele>
        <time>2018-08-05T17:42:10Z</time>
      </trkpt>
      <trkpt lat="58.988912565514" lon="15.181467097294">
        <ele>187.6</ele>
        <time>2018-08-05T17:42:14Z</time>
      </trkpt>
      <trkpt lat="58.988902926329" lon="15.181571200492">
        <ele>187.6</ele>
        <time>2018-08-05T17:42:15Z</time>
      </trkpt>
      <trkpt lat="58.988767223368" lon="15.181924916672">
        <ele>186.6</ele>
        <time>2018-08-05T17:42:19Z</time>
      </trkpt>
      <trkpt lat="58.988587263975" lon="15.181995659908">
        <ele>186.6</ele>
        <time>2018-08-05T17:42:22Z</time>
      </trkpt>
      <trkpt lat="58.988425158029" lon="15.181949056544">
        <ele>187.2</ele>
        <time>2018-08-05T17:42:25Z</time>
      </trkpt>
      <trkpt lat="58.988318288804" lon="15.181925671043">
        <ele>187.2</ele>
        <time>2018-08-05T17:42:27Z</time>
      </trkpt>
      <trkpt lat="58.988115530643" lon="15.182063720936">
        <ele>187</ele>
        <time>2018-08-05T17:42:31Z</time>
      </trkpt>
      <trkpt lat="58.987992987265" lon="15.182301850715">
        <ele>186.8</ele>
        <time>2018-08-05T17:42:34Z</time>
      </trkpt>
      <trkpt lat="58.98787773614" lon="15.182589098428">
        <ele>186.6</ele>
        <time>2018-08-05T17:42:37Z</time>
      </trkpt>
      <trkpt lat="58.987764496671" lon="15.182883051661">
        <ele>186.4</ele>
        <time>2018-08-05T17:42:40Z</time>
      </trkpt>
      <trkpt lat="58.987651760116" lon="15.183185805889">
        <ele>186.4</ele>
        <time>2018-08-05T17:42:43Z</time>
      </trkpt>
      <trkpt lat="58.98755754756" lon="15.183366519653">
        <ele>186.4</ele>
        <time>2018-08-05T17:42:45Z</time>
      </trkpt>
      <trkpt lat="58.987405080799" lon="15.183566344149">
        <ele>186.8</ele>
        <time>2018-08-05T17:42:48Z</time>
      </trkpt>
      <trkpt lat="58.987276083358" lon="15.183745213895">
        <ele>187.4</ele>
        <time>2018-08-05T17:42:51Z</time>
      </trkpt>
      <trkpt lat="58.987209195796" lon="15.184117202617">
        <ele>187.4</ele>
        <time>2018-08-05T17:42:55Z</time>
      </trkpt>
      <trkpt lat="58.987226630148" lon="15.18435583531">
        <ele>186.8</ele>
        <time>2018-08-05T17:42:57Z</time>
      </trkpt>
      <trkpt lat="58.987260493024" lon="15.18473721176">
        <ele>185.6</ele>
        <time>2018-08-05T17:43:00Z</time>
      </trkpt>
      <trkpt lat="58.987302486343" lon="15.185130658146">
        <ele>184</ele>
        <time>2018-08-05T17:43:03Z</time>
      </trkpt>
      <trkpt lat="58.98733207445" lon="15.185528966034">
        <ele>182.4</ele>
        <time>2018-08-05T17:43:06Z</time>
      </trkpt>
      <trkpt lat="58.987355040856" lon="15.185931883967">
        <ele>182.6</ele>
        <time>2018-08-05T17:43:09Z</time>
      </trkpt>
      <trkpt lat="58.987379348366" lon="15.186333293158">
        <ele>182.2</ele>
        <time>2018-08-05T17:43:12Z</time>
      </trkpt>
      <trkpt lat="58.987412373052" lon="15.186748113389">
        <ele>181.2</ele>
        <time>2018-08-05T17:43:15Z</time>
      </trkpt>
      <trkpt lat="58.987449253412" lon="15.187149354942">
        <ele>180.2</ele>
        <time>2018-08-05T17:43:18Z</time>
      </trkpt>
      <trkpt lat="58.987478003329" lon="15.187536933998">
        <ele>178.8</ele>
        <time>2018-08-05T17:43:21Z</time>
      </trkpt>
      <trkpt lat="58.98751899082" lon="15.187901881924">
        <ele>177.6</ele>
        <time>2018-08-05T17:43:24Z</time>
      </trkpt>
      <trkpt lat="58.987567522021" lon="15.188268841506">
        <ele>176.4</ele>
        <time>2018-08-05T17:43:27Z</time>
      </trkpt>
      <trkpt lat="58.987602390725" lon="15.188519292678">
        <ele>175.2</ele>
        <time>2018-08-05T17:43:29Z</time>
      </trkpt>
      <trkpt lat="58.987665003518" lon="15.188915253634">
        <ele>171.6</ele>
        <time>2018-08-05T17:43:32Z</time>
      </trkpt>
      <trkpt lat="58.987740021523" lon="15.189325882915">
        <ele>169.6</ele>
        <time>2018-08-05T17:43:35Z</time>
      </trkpt>
      <trkpt lat="58.987838592667" lon="15.189686388434">
        <ele>172.2</ele>
        <time>2018-08-05T17:43:38Z</time>
      </trkpt>
      <trkpt lat="58.987951580679" lon="15.190063490115">
        <ele>174</ele>
        <time>2018-08-05T17:43:42Z</time>
      </trkpt>
      <trkpt lat="58.988108406028" lon="15.190356688977">
        <ele>174.8</ele>
        <time>2018-08-05T17:43:46Z</time>
      </trkpt>
      <trkpt lat="58.988278307141" lon="15.190500773838">
        <ele>174.4</ele>
        <time>2018-08-05T17:43:49Z</time>
      </trkpt>
      <trkpt lat="58.988343015409" lon="15.190532038325">
        <ele>174.4</ele>
        <time>2018-08-05T17:43:50Z</time>
      </trkpt>
      <trkpt lat="58.988555915669" lon="15.190604038846">
        <ele>174.2</ele>
        <time>2018-08-05T17:43:53Z</time>
      </trkpt>
      <trkpt lat="58.988631771864" lon="15.190631028564">
        <ele>174.6</ele>
        <time>2018-08-05T17:43:54Z</time>
      </trkpt>
      <trkpt lat="58.98884836016" lon="15.19076547424">
        <ele>174.6</ele>
        <time>2018-08-05T17:43:57Z</time>
      </trkpt>
      <trkpt lat="58.989043826068" lon="15.190987678409">
        <ele>174.4</ele>
        <time>2018-08-05T17:44:00Z</time>
      </trkpt>
      <trkpt lat="58.989176427726" lon="15.191193118778">
        <ele>173.8</ele>
        <time>2018-08-05T17:44:02Z</time>
      </trkpt>
      <trkpt lat="58.989354291644" lon="15.191508445856">
        <ele>173</ele>
        <time>2018-08-05T17:44:05Z</time>
      </trkpt>
      <trkpt lat="58.989508602423" lon="15.191836848698">
        <ele>171.6</ele>
        <time>2018-08-05T17:44:08Z</time>
      </trkpt>
      <trkpt lat="58.989640784986" lon="15.192125605153">
        <ele>172.2</ele>
        <time>2018-08-05T17:44:11Z</time>
      </trkpt>
      <trkpt lat="58.989760059423" lon="15.192396256704">
        <ele>173.6</ele>
        <time>2018-08-05T17:44:15Z</time>
      </trkpt>
      <trkpt lat="58.98987765748" lon="15.192680235476">
        <ele>176.2</ele>
        <time>2018-08-05T17:44:21Z</time>
      </trkpt>
      <trkpt lat="58.990016629382" lon="15.192937475987">
        <ele>177.8</ele>
        <time>2018-08-05T17:44:27Z</time>
      </trkpt>
      <trkpt lat="58.990185943762" lon="15.193165044572">
        <ele>179.2</ele>
        <time>2018-08-05T17:44:33Z</time>
      </trkpt>
      <trkpt lat="58.990352156839" lon="15.1933504522">
        <ele>181</ele>
        <time>2018-08-05T17:44:38Z</time>
      </trkpt>
      <trkpt lat="58.990526248902" lon="15.19356251427">
        <ele>180.6</ele>
        <time>2018-08-05T17:44:43Z</time>
      </trkpt>
      <trkpt lat="58.990687432839" lon="15.193762674042">
        <ele>180.6</ele>
        <time>2018-08-05T17:44:48Z</time>
      </trkpt>
      <trkpt lat="58.990850293156" lon="15.194002480201">
        <ele>179.8</ele>
        <time>2018-08-05T17:44:54Z</time>
      </trkpt>
      <trkpt lat="58.990941739685" lon="15.194312861958">
        <ele>179.4</ele>
        <time>2018-08-05T17:45:02Z</time>
      </trkpt>
      <trkpt lat="58.990956072734" lon="15.194687449069">
        <ele>179.4</ele>
        <time>2018-08-05T17:45:11Z</time>
      </trkpt>
      <trkpt lat="58.990952468517" lon="15.195091540468">
        <ele>180.2</ele>
        <time>2018-08-05T17:45:18Z</time>
      </trkpt>
      <trkpt lat="58.99095556982" lon="15.19548616032">
        <ele>180.6</ele>
        <time>2018-08-05T17:45:23Z</time>
      </trkpt>
      <trkpt lat="58.990950875956" lon="15.195873068824">
        <ele>181.2</ele>
        <time>2018-08-05T17:45:29Z</time>
      </trkpt>
      <trkpt lat="58.990955905096" lon="15.196224270434">
        <ele>183</ele>
        <time>2018-08-05T17:45:35Z</time>
      </trkpt>
      <trkpt lat="58.991008040514" lon="15.196617381544">
        <ele>183.8</ele>
        <time>2018-08-05T17:45:41Z</time>
      </trkpt>
      <trkpt lat="58.99111398773" lon="15.196971684457">
        <ele>185.2</ele>
        <time>2018-08-05T17:45:47Z</time>
      </trkpt>
      <trkpt lat="58.991242063162" lon="15.197257926342">
        <ele>187.2</ele>
        <time>2018-08-05T17:45:53Z</time>
      </trkpt>
      <trkpt lat="58.991376844114" lon="15.197581802958">
        <ele>187.6</ele>
        <time>2018-08-05T17:45:58Z</time>
      </trkpt>
      <trkpt lat="58.991402744185" lon="15.197661933922">
        <ele>187.8</ele>
        <time>2018-08-05T17:45:59Z</time>
      </trkpt>
      <trkpt lat="58.991541716087" lon="15.19799737756">
        <ele>189</ele>
        <time>2018-08-05T17:46:04Z</time>
      </trkpt>
      <trkpt lat="58.991574489316" lon="15.198053452471">
        <ele>189.2</ele>
        <time>2018-08-05T17:46:05Z</time>
      </trkpt>
      <trkpt lat="58.99171580815" lon="15.198262748514">
        <ele>190</ele>
        <time>2018-08-05T17:46:09Z</time>
      </trkpt>
      <trkpt lat="58.991819659891" lon="15.198574387556">
        <ele>190.8</ele>
        <time>2018-08-05T17:46:14Z</time>
      </trkpt>
      <trkpt lat="58.991832819474" lon="15.198655105253">
        <ele>190.8</ele>
        <time>2018-08-05T17:46:15Z</time>
      </trkpt>
      <trkpt lat="58.991841117555" lon="15.199036565522">
        <ele>189.8</ele>
        <time>2018-08-05T17:46:19Z</time>
      </trkpt>
      <trkpt lat="58.991823515565" lon="15.199150391724">
        <ele>189</ele>
        <time>2018-08-05T17:46:20Z</time>
      </trkpt>
      <trkpt lat="58.99174179204" lon="15.199539144246">
        <ele>187.6</ele>
        <time>2018-08-05T17:46:23Z</time>
      </trkpt>
      <trkpt lat="58.991659314144" lon="15.199954718848">
        <ele>184.6</ele>
        <time>2018-08-05T17:46:26Z</time>
      </trkpt>
      <trkpt lat="58.99158672689" lon="15.200338609868">
        <ele>183.4</ele>
        <time>2018-08-05T17:46:29Z</time>
      </trkpt>
      <trkpt lat="58.991511876523" lon="15.200701210862">
        <ele>182.2</ele>
        <time>2018-08-05T17:46:32Z</time>
      </trkpt>
      <trkpt lat="58.991487401375" lon="15.20082291605">
        <ele>182.2</ele>
        <time>2018-08-05T17:46:33Z</time>
      </trkpt>
      <trkpt lat="58.991407940963" lon="15.201210662744">
        <ele>181.8</ele>
        <time>2018-08-05T17:46:36Z</time>
      </trkpt>
      <trkpt lat="58.991330576026" lon="15.201614418867">
        <ele>181.4</ele>
        <time>2018-08-05T17:46:39Z</time>
      </trkpt>
      <trkpt lat="58.991271315993" lon="15.202007446158">
        <ele>180.8</ele>
        <time>2018-08-05T17:46:42Z</time>
      </trkpt>
      <trkpt lat="58.991252540537" lon="15.202382871459">
        <ele>179.4</ele>
        <time>2018-08-05T17:46:45Z</time>
      </trkpt>
      <trkpt lat="58.991243152809" lon="15.202759637864">
        <ele>178</ele>
        <time>2018-08-05T17:46:48Z</time>
      </trkpt>
      <trkpt lat="58.991236195832" lon="15.203142774513">
        <ele>176.8</ele>
        <time>2018-08-05T17:46:51Z</time>
      </trkpt>
      <trkpt lat="58.991230077045" lon="15.203525827343">
        <ele>175.6</ele>
        <time>2018-08-05T17:46:54Z</time>
      </trkpt>
      <trkpt lat="58.991223287706" lon="15.203921033928">
        <ele>175.2</ele>
        <time>2018-08-05T17:46:57Z</time>
      </trkpt>
      <trkpt lat="58.991200069843" lon="15.204329400096">
        <ele>174</ele>
        <time>2018-08-05T17:47:00Z</time>
      </trkpt>
      <trkpt lat="58.991157657429" lon="15.204764169249">
        <ele>172.6</ele>
        <time>2018-08-05T17:47:03Z</time>
      </trkpt>
      <trkpt lat="58.991107533667" lon="15.205172200141">
        <ele>171.6</ele>
        <time>2018-08-05T17:47:06Z</time>
      </trkpt>
      <trkpt lat="58.991041316657" lon="15.205524239941">
        <ele>171</ele>
        <time>2018-08-05T17:47:09Z</time>
      </trkpt>
      <trkpt lat="58.99096814267" lon="15.205845518168">
        <ele>170.8</ele>
        <time>2018-08-05T17:47:12Z</time>
      </trkpt>
      <trkpt lat="58.990916342528" lon="15.206154307364">
        <ele>170</ele>
        <time>2018-08-05T17:47:15Z</time>
      </trkpt>
      <trkpt lat="58.9908985729" lon="15.206476842876">
        <ele>168.6</ele>
        <time>2018-08-05T17:47:18Z</time>
      </trkpt>
      <trkpt lat="58.990926903722" lon="15.206885041406">
        <ele>166.8</ele>
        <time>2018-08-05T17:47:22Z</time>
      </trkpt>
      <trkpt lat="58.990977698036" lon="15.207285780045">
        <ele>165.4</ele>
        <time>2018-08-05T17:47:26Z</time>
      </trkpt>
      <trkpt lat="58.991025726323" lon="15.207634467085">
        <ele>163.8</ele>
        <time>2018-08-05T17:47:29Z</time>
      </trkpt>
      <trkpt lat="58.991070904764" lon="15.207838733988">
        <ele>162.4</ele>
        <time>2018-08-05T17:47:31Z</time>
      </trkpt>
      <trkpt lat="58.991246757026" lon="15.208138386913">
        <ele>158.8</ele>
        <time>2018-08-05T17:47:35Z</time>
      </trkpt>
      <trkpt lat="58.991385896566" lon="15.208233186202">
        <ele>157</ele>
        <time>2018-08-05T17:47:37Z</time>
      </trkpt>
      <trkpt lat="58.991629893675" lon="15.20836159691">
        <ele>155</ele>
        <time>2018-08-05T17:47:40Z</time>
      </trkpt>
      <trkpt lat="58.991843632125" lon="15.2084965455">
        <ele>153</ele>
        <time>2018-08-05T17:47:43Z</time>
      </trkpt>
      <trkpt lat="58.991960727268" lon="15.208620513801">
        <ele>151.4</ele>
        <time>2018-08-05T17:47:45Z</time>
      </trkpt>
      <trkpt lat="58.992097687514" lon="15.208962746778">
        <ele>148.4</ele>
        <time>2018-08-05T17:47:49Z</time>
      </trkpt>
      <trkpt lat="58.992130544562" lon="15.209342195391">
        <ele>145.6</ele>
        <time>2018-08-05T17:47:52Z</time>
      </trkpt>
      <trkpt lat="58.992154768253" lon="15.209776210173">
        <ele>142.6</ele>
        <time>2018-08-05T17:47:55Z</time>
      </trkpt>
      <trkpt lat="58.992196426296" lon="15.210250793351">
        <ele>139</ele>
        <time>2018-08-05T17:47:58Z</time>
      </trkpt>
      <trkpt lat="58.992252417388" lon="15.210742307967">
        <ele>135.6</ele>
        <time>2018-08-05T17:48:01Z</time>
      </trkpt>
      <trkpt lat="58.992321987158" lon="15.211239773732">
        <ele>132.4</ele>
        <time>2018-08-05T17:48:04Z</time>
      </trkpt>
      <trkpt lat="58.992369931626" lon="15.211612768282">
        <ele>130.4</ele>
        <time>2018-08-05T17:48:06Z</time>
      </trkpt>
      <trkpt lat="58.992410583841" lon="15.211998168044">
        <ele>128.4</ele>
        <time>2018-08-05T17:48:08Z</time>
      </trkpt>
      <trkpt lat="58.992445368726" lon="15.212376610829">
        <ele>126</ele>
        <time>2018-08-05T17:48:10Z</time>
      </trkpt>
      <trkpt lat="58.992469508598" lon="15.212733009217">
        <ele>123.8</ele>
        <time>2018-08-05T17:48:12Z</time>
      </trkpt>
      <trkpt lat="58.992478477231" lon="15.213062920801">
        <ele>121.4</ele>
        <time>2018-08-05T17:48:14Z</time>
      </trkpt>
      <trkpt lat="58.992441429233" lon="15.213493163728">
        <ele>118.2</ele>
        <time>2018-08-05T17:48:17Z</time>
      </trkpt>
      <trkpt lat="58.9923654054" lon="15.213910247072">
        <ele>115.2</ele>
        <time>2018-08-05T17:48:21Z</time>
      </trkpt>
      <trkpt lat="58.992307821747" lon="15.214300089241">
        <ele>113</ele>
        <time>2018-08-05T17:48:25Z</time>
      </trkpt>
      <trkpt lat="58.992245041316" lon="15.214704432097">
        <ele>110.4</ele>
        <time>2018-08-05T17:48:29Z</time>
      </trkpt>
      <trkpt lat="58.992189134043" lon="15.215095866827">
        <ele>108.6</ele>
        <time>2018-08-05T17:48:34Z</time>
      </trkpt>
      <trkpt lat="58.992243700212" lon="15.21539317282">
        <ele>116.4</ele>
        <time>2018-08-05T17:48:46Z</time>
      </trkpt>
      <trkpt lat="58.992420139207" lon="15.215268617786">
        <ele>119.6</ele>
        <time>2018-08-05T17:48:53Z</time>
      </trkpt>
      <trkpt lat="58.992523404215" lon="15.21508807166">
        <ele>119.8</ele>
        <time>2018-08-05T17:48:56Z</time>
      </trkpt>
      <trkpt lat="58.992662879031" lon="15.214771068202">
        <ele>121</ele>
        <time>2018-08-05T17:49:00Z</time>
      </trkpt>
      <trkpt lat="58.992736136837" lon="15.214584487108">
        <ele>122.2</ele>
        <time>2018-08-05T17:49:02Z</time>
      </trkpt>
      <trkpt lat="58.992863625536" lon="15.214218198078">
        <ele>124.8</ele>
        <time>2018-08-05T17:49:06Z</time>
      </trkpt>
      <trkpt lat="58.992972422598" lon="15.213902871">
        <ele>125.4</ele>
        <time>2018-08-05T17:49:09Z</time>
      </trkpt>
      <trkpt lat="58.993085326791" lon="15.213555105969">
        <ele>127.8</ele>
        <time>2018-08-05T17:49:12Z</time>
      </trkpt>
      <trkpt lat="58.993210720015" lon="15.213176579365">
        <ele>129</ele>
        <time>2018-08-05T17:49:15Z</time>
      </trkpt>
      <trkpt lat="58.993377519825" lon="15.212755221252">
        <ele>127.8</ele>
        <time>2018-08-05T17:49:18Z</time>
      </trkpt>
      <trkpt lat="58.99349025638" lon="15.212526395382">
        <ele>127.4</ele>
        <time>2018-08-05T17:49:20Z</time>
      </trkpt>
      <trkpt lat="58.993684884098" lon="15.212247194293">
        <ele>127.8</ele>
        <time>2018-08-05T17:49:23Z</time>
      </trkpt>
      <trkpt lat="58.993905411887" lon="15.212012920188">
        <ele>126.6</ele>
        <time>2018-08-05T17:49:26Z</time>
      </trkpt>
      <trkpt lat="58.994133315748" lon="15.211792560037">
        <ele>125.8</ele>
        <time>2018-08-05T17:49:29Z</time>
      </trkpt>
      <trkpt lat="58.994308246001" lon="15.211631711376">
        <ele>124.8</ele>
        <time>2018-08-05T17:49:31Z</time>
      </trkpt>
      <trkpt lat="58.99448686429" lon="15.211463654281">
        <ele>123.8</ele>
        <time>2018-08-05T17:49:33Z</time>
      </trkpt>
      <trkpt lat="58.994657603593" lon="15.211303308534">
        <ele>123</ele>
        <time>2018-08-05T17:49:35Z</time>
      </trkpt>
      <trkpt lat="58.994828929629" lon="15.211128210643">
        <ele>121.6</ele>
        <time>2018-08-05T17:49:37Z</time>
      </trkpt>
      <trkpt lat="58.995018695845" lon="15.210935762219">
        <ele>120</ele>
        <time>2018-08-05T17:49:39Z</time>
      </trkpt>
      <trkpt lat="58.995205863672" lon="15.210760748147">
        <ele>118.6</ele>
        <time>2018-08-05T17:49:41Z</time>
      </trkpt>
      <trkpt lat="58.995387583264" lon="15.210577938908">
        <ele>116.6</ele>
        <time>2018-08-05T17:49:43Z</time>
      </trkpt>
      <trkpt lat="58.995562932612" lon="15.210405020311">
        <ele>115.6</ele>
        <time>2018-08-05T17:49:45Z</time>
      </trkpt>
      <trkpt lat="58.995727804585" lon="15.210240902709">
        <ele>114.6</ele>
        <time>2018-08-05T17:49:47Z</time>
      </trkpt>
      <trkpt lat="58.995950511668" lon="15.210031690485">
        <ele>113.2</ele>
        <time>2018-08-05T17:49:50Z</time>
      </trkpt>
      <trkpt lat="58.996094596529" lon="15.209944518725">
        <ele>112.6</ele>
        <time>2018-08-05T17:49:52Z</time>
      </trkpt>
      <trkpt lat="58.99631663306" lon="15.209935047178">
        <ele>111.8</ele>
        <time>2018-08-05T17:49:55Z</time>
      </trkpt>
      <trkpt lat="58.996522408705" lon="15.210052645235">
        <ele>111.2</ele>
        <time>2018-08-05T17:49:58Z</time>
      </trkpt>
      <trkpt lat="58.996641096409" lon="15.210157167528">
        <ele>110.6</ele>
        <time>2018-08-05T17:50:00Z</time>
      </trkpt>
      <trkpt lat="58.996747881815" lon="15.210260348717">
        <ele>110</ele>
        <time>2018-08-05T17:50:02Z</time>
      </trkpt>
      <trkpt lat="58.9969335409" lon="15.210484145447">
        <ele>111</ele>
        <time>2018-08-05T17:50:06Z</time>
      </trkpt>
      <trkpt lat="58.997113584112" lon="15.210715821163">
        <ele>111.8</ele>
        <time>2018-08-05T17:50:11Z</time>
      </trkpt>
      <trkpt lat="58.997264206855" lon="15.210915478021">
        <ele>112.6</ele>
        <time>2018-08-05T17:50:16Z</time>
      </trkpt>
      <trkpt lat="58.997423127679" lon="15.211126618082">
        <ele>113.8</ele>
        <time>2018-08-05T17:50:22Z</time>
      </trkpt>
      <trkpt lat="58.997587161462" lon="15.21135225883">
        <ele>114.4</ele>
        <time>2018-08-05T17:50:28Z</time>
      </trkpt>
      <trkpt lat="58.997762426991" lon="15.211572786619">
        <ele>115</ele>
        <time>2018-08-05T17:50:34Z</time>
      </trkpt>
      <trkpt lat="58.997924197661" lon="15.211768084889">
        <ele>115.6</ele>
        <time>2018-08-05T17:50:40Z</time>
      </trkpt>
      <trkpt lat="58.998115053524" lon="15.211896160321">
        <ele>116.4</ele>
        <time>2018-08-05T17:50:46Z</time>
      </trkpt>
      <trkpt lat="58.998316302943" lon="15.211883503652">
        <ele>117.2</ele>
        <time>2018-08-05T17:50:52Z</time>
      </trkpt>
      <trkpt lat="58.998499950372" lon="15.211836984107">
        <ele>119.8</ele>
        <time>2018-08-05T17:50:57Z</time>
      </trkpt>
      <trkpt lat="58.998545883184" lon="15.211835223908">
        <ele>120.2</ele>
        <time>2018-08-05T17:50:58Z</time>
      </trkpt>
      <trkpt lat="58.998731374631" lon="15.21183086532">
        <ele>121.8</ele>
        <time>2018-08-05T17:51:02Z</time>
      </trkpt>
      <trkpt lat="58.998922649589" lon="15.211856430115">
        <ele>124</ele>
        <time>2018-08-05T17:51:06Z</time>
      </trkpt>
      <trkpt lat="58.999130772166" lon="15.21193060993">
        <ele>125.2</ele>
        <time>2018-08-05T17:51:11Z</time>
      </trkpt>
      <trkpt lat="58.999317939993" lon="15.211997329854">
        <ele>127.4</ele>
        <time>2018-08-05T17:51:17Z</time>
      </trkpt>
      <trkpt lat="58.999500581594" lon="15.212059942647">
        <ele>127.8</ele>
        <time>2018-08-05T17:51:23Z</time>
      </trkpt>
      <trkpt lat="58.999712056931" lon="15.212044687589">
        <ele>128</ele>
        <time>2018-08-05T17:51:29Z</time>
      </trkpt>
      <trkpt lat="58.999804760745" lon="15.212037479155">
        <ele>128</ele>
        <time>2018-08-05T17:51:31Z</time>
      </trkpt>
      <trkpt lat="59.000009195286" lon="15.212005795573">
        <ele>128.6</ele>
        <time>2018-08-05T17:51:35Z</time>
      </trkpt>
      <trkpt lat="59.000210528524" lon="15.212014764206">
        <ele>126.8</ele>
        <time>2018-08-05T17:51:39Z</time>
      </trkpt>
      <trkpt lat="59.000405491518" lon="15.21204628015">
        <ele>123.2</ele>
        <time>2018-08-05T17:51:43Z</time>
      </trkpt>
      <trkpt lat="59.000507750698" lon="15.21205633843">
        <ele>123.2</ele>
        <time>2018-08-05T17:51:45Z</time>
      </trkpt>
      <trkpt lat="59.000738336767" lon="15.212080981216">
        <ele>123.2</ele>
        <time>2018-08-05T17:51:49Z</time>
      </trkpt>
      <trkpt lat="59.000930617553" lon="15.212121298155">
        <ele>123.2</ele>
        <time>2018-08-05T17:51:52Z</time>
      </trkpt>
      <trkpt lat="59.001149385143" lon="15.212165722225">
        <ele>121.8</ele>
        <time>2018-08-05T17:51:55Z</time>
      </trkpt>
      <trkpt lat="59.001357423901" lon="15.212204111327">
        <ele>120</ele>
        <time>2018-08-05T17:51:58Z</time>
      </trkpt>
      <trkpt lat="59.001574431292" lon="15.21220302168">
        <ele>117.6</ele>
        <time>2018-08-05T17:52:01Z</time>
      </trkpt>
      <trkpt lat="59.001794791443" lon="15.212172427745">
        <ele>116.2</ele>
        <time>2018-08-05T17:52:04Z</time>
      </trkpt>
      <trkpt lat="59.002019342544" lon="15.212159184343">
        <ele>114.8</ele>
        <time>2018-08-05T17:52:07Z</time>
      </trkpt>
      <trkpt lat="59.00225353283" lon="15.212202602585">
        <ele>112.8</ele>
        <time>2018-08-05T17:52:10Z</time>
      </trkpt>
      <trkpt lat="59.002489231858" lon="15.212251469062">
        <ele>110.4</ele>
        <time>2018-08-05T17:52:13Z</time>
      </trkpt>
      <trkpt lat="59.002739263935" lon="15.2123019281">
        <ele>109.6</ele>
        <time>2018-08-05T17:52:16Z</time>
      </trkpt>
      <trkpt lat="59.002977477533" lon="15.212393542267">
        <ele>107.6</ele>
        <time>2018-08-05T17:52:19Z</time>
      </trkpt>
      <trkpt lat="59.003204459385" lon="15.212514576903">
        <ele>105.6</ele>
        <time>2018-08-05T17:52:22Z</time>
      </trkpt>
      <trkpt lat="59.003423310794" lon="15.212690596803">
        <ele>102.8</ele>
        <time>2018-08-05T17:52:25Z</time>
      </trkpt>
      <trkpt lat="59.003639563814" lon="15.21291464499">
        <ele>100</ele>
        <time>2018-08-05T17:52:28Z</time>
      </trkpt>
      <trkpt lat="59.003857325576" lon="15.213160318479">
        <ele>97</ele>
        <time>2018-08-05T17:52:31Z</time>
      </trkpt>
      <trkpt lat="59.004058826452" lon="15.213421833759">
        <ele>94.2</ele>
        <time>2018-08-05T17:52:34Z</time>
      </trkpt>
      <trkpt lat="59.00422663209" lon="15.213693239681">
        <ele>90.8</ele>
        <time>2018-08-05T17:52:37Z</time>
      </trkpt>
      <trkpt lat="59.004272229626" lon="15.21378300983">
        <ele>89.6</ele>
        <time>2018-08-05T17:52:38Z</time>
      </trkpt>
      <trkpt lat="59.004420673075" lon="15.214053661381">
        <ele>86.4</ele>
        <time>2018-08-05T17:52:41Z</time>
      </trkpt>
      <trkpt lat="59.004464258955" lon="15.214156172018">
        <ele>85.4</ele>
        <time>2018-08-05T17:52:42Z</time>
      </trkpt>
      <trkpt lat="59.004601638296" lon="15.214513660053">
        <ele>83.2</ele>
        <time>2018-08-05T17:52:45Z</time>
      </trkpt>
      <trkpt lat="59.004751422849" lon="15.214876931599">
        <ele>81</ele>
        <time>2018-08-05T17:52:48Z</time>
      </trkpt>
      <trkpt lat="59.004899782479" lon="15.215252440719">
        <ele>78.8</ele>
        <time>2018-08-05T17:52:51Z</time>
      </trkpt>
      <trkpt lat="59.0050472201" lon="15.215624597079">
        <ele>78</ele>
        <time>2018-08-05T17:52:54Z</time>
      </trkpt>
      <trkpt lat="59.005190718228" lon="15.215964315486">
        <ele>77.2</ele>
        <time>2018-08-05T17:52:57Z</time>
      </trkpt>
      <trkpt lat="59.005331785605" lon="15.216295568174">
        <ele>76.2</ele>
        <time>2018-08-05T17:53:00Z</time>
      </trkpt>
      <trkpt lat="59.005468075299" lon="15.216608715958">
        <ele>75.8</ele>
        <time>2018-08-05T17:53:03Z</time>
      </trkpt>
      <trkpt lat="59.005589612849" lon="15.216919349172">
        <ele>75.6</ele>
        <time>2018-08-05T17:53:06Z</time>
      </trkpt>
      <trkpt lat="59.005679802093" lon="15.217120347134">
        <ele>76.8</ele>
        <time>2018-08-05T17:53:08Z</time>
      </trkpt>
      <trkpt lat="59.00583847146" lon="15.217428214321">
        <ele>78.8</ele>
        <time>2018-08-05T17:53:11Z</time>
      </trkpt>
      <trkpt lat="59.005997643741" lon="15.217718060423">
        <ele>80</ele>
        <time>2018-08-05T17:53:14Z</time>
      </trkpt>
      <trkpt lat="59.006147344475" lon="15.217975971486">
        <ele>81.8</ele>
        <time>2018-08-05T17:53:17Z</time>
      </trkpt>
      <trkpt lat="59.006198641703" lon="15.218048726378">
        <ele>82.6</ele>
        <time>2018-08-05T17:53:18Z</time>
      </trkpt>
      <trkpt lat="59.006344319125" lon="15.218255004937">
        <ele>84</ele>
        <time>2018-08-05T17:53:21Z</time>
      </trkpt>
      <trkpt lat="59.0064889069" lon="15.218509479421">
        <ele>85.6</ele>
        <time>2018-08-05T17:53:24Z</time>
      </trkpt>
      <trkpt lat="59.006534755893" lon="15.21860679328">
        <ele>86.2</ele>
        <time>2018-08-05T17:53:25Z</time>
      </trkpt>
      <trkpt lat="59.006655790529" lon="15.218922874729">
        <ele>88</ele>
        <time>2018-08-05T17:53:28Z</time>
      </trkpt>
      <trkpt lat="59.006766683066" lon="15.219291259234">
        <ele>89.2</ele>
        <time>2018-08-05T17:53:31Z</time>
      </trkpt>
      <trkpt lat="59.006870702445" lon="15.219677832462">
        <ele>90.2</ele>
        <time>2018-08-05T17:53:34Z</time>
      </trkpt>
      <trkpt lat="59.006984696285" lon="15.220083767879">
        <ele>92</ele>
        <time>2018-08-05T17:53:37Z</time>
      </trkpt>
      <trkpt lat="59.007098187211" lon="15.220468077994">
        <ele>93.2</ele>
        <time>2018-08-05T17:53:40Z</time>
      </trkpt>
      <trkpt lat="59.007199356744" lon="15.220830678988">
        <ele>94.6</ele>
        <time>2018-08-05T17:53:43Z</time>
      </trkpt>
      <trkpt lat="59.007305220141" lon="15.221199147312">
        <ele>96.6</ele>
        <time>2018-08-05T17:53:46Z</time>
      </trkpt>
      <trkpt lat="59.007380657241" lon="15.221433421417">
        <ele>97.8</ele>
        <time>2018-08-05T17:53:48Z</time>
      </trkpt>
      <trkpt lat="59.007466571716" lon="15.221632910637">
        <ele>99</ele>
        <time>2018-08-05T17:53:50Z</time>
      </trkpt>
      <trkpt lat="59.007649213317" lon="15.221772972186">
        <ele>100.2</ele>
        <time>2018-08-05T17:53:53Z</time>
      </trkpt>
      <trkpt lat="59.007777959301" lon="15.221801386827">
        <ele>100.6</ele>
        <time>2018-08-05T17:53:55Z</time>
      </trkpt>
      <trkpt lat="59.007985746602" lon="15.221811780383">
        <ele>100.8</ele>
        <time>2018-08-05T17:53:58Z</time>
      </trkpt>
      <trkpt lat="59.00817618337" lon="15.22178940071">
        <ele>101.2</ele>
        <time>2018-08-05T17:54:01Z</time>
      </trkpt>
      <trkpt lat="59.008366703957" lon="15.221764338829">
        <ele>102.2</ele>
        <time>2018-08-05T17:54:04Z</time>
      </trkpt>
      <trkpt lat="59.008591338877" lon="15.221690829566">
        <ele>103.2</ele>
        <time>2018-08-05T17:54:08Z</time>
      </trkpt>
      <trkpt lat="59.008771130632" lon="15.221497962047">
        <ele>103.8</ele>
        <time>2018-08-05T17:54:12Z</time>
      </trkpt>
      <trkpt lat="59.008968608196" lon="15.22126301739">
        <ele>104.6</ele>
        <time>2018-08-05T17:54:16Z</time>
      </trkpt>
      <trkpt lat="59.009127612839" lon="15.22107107188">
        <ele>104.8</ele>
        <time>2018-08-05T17:54:19Z</time>
      </trkpt>
      <trkpt lat="59.009352499216" lon="15.220940062783">
        <ele>104.6</ele>
        <time>2018-08-05T17:54:23Z</time>
      </trkpt>
      <trkpt lat="59.009535308455" lon="15.220955653117">
        <ele>104.4</ele>
        <time>2018-08-05T17:54:26Z</time>
      </trkpt>
      <trkpt lat="59.009586102769" lon="15.220973758021">
        <ele>104.4</ele>
        <time>2018-08-05T17:54:27Z</time>
      </trkpt>
      <trkpt lat="59.009635975074" lon="15.22099814935">
        <ele>104.4</ele>
        <time>2018-08-05T17:54:28Z</time>
      </trkpt>
      <trkpt lat="59.009809480404" lon="15.221121195642">
        <ele>104</ele>
        <time>2018-08-05T17:54:31Z</time>
      </trkpt>
      <trkpt lat="59.009931101773" lon="15.221194034353">
        <ele>103.8</ele>
        <time>2018-08-05T17:54:33Z</time>
      </trkpt>
      <trkpt lat="59.010122795826" lon="15.22124206264">
        <ele>103</ele>
        <time>2018-08-05T17:54:36Z</time>
      </trkpt>
      <trkpt lat="59.010308035816" lon="15.221233010188">
        <ele>102.4</ele>
        <time>2018-08-05T17:54:39Z</time>
      </trkpt>
      <trkpt lat="59.010543148111" lon="15.221207110117">
        <ele>102.4</ele>
        <time>2018-08-05T17:54:43Z</time>
      </trkpt>
      <trkpt lat="59.010784379193" lon="15.221225215021">
        <ele>102.2</ele>
        <time>2018-08-05T17:54:47Z</time>
      </trkpt>
      <trkpt lat="59.010907593123" lon="15.22127223748">
        <ele>102.6</ele>
        <time>2018-08-05T17:54:49Z</time>
      </trkpt>
      <trkpt lat="59.011074979666" lon="15.221439456385">
        <ele>103</ele>
        <time>2018-08-05T17:54:52Z</time>
      </trkpt>
      <trkpt lat="59.011170533326" lon="15.221582786875">
        <ele>102.6</ele>
        <time>2018-08-05T17:54:54Z</time>
      </trkpt>
      <trkpt lat="59.011306655382" lon="15.221838351006">
        <ele>101.8</ele>
        <time>2018-08-05T17:54:57Z</time>
      </trkpt>
      <trkpt lat="59.011434646995" lon="15.222109505471">
        <ele>100.8</ele>
        <time>2018-08-05T17:55:00Z</time>
      </trkpt>
      <trkpt lat="59.011523746592" lon="15.222263564793">
        <ele>99.8</ele>
        <time>2018-08-05T17:55:02Z</time>
      </trkpt>
      <trkpt lat="59.011678308828" lon="15.222424329635">
        <ele>98.4</ele>
        <time>2018-08-05T17:55:05Z</time>
      </trkpt>
      <trkpt lat="59.011896238228" lon="15.222532204688">
        <ele>96.2</ele>
        <time>2018-08-05T17:55:09Z</time>
      </trkpt>
      <trkpt lat="59.012120286415" lon="15.222457186683">
        <ele>95.8</ele>
        <time>2018-08-05T17:55:13Z</time>
      </trkpt>
      <trkpt lat="59.012170410177" lon="15.22241301407">
        <ele>96</ele>
        <time>2018-08-05T17:55:14Z</time>
      </trkpt>
      <trkpt lat="59.012337293806" lon="15.222287872303">
        <ele>95.6</ele>
        <time>2018-08-05T17:55:17Z</time>
      </trkpt>
      <trkpt lat="59.012523958719" lon="15.222291811796">
        <ele>94.8</ele>
        <time>2018-08-05T17:55:20Z</time>
      </trkpt>
      <trkpt lat="59.012631833772" lon="15.222369176733">
        <ele>95.4</ele>
        <time>2018-08-05T17:55:22Z</time>
      </trkpt>
      <trkpt lat="59.012681538439" lon="15.222419887228">
        <ele>95.4</ele>
        <time>2018-08-05T17:55:23Z</time>
      </trkpt>
      <trkpt lat="59.012831406811" lon="15.222619627905">
        <ele>94.2</ele>
        <time>2018-08-05T17:55:26Z</time>
      </trkpt>
      <trkpt lat="59.012920171132" lon="15.22278852319">
        <ele>93.4</ele>
        <time>2018-08-05T17:55:28Z</time>
      </trkpt>
      <trkpt lat="59.013006504702" lon="15.223119859697">
        <ele>92</ele>
        <time>2018-08-05T17:55:31Z</time>
      </trkpt>
      <trkpt lat="59.013052940428" lon="15.22348589727">
        <ele>90.6</ele>
        <time>2018-08-05T17:55:34Z</time>
      </trkpt>
      <trkpt lat="59.013094011738" lon="15.22383290793">
        <ele>89.6</ele>
        <time>2018-08-05T17:55:37Z</time>
      </trkpt>
      <trkpt lat="59.013172466322" lon="15.224260133373">
        <ele>87.8</ele>
        <time>2018-08-05T17:55:41Z</time>
      </trkpt>
      <trkpt lat="59.013251675277" lon="15.224597588667">
        <ele>86.2</ele>
        <time>2018-08-05T17:55:44Z</time>
      </trkpt>
      <trkpt lat="59.013334656087" lon="15.22492423131">
        <ele>84.4</ele>
        <time>2018-08-05T17:55:47Z</time>
      </trkpt>
      <trkpt lat="59.013421324933" lon="15.225255903093">
        <ele>83.6</ele>
        <time>2018-08-05T17:55:50Z</time>
      </trkpt>
      <trkpt lat="59.013520315172" lon="15.225573074189">
        <ele>83.2</ele>
        <time>2018-08-05T17:55:53Z</time>
      </trkpt>
      <trkpt lat="59.01359424353" lon="15.225753704134">
        <ele>83.4</ele>
        <time>2018-08-05T17:55:55Z</time>
      </trkpt>
      <trkpt lat="59.013768167955" lon="15.226028295178">
        <ele>83</ele>
        <time>2018-08-05T17:55:59Z</time>
      </trkpt>
      <trkpt lat="59.013899679966" lon="15.226208841304">
        <ele>82.8</ele>
        <time>2018-08-05T17:56:02Z</time>
      </trkpt>
      <trkpt lat="59.014086177241" lon="15.226499860872">
        <ele>81.8</ele>
        <time>2018-08-05T17:56:06Z</time>
      </trkpt>
      <trkpt lat="59.014134540804" lon="15.226567502805">
        <ele>81.8</ele>
        <time>2018-08-05T17:56:07Z</time>
      </trkpt>
      <trkpt lat="59.014286169375" lon="15.226782247083">
        <ele>82.2</ele>
        <time>2018-08-05T17:56:10Z</time>
      </trkpt>
      <trkpt lat="59.014426063286" lon="15.227032782074">
        <ele>82.4</ele>
        <time>2018-08-05T17:56:13Z</time>
      </trkpt>
      <trkpt lat="59.014515749616" lon="15.227234115312">
        <ele>82</ele>
        <time>2018-08-05T17:56:15Z</time>
      </trkpt>
      <trkpt lat="59.01463862827" lon="15.227527146536">
        <ele>81.8</ele>
        <time>2018-08-05T17:56:18Z</time>
      </trkpt>
      <trkpt lat="59.014758154164" lon="15.227850017324">
        <ele>81.6</ele>
        <time>2018-08-05T17:56:21Z</time>
      </trkpt>
      <trkpt lat="59.014888241252" lon="15.22815293919">
        <ele>81.4</ele>
        <time>2018-08-05T17:56:24Z</time>
      </trkpt>
      <trkpt lat="59.015024950041" lon="15.22839433791">
        <ele>82.4</ele>
        <time>2018-08-05T17:56:27Z</time>
      </trkpt>
      <trkpt lat="59.015079180934" lon="15.228470445562">
        <ele>83</ele>
        <time>2018-08-05T17:56:28Z</time>
      </trkpt>
      <trkpt lat="59.015246064563" lon="15.228657445751">
        <ele>84.6</ele>
        <time>2018-08-05T17:56:31Z</time>
      </trkpt>
      <trkpt lat="59.015420156626" lon="15.22885869517">
        <ele>85.4</ele>
        <time>2018-08-05T17:56:34Z</time>
      </trkpt>
      <trkpt lat="59.015525181833" lon="15.229020801116">
        <ele>86.2</ele>
        <time>2018-08-05T17:56:36Z</time>
      </trkpt>
      <trkpt lat="59.015667841771" lon="15.229305953354">
        <ele>86.8</ele>
        <time>2018-08-05T17:56:39Z</time>
      </trkpt>
      <trkpt lat="59.015804299103" lon="15.229594290714">
        <ele>87</ele>
        <time>2018-08-05T17:56:42Z</time>
      </trkpt>
      <trkpt lat="59.015955843855" lon="15.229861924781">
        <ele>87.4</ele>
        <time>2018-08-05T17:56:45Z</time>
      </trkpt>
      <trkpt lat="59.016102191829" lon="15.230097707628">
        <ele>88.2</ele>
        <time>2018-08-05T17:56:48Z</time>
      </trkpt>
      <trkpt lat="59.016257508436" lon="15.230343464936">
        <ele>88.4</ele>
        <time>2018-08-05T17:56:51Z</time>
      </trkpt>
      <trkpt lat="59.01640972374" lon="15.230588635511">
        <ele>89.8</ele>
        <time>2018-08-05T17:56:54Z</time>
      </trkpt>
      <trkpt lat="59.016584821631" lon="15.230844954013">
        <ele>89.6</ele>
        <time>2018-08-05T17:56:58Z</time>
      </trkpt>
      <trkpt lat="59.016736450202" lon="15.231078306109">
        <ele>91.4</ele>
        <time>2018-08-05T17:57:02Z</time>
      </trkpt>
      <trkpt lat="59.016811552026" lon="15.231180649108">
        <ele>92.2</ele>
        <time>2018-08-05T17:57:04Z</time>
      </trkpt>
      <trkpt lat="59.016998468396" lon="15.231451887392">
        <ele>93.2</ele>
        <time>2018-08-05T17:57:09Z</time>
      </trkpt>
      <trkpt lat="59.017125873276" lon="15.23171943764">
        <ele>93.8</ele>
        <time>2018-08-05T17:57:12Z</time>
      </trkpt>
      <trkpt lat="59.017195862141" lon="15.231943402008">
        <ele>94.4</ele>
        <time>2018-08-05T17:57:14Z</time>
      </trkpt>
      <trkpt lat="59.017255876545" lon="15.232341123163">
        <ele>94</ele>
        <time>2018-08-05T17:57:17Z</time>
      </trkpt>
      <trkpt lat="59.017264761359" lon="15.232482609635">
        <ele>94</ele>
        <time>2018-08-05T17:57:18Z</time>
      </trkpt>
      <trkpt lat="59.017266270101" lon="15.232624515202">
        <ele>94</ele>
        <time>2018-08-05T17:57:19Z</time>
      </trkpt>
      <trkpt lat="59.017249506301" lon="15.233043191107">
        <ele>94.8</ele>
        <time>2018-08-05T17:57:22Z</time>
      </trkpt>
      <trkpt lat="59.01723114994" lon="15.233415598924">
        <ele>95</ele>
        <time>2018-08-05T17:57:25Z</time>
      </trkpt>
      <trkpt lat="59.017224109144" lon="15.2337931197">
        <ele>95.6</ele>
        <time>2018-08-05T17:57:28Z</time>
      </trkpt>
      <trkpt lat="59.017219834375" lon="15.234177765091">
        <ele>95.6</ele>
        <time>2018-08-05T17:57:31Z</time>
      </trkpt>
      <trkpt lat="59.017223019497" lon="15.234551094917">
        <ele>95.8</ele>
        <time>2018-08-05T17:57:34Z</time>
      </trkpt>
      <trkpt lat="59.01724372279" lon="15.234978152722">
        <ele>95.8</ele>
        <time>2018-08-05T17:57:38Z</time>
      </trkpt>
      <trkpt lat="59.017267527386" lon="15.235191472077">
        <ele>96</ele>
        <time>2018-08-05T17:57:40Z</time>
      </trkpt>
      <trkpt lat="59.017339947002" lon="15.23562540304">
        <ele>95.2</ele>
        <time>2018-08-05T17:57:44Z</time>
      </trkpt>
      <trkpt lat="59.017386047452" lon="15.235932012942">
        <ele>95</ele>
        <time>2018-08-05T17:57:47Z</time>
      </trkpt>
      <trkpt lat="59.017413623903" lon="15.236226804365">
        <ele>94.6</ele>
        <time>2018-08-05T17:57:50Z</time>
      </trkpt>
      <trkpt lat="59.017432650816" lon="15.236664171907">
        <ele>94.2</ele>
        <time>2018-08-05T17:57:54Z</time>
      </trkpt>
      <trkpt lat="59.017466429873" lon="15.237066000193">
        <ele>94</ele>
        <time>2018-08-05T17:57:58Z</time>
      </trkpt>
      <trkpt lat="59.017495850342" lon="15.237489789057">
        <ele>95.8</ele>
        <time>2018-08-05T17:58:02Z</time>
      </trkpt>
      <trkpt lat="59.017519990214" lon="15.237899999243">
        <ele>96.8</ele>
        <time>2018-08-05T17:58:06Z</time>
      </trkpt>
      <trkpt lat="59.017551673796" lon="15.238331834731">
        <ele>97.2</ele>
        <time>2018-08-05T17:58:10Z</time>
      </trkpt>
      <trkpt lat="59.017585788129" lon="15.238735758492">
        <ele>97.4</ele>
        <time>2018-08-05T17:58:14Z</time>
      </trkpt>
      <trkpt lat="59.017627529991" lon="15.239182513762">
        <ele>97.4</ele>
        <time>2018-08-05T17:58:18Z</time>
      </trkpt>
      <trkpt lat="59.017682515255" lon="15.239632873249">
        <ele>97.4</ele>
        <time>2018-08-05T17:58:22Z</time>
      </trkpt>
      <trkpt lat="59.017772955956" lon="15.240051800611">
        <ele>97.4</ele>
        <time>2018-08-05T17:58:26Z</time>
      </trkpt>
      <trkpt lat="59.017828444134" lon="15.240228491063">
        <ele>97.4</ele>
        <time>2018-08-05T17:58:28Z</time>
      </trkpt>
      <trkpt lat="59.018012426839" lon="15.240411803216">
        <ele>97.6</ele>
        <time>2018-08-05T17:58:32Z</time>
      </trkpt>
      <trkpt lat="59.018174868061" lon="15.240361595635">
        <ele>97.2</ele>
        <time>2018-08-05T17:58:35Z</time>
      </trkpt>
      <trkpt lat="59.018354073083" lon="15.240248523804">
        <ele>96.8</ele>
        <time>2018-08-05T17:58:38Z</time>
      </trkpt>
      <trkpt lat="59.018545264222" lon="15.240080047614">
        <ele>96.4</ele>
        <time>2018-08-05T17:58:41Z</time>
      </trkpt>
      <trkpt lat="59.018746346003" lon="15.239889527027">
        <ele>96</ele>
        <time>2018-08-05T17:58:44Z</time>
      </trkpt>
      <trkpt lat="59.018808539701" lon="15.239815933945">
        <ele>96</ele>
        <time>2018-08-05T17:58:45Z</time>
      </trkpt>
      <trkpt lat="59.019006352541" lon="15.239571014827">
        <ele>95.6</ele>
        <time>2018-08-05T17:58:48Z</time>
      </trkpt>
      <trkpt lat="59.019209697435" lon="15.239317881447">
        <ele>95.2</ele>
        <time>2018-08-05T17:58:51Z</time>
      </trkpt>
      <trkpt lat="59.019397116719" lon="15.239044044774">
        <ele>94.6</ele>
        <time>2018-08-05T17:58:54Z</time>
      </trkpt>
      <trkpt lat="59.019511948749" lon="15.238867941055">
        <ele>94.6</ele>
        <time>2018-08-05T17:58:56Z</time>
      </trkpt>
      <trkpt lat="59.01966357732" lon="15.238623441032">
        <ele>94.6</ele>
        <time>2018-08-05T17:58:59Z</time>
      </trkpt>
      <trkpt lat="59.019743708284" lon="15.238436357024">
        <ele>95.2</ele>
        <time>2018-08-05T17:59:01Z</time>
      </trkpt>
      <trkpt lat="59.019801794851" lon="15.2381097982">
        <ele>95.4</ele>
        <time>2018-08-05T17:59:04Z</time>
      </trkpt>
      <trkpt lat="59.019813697149" lon="15.237754238002">
        <ele>95.6</ele>
        <time>2018-08-05T17:59:07Z</time>
      </trkpt>
      <trkpt lat="59.019818139556" lon="15.237405215686">
        <ele>95.8</ele>
        <time>2018-08-05T17:59:10Z</time>
      </trkpt>
      <trkpt lat="59.01981780428" lon="15.237054600809">
        <ele>96.2</ele>
        <time>2018-08-05T17:59:13Z</time>
      </trkpt>
      <trkpt lat="59.019810428208" lon="15.236590243549">
        <ele>96.8</ele>
        <time>2018-08-05T17:59:17Z</time>
      </trkpt>
      <trkpt lat="59.019807829819" lon="15.236241975604">
        <ele>97.2</ele>
        <time>2018-08-05T17:59:20Z</time>
      </trkpt>
      <trkpt lat="59.019803806507" lon="15.235799998017">
        <ele>98.2</ele>
        <time>2018-08-05T17:59:24Z</time>
      </trkpt>
      <trkpt lat="59.019813278054" lon="15.235416777549">
        <ele>99.2</ele>
        <time>2018-08-05T17:59:28Z</time>
      </trkpt>
      <trkpt lat="59.019829203664" lon="15.235044118275">
        <ele>100.2</ele>
        <time>2018-08-05T17:59:33Z</time>
      </trkpt>
      <trkpt lat="59.019850996604" lon="15.234689312448">
        <ele>101.4</ele>
        <time>2018-08-05T17:59:38Z</time>
      </trkpt>
      <trkpt lat="59.019868598594" lon="15.234328220196">
        <ele>102.4</ele>
        <time>2018-08-05T17:59:43Z</time>
      </trkpt>
      <trkpt lat="59.019891565" lon="15.233920859856">
        <ele>102</ele>
        <time>2018-08-05T17:59:48Z</time>
      </trkpt>
      <trkpt lat="59.019917381252" lon="15.233481480658">
        <ele>100.8</ele>
        <time>2018-08-05T17:59:53Z</time>
      </trkpt>
      <trkpt lat="59.019921823659" lon="15.233390034129">
        <ele>100.6</ele>
        <time>2018-08-05T17:59:54Z</time>
      </trkpt>
      <trkpt lat="59.019937413993" lon="15.233039335433">
        <ele>100.4</ele>
        <time>2018-08-05T17:59:58Z</time>
      </trkpt>
      <trkpt lat="59.019957698191" lon="15.232658629535">
        <ele>100.8</ele>
        <time>2018-08-05T18:00:03Z</time>
      </trkpt>
      <trkpt lat="59.019976389828" lon="15.232275241429">
        <ele>102.4</ele>
        <time>2018-08-05T18:00:08Z</time>
      </trkpt>
      <trkpt lat="59.019991393429" lon="15.231844411769">
        <ele>104</ele>
        <time>2018-08-05T18:00:13Z</time>
      </trkpt>
      <trkpt lat="59.020008492505" lon="15.231495557091">
        <ele>103.6</ele>
        <time>2018-08-05T18:00:17Z</time>
      </trkpt>
      <trkpt lat="59.020010504161" lon="15.23111510265">
        <ele>103</ele>
        <time>2018-08-05T18:00:21Z</time>
      </trkpt>
      <trkpt lat="59.020021652088" lon="15.230665246077">
        <ele>102.6</ele>
        <time>2018-08-05T18:00:25Z</time>
      </trkpt>
      <trkpt lat="59.020038499707" lon="15.23031714577">
        <ele>102</ele>
        <time>2018-08-05T18:00:28Z</time>
      </trkpt>
      <trkpt lat="59.020067165805" lon="15.229859996944">
        <ele>103.2</ele>
        <time>2018-08-05T18:00:32Z</time>
      </trkpt>
      <trkpt lat="59.020099184663" lon="15.229512734827">
        <ele>104</ele>
        <time>2018-08-05T18:00:35Z</time>
      </trkpt>
      <trkpt lat="59.020141429439" lon="15.229073020353">
        <ele>104.6</ele>
        <time>2018-08-05T18:00:39Z</time>
      </trkpt>
      <trkpt lat="59.020181075826" lon="15.228628695834">
        <ele>105</ele>
        <time>2018-08-05T18:00:43Z</time>
      </trkpt>
      <trkpt lat="59.020213513779" lon="15.228269279962">
        <ele>104.6</ele>
        <time>2018-08-05T18:00:46Z</time>
      </trkpt>
      <trkpt lat="59.020250394139" lon="15.2278922621">
        <ele>103.8</ele>
        <time>2018-08-05T18:00:49Z</time>
      </trkpt>
      <trkpt lat="59.020279311694" lon="15.227536953359">
        <ele>104</ele>
        <time>2018-08-05T18:00:52Z</time>
      </trkpt>
      <trkpt lat="59.020309989448" lon="15.227181057885">
        <ele>104</ele>
        <time>2018-08-05T18:00:55Z</time>
      </trkpt>
      <trkpt lat="59.020350641663" lon="15.226828682809">
        <ele>104.6</ele>
        <time>2018-08-05T18:00:58Z</time>
      </trkpt>
      <trkpt lat="59.020413422094" lon="15.226395170941">
        <ele>105</ele>
        <time>2018-08-05T18:01:02Z</time>
      </trkpt>
      <trkpt lat="59.020502270234" lon="15.225987140049">
        <ele>105.4</ele>
        <time>2018-08-05T18:01:06Z</time>
      </trkpt>
      <trkpt lat="59.020594303496" lon="15.225616157155">
        <ele>106.8</ele>
        <time>2018-08-05T18:01:10Z</time>
      </trkpt>
      <trkpt lat="59.02065264152" lon="15.225373082055">
        <ele>108.2</ele>
        <time>2018-08-05T18:01:13Z</time>
      </trkpt>
      <trkpt lat="59.020736795796" lon="15.225027663956">
        <ele>108.6</ele>
        <time>2018-08-05T18:01:17Z</time>
      </trkpt>
      <trkpt lat="59.020829331972" lon="15.224640420176">
        <ele>109.2</ele>
        <time>2018-08-05T18:01:21Z</time>
      </trkpt>
      <trkpt lat="59.0209141568" lon="15.224282596865">
        <ele>110.2</ele>
        <time>2018-08-05T18:01:25Z</time>
      </trkpt>
      <trkpt lat="59.020988671891" lon="15.223944722476">
        <ele>111.8</ele>
        <time>2018-08-05T18:01:29Z</time>
      </trkpt>
      <trkpt lat="59.021073329081" lon="15.223586647708">
        <ele>112.4</ele>
        <time>2018-08-05T18:01:33Z</time>
      </trkpt>
      <trkpt lat="59.021157818633" lon="15.223278277607">
        <ele>111.4</ele>
        <time>2018-08-05T18:01:36Z</time>
      </trkpt>
      <trkpt lat="59.021220599064" lon="15.223079794215">
        <ele>111.2</ele>
        <time>2018-08-05T18:01:38Z</time>
      </trkpt>
      <trkpt lat="59.021364097192" lon="15.222712750814">
        <ele>111.8</ele>
        <time>2018-08-05T18:01:42Z</time>
      </trkpt>
      <trkpt lat="59.021514133202" lon="15.22239457389">
        <ele>112</ele>
        <time>2018-08-05T18:01:46Z</time>
      </trkpt>
      <trkpt lat="59.021672383474" lon="15.222142446338">
        <ele>112</ele>
        <time>2018-08-05T18:01:50Z</time>
      </trkpt>
      <trkpt lat="59.021843374234" lon="15.221964414782">
        <ele>111.8</ele>
        <time>2018-08-05T18:01:54Z</time>
      </trkpt>
      <trkpt lat="59.022028446586" lon="15.221831477848">
        <ele>111.8</ele>
        <time>2018-08-05T18:01:58Z</time>
      </trkpt>
      <trkpt lat="59.022074882312" lon="15.221784623027">
        <ele>111.8</ele>
        <time>2018-08-05T18:01:59Z</time>
      </trkpt>
      <trkpt lat="59.02221670406" lon="15.221513049467">
        <ele>111</ele>
        <time>2018-08-05T18:02:03Z</time>
      </trkpt>
      <trkpt lat="59.022287531115" lon="15.221170145938">
        <ele>109.2</ele>
        <time>2018-08-05T18:02:07Z</time>
      </trkpt>
      <trkpt lat="59.022294907187" lon="15.221075430468">
        <ele>109</ele>
        <time>2018-08-05T18:02:08Z</time>
      </trkpt>
      <trkpt lat="59.022307815313" lon="15.22068215172">
        <ele>108.2</ele>
        <time>2018-08-05T18:02:12Z</time>
      </trkpt>
      <trkpt lat="59.022327093683" lon="15.220292058094">
        <ele>107.6</ele>
        <time>2018-08-05T18:02:16Z</time>
      </trkpt>
      <trkpt lat="59.022351987926" lon="15.219917051888">
        <ele>107.8</ele>
        <time>2018-08-05T18:02:20Z</time>
      </trkpt>
      <trkpt lat="59.022386940449" lon="15.21955813893">
        <ele>107.6</ele>
        <time>2018-08-05T18:02:24Z</time>
      </trkpt>
      <trkpt lat="59.022427425026" lon="15.219165782191">
        <ele>108</ele>
        <time>2018-08-05T18:02:28Z</time>
      </trkpt>
      <trkpt lat="59.022470759449" lon="15.218746519553">
        <ele>108.8</ele>
        <time>2018-08-05T18:02:32Z</time>
      </trkpt>
      <trkpt lat="59.022502610669" lon="15.218295238057">
        <ele>108.4</ele>
        <time>2018-08-05T18:02:36Z</time>
      </trkpt>
      <trkpt lat="59.022553907897" lon="15.217957363668">
        <ele>107.8</ele>
        <time>2018-08-05T18:02:39Z</time>
      </trkpt>
      <trkpt lat="59.022612078283" lon="15.21762108184">
        <ele>108</ele>
        <time>2018-08-05T18:02:42Z</time>
      </trkpt>
      <trkpt lat="59.022688772668" lon="15.21719444313">
        <ele>107.8</ele>
        <time>2018-08-05T18:02:46Z</time>
      </trkpt>
      <trkpt lat="59.022768903632" lon="15.216762356185">
        <ele>107.4</ele>
        <time>2018-08-05T18:02:50Z</time>
      </trkpt>
      <trkpt lat="59.022832019339" lon="15.216415261706">
        <ele>105.8</ele>
        <time>2018-08-05T18:02:53Z</time>
      </trkpt>
      <trkpt lat="59.022885495861" lon="15.216036148369">
        <ele>105</ele>
        <time>2018-08-05T18:02:56Z</time>
      </trkpt>
      <trkpt lat="59.02294425298" lon="15.215648653132">
        <ele>104.6</ele>
        <time>2018-08-05T18:02:59Z</time>
      </trkpt>
      <trkpt lat="59.023001417538" lon="15.215291500373">
        <ele>105.2</ele>
        <time>2018-08-05T18:03:02Z</time>
      </trkpt>
      <trkpt lat="59.023030083636" lon="15.214843906913">
        <ele>104.8</ele>
        <time>2018-08-05T18:03:06Z</time>
      </trkpt>
      <trkpt lat="59.023004015927" lon="15.214486586516">
        <ele>104</ele>
        <time>2018-08-05T18:03:09Z</time>
      </trkpt>
      <trkpt lat="59.022979121684" lon="15.214094397415">
        <ele>103.8</ele>
        <time>2018-08-05T18:03:12Z</time>
      </trkpt>
      <trkpt lat="59.02297945696" lon="15.213836151076">
        <ele>104</ele>
        <time>2018-08-05T18:03:14Z</time>
      </trkpt>
      <trkpt lat="59.023029999817" lon="15.213475813195">
        <ele>104.6</ele>
        <time>2018-08-05T18:03:17Z</time>
      </trkpt>
      <trkpt lat="59.023126559305" lon="15.213163335963">
        <ele>105</ele>
        <time>2018-08-05T18:03:20Z</time>
      </trkpt>
      <trkpt lat="59.023164277855" lon="15.213069123407">
        <ele>105.2</ele>
        <time>2018-08-05T18:03:21Z</time>
      </trkpt>
      <trkpt lat="59.02327198527" lon="15.212768632292">
        <ele>105.4</ele>
        <time>2018-08-05T18:03:24Z</time>
      </trkpt>
      <trkpt lat="59.023361252505" lon="15.212445007133">
        <ele>105.6</ele>
        <time>2018-08-05T18:03:27Z</time>
      </trkpt>
      <trkpt lat="59.023433588302" lon="15.212122471621">
        <ele>105.8</ele>
        <time>2018-08-05T18:03:30Z</time>
      </trkpt>
      <trkpt lat="59.023496117276" lon="15.211795326064">
        <ele>106.2</ele>
        <time>2018-08-05T18:03:33Z</time>
      </trkpt>
      <trkpt lat="59.023557472784" lon="15.211376482521">
        <ele>106.8</ele>
        <time>2018-08-05T18:03:37Z</time>
      </trkpt>
      <trkpt lat="59.023589072547" lon="15.21096333867">
        <ele>107.4</ele>
        <time>2018-08-05T18:03:41Z</time>
      </trkpt>
      <trkpt lat="59.023597286809" lon="15.210521193445">
        <ele>107.6</ele>
        <time>2018-08-05T18:03:45Z</time>
      </trkpt>
      <trkpt lat="59.023603740872" lon="15.210090699061">
        <ele>107.4</ele>
        <time>2018-08-05T18:03:49Z</time>
      </trkpt>
      <trkpt lat="59.023606758356" lon="15.209697336494">
        <ele>106.8</ele>
        <time>2018-08-05T18:03:53Z</time>
      </trkpt>
      <trkpt lat="59.023611619858" lon="15.209371448222">
        <ele>105.6</ele>
        <time>2018-08-05T18:03:56Z</time>
      </trkpt>
      <trkpt lat="59.02362653964" lon="15.20901538511">
        <ele>105.2</ele>
        <time>2018-08-05T18:03:59Z</time>
      </trkpt>
      <trkpt lat="59.023664677285" lon="15.208567288736">
        <ele>104.4</ele>
        <time>2018-08-05T18:04:03Z</time>
      </trkpt>
      <trkpt lat="59.023726451888" lon="15.208210638891">
        <ele>103</ele>
        <time>2018-08-05T18:04:06Z</time>
      </trkpt>
      <trkpt lat="59.02382686705" lon="15.207842002929">
        <ele>101.6</ele>
        <time>2018-08-05T18:04:09Z</time>
      </trkpt>
      <trkpt lat="59.023928455678" lon="15.207498680305">
        <ele>101.4</ele>
        <time>2018-08-05T18:04:12Z</time>
      </trkpt>
      <trkpt lat="59.024045047907" lon="15.207180922476">
        <ele>101.8</ele>
        <time>2018-08-05T18:04:16Z</time>
      </trkpt>
      <trkpt lat="59.024182343429" lon="15.206904906509">
        <ele>102.6</ele>
        <time>2018-08-05T18:04:23Z</time>
      </trkpt>
      <trkpt lat="59.024331960344" lon="15.206652611319">
        <ele>103.8</ele>
        <time>2018-08-05T18:04:31Z</time>
      </trkpt>
      <trkpt lat="59.024462717984" lon="15.206364944511">
        <ele>105.8</ele>
        <time>2018-08-05T18:04:39Z</time>
      </trkpt>
      <trkpt lat="59.024548213364" lon="15.206018939679">
        <ele>107.8</ele>
        <time>2018-08-05T18:04:46Z</time>
      </trkpt>
      <trkpt lat="59.024594481452" lon="15.205673270123">
        <ele>109.2</ele>
        <time>2018-08-05T18:04:53Z</time>
      </trkpt>
      <trkpt lat="59.024589117036" lon="15.205314860079">
        <ele>111</ele>
        <time>2018-08-05T18:05:00Z</time>
      </trkpt>
      <trkpt lat="59.024579896946" lon="15.204915043449">
        <ele>112.2</ele>
        <time>2018-08-05T18:05:07Z</time>
      </trkpt>
      <trkpt lat="59.024569754847" lon="15.204567026961">
        <ele>113</ele>
        <time>2018-08-05T18:05:13Z</time>
      </trkpt>
      <trkpt lat="59.024570257761" lon="15.204145333572">
        <ele>114.2</ele>
        <time>2018-08-05T18:05:19Z</time>
      </trkpt>
      <trkpt lat="59.024591044873" lon="15.203886751957">
        <ele>114.8</ele>
        <time>2018-08-05T18:05:22Z</time>
      </trkpt>
      <trkpt lat="59.024647622698" lon="15.20354703355">
        <ele>115.8</ele>
        <time>2018-08-05T18:05:26Z</time>
      </trkpt>
      <trkpt lat="59.024752983181" lon="15.203258780009">
        <ele>117.4</ele>
        <time>2018-08-05T18:05:30Z</time>
      </trkpt>
      <trkpt lat="59.024869994505" lon="15.202969939735">
        <ele>116.8</ele>
        <time>2018-08-05T18:05:34Z</time>
      </trkpt>
      <trkpt lat="59.024969990572" lon="15.202646398395">
        <ele>116.2</ele>
        <time>2018-08-05T18:05:38Z</time>
      </trkpt>
      <trkpt lat="59.025076440702" lon="15.202307434359">
        <ele>115.4</ele>
        <time>2018-08-05T18:05:42Z</time>
      </trkpt>
      <trkpt lat="59.025203258849" lon="15.201990682358">
        <ele>114.8</ele>
        <time>2018-08-05T18:05:46Z</time>
      </trkpt>
      <trkpt lat="59.025332088652" lon="15.201671583425">
        <ele>114</ele>
        <time>2018-08-05T18:05:50Z</time>
      </trkpt>
      <trkpt lat="59.025425463018" lon="15.201316274684">
        <ele>113.6</ele>
        <time>2018-08-05T18:05:54Z</time>
      </trkpt>
      <trkpt lat="59.025437952049" lon="15.201223822327">
        <ele>113.6</ele>
        <time>2018-08-05T18:05:55Z</time>
      </trkpt>
      <trkpt lat="59.025382463871" lon="15.200882846635">
        <ele>113</ele>
        <time>2018-08-05T18:05:59Z</time>
      </trkpt>
      <trkpt lat="59.02534734371" lon="15.200813528322">
        <ele>112.8</ele>
        <time>2018-08-05T18:06:00Z</time>
      </trkpt>
      <trkpt lat="59.025183393746" lon="15.20053625507">
        <ele>112.4</ele>
        <time>2018-08-05T18:06:04Z</time>
      </trkpt>
      <trkpt lat="59.025024053827" lon="15.200247163339">
        <ele>112.4</ele>
        <time>2018-08-05T18:06:08Z</time>
      </trkpt>
      <trkpt lat="59.024924393036" lon="15.199991012475">
        <ele>112.6</ele>
        <time>2018-08-05T18:06:11Z</time>
      </trkpt>
      <trkpt lat="59.024866893202" lon="15.199577281891">
        <ele>113</ele>
        <time>2018-08-05T18:06:15Z</time>
      </trkpt>
      <trkpt lat="59.024850632316" lon="15.199138070331">
        <ele>112.8</ele>
        <time>2018-08-05T18:06:19Z</time>
      </trkpt>
      <trkpt lat="59.024831437765" lon="15.198913938325">
        <ele>112.6</ele>
        <time>2018-08-05T18:06:21Z</time>
      </trkpt>
      <trkpt lat="59.024729849137" lon="15.19851202622">
        <ele>113</ele>
        <time>2018-08-05T18:06:25Z</time>
      </trkpt>
      <trkpt lat="59.024655250227" lon="15.198343801487">
        <ele>113.2</ele>
        <time>2018-08-05T18:06:27Z</time>
      </trkpt>
      <trkpt lat="59.024491384082" lon="15.197999724492">
        <ele>112.6</ele>
        <time>2018-08-05T18:06:31Z</time>
      </trkpt>
      <trkpt lat="59.024358447148" lon="15.197706777087">
        <ele>111.6</ele>
        <time>2018-08-05T18:06:34Z</time>
      </trkpt>
      <trkpt lat="59.024216793038" lon="15.1974240556">
        <ele>111.6</ele>
        <time>2018-08-05T18:06:37Z</time>
      </trkpt>
      <trkpt lat="59.024067343761" lon="15.197152901135">
        <ele>111.8</ele>
        <time>2018-08-05T18:06:40Z</time>
      </trkpt>
      <trkpt lat="59.023916804837" lon="15.196909826035">
        <ele>112.2</ele>
        <time>2018-08-05T18:06:43Z</time>
      </trkpt>
      <trkpt lat="59.023763751343" lon="15.196683514735">
        <ele>112.6</ele>
        <time>2018-08-05T18:06:46Z</time>
      </trkpt>
      <trkpt lat="59.023611116944" lon="15.196468099905">
        <ele>112.6</ele>
        <time>2018-08-05T18:06:49Z</time>
      </trkpt>
      <trkpt lat="59.02345638707" lon="15.196251260152">
        <ele>113.2</ele>
        <time>2018-08-05T18:06:52Z</time>
      </trkpt>
      <trkpt lat="59.023301657196" lon="15.196063840868">
        <ele>113.2</ele>
        <time>2018-08-05T18:06:55Z</time>
      </trkpt>
      <trkpt lat="59.02313284573" lon="15.195929479011">
        <ele>112.6</ele>
        <time>2018-08-05T18:06:58Z</time>
      </trkpt>
      <trkpt lat="59.023071909317" lon="15.195900729094">
        <ele>112.4</ele>
        <time>2018-08-05T18:06:59Z</time>
      </trkpt>
      <trkpt lat="59.022885998775" lon="15.195854209549">
        <ele>111.8</ele>
        <time>2018-08-05T18:07:02Z</time>
      </trkpt>
      <trkpt lat="59.022703357174" lon="15.195832668066">
        <ele>111.4</ele>
        <time>2018-08-05T18:07:05Z</time>
      </trkpt>
      <trkpt lat="59.022522727229" lon="15.195794278964">
        <ele>111</ele>
        <time>2018-08-05T18:07:08Z</time>
      </trkpt>
      <trkpt lat="59.022345030949" lon="15.195705011729">
        <ele>111</ele>
        <time>2018-08-05T18:07:11Z</time>
      </trkpt>
      <trkpt lat="59.022174543103" lon="15.19558422855">
        <ele>110.8</ele>
        <time>2018-08-05T18:07:14Z</time>
      </trkpt>
      <trkpt lat="59.022005312542" lon="15.195446178657">
        <ele>110.4</ele>
        <time>2018-08-05T18:07:17Z</time>
      </trkpt>
      <trkpt lat="59.02178838897" lon="15.195256915355">
        <ele>110.2</ele>
        <time>2018-08-05T18:07:21Z</time>
      </trkpt>
      <trkpt lat="59.021616895296" lon="15.195129426656">
        <ele>109.4</ele>
        <time>2018-08-05T18:07:24Z</time>
      </trkpt>
      <trkpt lat="59.02139946881" lon="15.195004703984">
        <ele>108.4</ele>
        <time>2018-08-05T18:07:28Z</time>
      </trkpt>
      <trkpt lat="59.021230824982" lon="15.194920465889">
        <ele>107.6</ele>
        <time>2018-08-05T18:07:31Z</time>
      </trkpt>
      <trkpt lat="59.021023037681" lon="15.194828767903">
        <ele>106.4</ele>
        <time>2018-08-05T18:07:35Z</time>
      </trkpt>
      <trkpt lat="59.020812819629" lon="15.194739416849">
        <ele>104.4</ele>
        <time>2018-08-05T18:07:39Z</time>
      </trkpt>
      <trkpt lat="59.020586843605" lon="15.194648305596">
        <ele>106.2</ele>
        <time>2018-08-05T18:07:43Z</time>
      </trkpt>
      <trkpt lat="59.02037268606" lon="15.194591560133">
        <ele>107</ele>
        <time>2018-08-05T18:07:47Z</time>
      </trkpt>
      <trkpt lat="59.020149895158" lon="15.194591057219">
        <ele>107</ele>
        <time>2018-08-05T18:07:51Z</time>
      </trkpt>
      <trkpt lat="59.019923667677" lon="15.194605474087">
        <ele>107.2</ele>
        <time>2018-08-05T18:07:55Z</time>
      </trkpt>
      <trkpt lat="59.019697440196" lon="15.194598014196">
        <ele>107.4</ele>
        <time>2018-08-05T18:07:59Z</time>
      </trkpt>
      <trkpt lat="59.019465513023" lon="15.194561301474">
        <ele>106.8</ele>
        <time>2018-08-05T18:08:03Z</time>
      </trkpt>
      <trkpt lat="59.019239201723" lon="15.194469938764">
        <ele>106.8</ele>
        <time>2018-08-05T18:08:07Z</time>
      </trkpt>
      <trkpt lat="59.019027977843" lon="15.19430934156">
        <ele>107</ele>
        <time>2018-08-05T18:08:11Z</time>
      </trkpt>
      <trkpt lat="59.018976932072" lon="15.194251841726">
        <ele>107</ele>
        <time>2018-08-05T18:08:12Z</time>
      </trkpt>
      <trkpt lat="59.018782974906" lon="15.193979178519">
        <ele>106.2</ele>
        <time>2018-08-05T18:08:16Z</time>
      </trkpt>
      <trkpt lat="59.018642745719" lon="15.193737193066">
        <ele>105.8</ele>
        <time>2018-08-05T18:08:19Z</time>
      </trkpt>
      <trkpt lat="59.018506623663" lon="15.193488082998">
        <ele>105.6</ele>
        <time>2018-08-05T18:08:22Z</time>
      </trkpt>
      <trkpt lat="59.018330519944" lon="15.193182646562">
        <ele>104.6</ele>
        <time>2018-08-05T18:08:26Z</time>
      </trkpt>
      <trkpt lat="59.018131952733" lon="15.1929313572">
        <ele>105.4</ele>
        <time>2018-08-05T18:08:30Z</time>
      </trkpt>
      <trkpt lat="59.017917208455" lon="15.192761456087">
        <ele>105.2</ele>
        <time>2018-08-05T18:08:34Z</time>
      </trkpt>
      <trkpt lat="59.01769131625" lon="15.192639499442">
        <ele>106.2</ele>
        <time>2018-08-05T18:08:38Z</time>
      </trkpt>
      <trkpt lat="59.017473973583" lon="15.19251729134">
        <ele>108</ele>
        <time>2018-08-05T18:08:42Z</time>
      </trkpt>
      <trkpt lat="59.01727389763" lon="15.192401202025">
        <ele>109.6</ele>
        <time>2018-08-05T18:08:46Z</time>
      </trkpt>
      <trkpt lat="59.0170752466" lon="15.192280251208">
        <ele>111</ele>
        <time>2018-08-05T18:08:50Z</time>
      </trkpt>
      <trkpt lat="59.016897466501" lon="15.192139183831">
        <ele>112.4</ele>
        <time>2018-08-05T18:08:54Z</time>
      </trkpt>
      <trkpt lat="59.016709041389" lon="15.191909771228">
        <ele>113.6</ele>
        <time>2018-08-05T18:08:59Z</time>
      </trkpt>
      <trkpt lat="59.016580630681" lon="15.191633336166">
        <ele>113</ele>
        <time>2018-08-05T18:09:03Z</time>
      </trkpt>
      <trkpt lat="59.016458674036" lon="15.191249193689">
        <ele>112</ele>
        <time>2018-08-05T18:09:07Z</time>
      </trkpt>
      <trkpt lat="59.01638290166" lon="15.190929843299">
        <ele>112</ele>
        <time>2018-08-05T18:09:10Z</time>
      </trkpt>
      <trkpt lat="59.016321127057" lon="15.19059615986">
        <ele>112.4</ele>
        <time>2018-08-05T18:09:13Z</time>
      </trkpt>
      <trkpt lat="59.016266057974" lon="15.190257950195">
        <ele>112.4</ele>
        <time>2018-08-05T18:09:16Z</time>
      </trkpt>
      <trkpt lat="59.016198918955" lon="15.189819493006">
        <ele>112.8</ele>
        <time>2018-08-05T18:09:20Z</time>
      </trkpt>
      <trkpt lat="59.016126918434" lon="15.189403499309">
        <ele>113</ele>
        <time>2018-08-05T18:09:24Z</time>
      </trkpt>
      <trkpt lat="59.016112753023" lon="15.189301072491">
        <ele>112.8</ele>
        <time>2018-08-05T18:09:25Z</time>
      </trkpt>
      <trkpt lat="59.016051565153" lon="15.188902848422">
        <ele>112</ele>
        <time>2018-08-05T18:09:29Z</time>
      </trkpt>
      <trkpt lat="59.015988533265" lon="15.188523232171">
        <ele>112.4</ele>
        <time>2018-08-05T18:09:33Z</time>
      </trkpt>
      <trkpt lat="59.015930027603" lon="15.188161469367">
        <ele>112.8</ele>
        <time>2018-08-05T18:09:37Z</time>
      </trkpt>
      <trkpt lat="59.015870264656" lon="15.187777829804">
        <ele>112.8</ele>
        <time>2018-08-05T18:09:41Z</time>
      </trkpt>
      <trkpt lat="59.015813938288" lon="15.187367787256">
        <ele>113</ele>
        <time>2018-08-05T18:09:45Z</time>
      </trkpt>
      <trkpt lat="59.01579700685" lon="15.186956822699">
        <ele>112.8</ele>
        <time>2018-08-05T18:09:49Z</time>
      </trkpt>
      <trkpt lat="59.01579449228" lon="15.186548624169">
        <ele>111.6</ele>
        <time>2018-08-05T18:09:53Z</time>
      </trkpt>
      <trkpt lat="59.015780410688" lon="15.186342848524">
        <ele>111.2</ele>
        <time>2018-08-05T18:09:55Z</time>
      </trkpt>
      <trkpt lat="59.015746296355" lon="15.18589642853">
        <ele>111</ele>
        <time>2018-08-05T18:09:59Z</time>
      </trkpt>
      <trkpt lat="59.015679827888" lon="15.185461324101">
        <ele>110.8</ele>
        <time>2018-08-05T18:10:03Z</time>
      </trkpt>
      <trkpt lat="59.015597266173" lon="15.185057148883">
        <ele>110.6</ele>
        <time>2018-08-05T18:10:07Z</time>
      </trkpt>
      <trkpt lat="59.015481344496" lon="15.184666636162">
        <ele>110</ele>
        <time>2018-08-05T18:10:11Z</time>
      </trkpt>
      <trkpt lat="59.015377241298" lon="15.184368827255">
        <ele>109.4</ele>
        <time>2018-08-05T18:10:14Z</time>
      </trkpt>
      <trkpt lat="59.015233156437" lon="15.184012596505">
        <ele>109.4</ele>
        <time>2018-08-05T18:10:18Z</time>
      </trkpt>
      <trkpt lat="59.015061746582" lon="15.183718559453">
        <ele>109.8</ele>
        <time>2018-08-05T18:10:22Z</time>
      </trkpt>
      <trkpt lat="59.015010281716" lon="15.183660221429">
        <ele>110</ele>
        <time>2018-08-05T18:10:23Z</time>
      </trkpt>
      <trkpt lat="59.014802326777" lon="15.18344723735">
        <ele>110</ele>
        <time>2018-08-05T18:10:27Z</time>
      </trkpt>
      <trkpt lat="59.014612476742" lon="15.183193936332">
        <ele>107.6</ele>
        <time>2018-08-05T18:10:31Z</time>
      </trkpt>
      <trkpt lat="59.014458165963" lon="15.18301473131">
        <ele>106.4</ele>
        <time>2018-08-05T18:10:34Z</time>
      </trkpt>
      <trkpt lat="59.014299245139" lon="15.182831586795">
        <ele>106</ele>
        <time>2018-08-05T18:10:37Z</time>
      </trkpt>
      <trkpt lat="59.014135295175" lon="15.182647771728">
        <ele>106</ele>
        <time>2018-08-05T18:10:40Z</time>
      </trkpt>
      <trkpt lat="59.013980816758" lon="15.182466722688">
        <ele>105.6</ele>
        <time>2018-08-05T18:10:43Z</time>
      </trkpt>
      <trkpt lat="59.013820051916" lon="15.182306879855">
        <ele>105.2</ele>
        <time>2018-08-05T18:10:46Z</time>
      </trkpt>
      <trkpt lat="59.013648642061" lon="15.182156508569">
        <ele>105.8</ele>
        <time>2018-08-05T18:10:49Z</time>
      </trkpt>
      <trkpt lat="59.013475388188" lon="15.182004460903">
        <ele>106.2</ele>
        <time>2018-08-05T18:10:52Z</time>
      </trkpt>
      <trkpt lat="59.013298446279" lon="15.181857358558">
        <ele>106</ele>
        <time>2018-08-05T18:10:55Z</time>
      </trkpt>
      <trkpt lat="59.013112116642" lon="15.18169374387">
        <ele>105.6</ele>
        <time>2018-08-05T18:10:58Z</time>
      </trkpt>
      <trkpt lat="59.012921344598" lon="15.181522585472">
        <ele>105.6</ele>
        <time>2018-08-05T18:11:01Z</time>
      </trkpt>
      <trkpt lat="59.012733087124" lon="15.181356288576">
        <ele>105.4</ele>
        <time>2018-08-05T18:11:04Z</time>
      </trkpt>
      <trkpt lat="59.012552960093" lon="15.181202061616">
        <ele>105.6</ele>
        <time>2018-08-05T18:11:07Z</time>
      </trkpt>
      <trkpt lat="59.012381717876" lon="15.181060658963">
        <ele>105.8</ele>
        <time>2018-08-05T18:11:10Z</time>
      </trkpt>
      <trkpt lat="59.012215169523" lon="15.180929146952">
        <ele>106</ele>
        <time>2018-08-05T18:11:13Z</time>
      </trkpt>
      <trkpt lat="59.012046441876" lon="15.180803921366">
        <ele>106.4</ele>
        <time>2018-08-05T18:11:16Z</time>
      </trkpt>
      <trkpt lat="59.011825746449" lon="15.180636451004">
        <ele>106.8</ele>
        <time>2018-08-05T18:11:20Z</time>
      </trkpt>
      <trkpt lat="59.011617456234" lon="15.180489516297">
        <ele>107</ele>
        <time>2018-08-05T18:11:24Z</time>
      </trkpt>
      <trkpt lat="59.011415536263" lon="15.180334786423">
        <ele>107.4</ele>
        <time>2018-08-05T18:11:28Z</time>
      </trkpt>
      <trkpt lat="59.011287796107" lon="15.180034211489">
        <ele>107.4</ele>
        <time>2018-08-05T18:11:32Z</time>
      </trkpt>
      <trkpt lat="59.011336746403" lon="15.179629449538">
        <ele>107.6</ele>
        <time>2018-08-05T18:11:36Z</time>
      </trkpt>
      <trkpt lat="59.01142081686" lon="15.179245642337">
        <ele>107.8</ele>
        <time>2018-08-05T18:11:40Z</time>
      </trkpt>
      <trkpt lat="59.011496170141" lon="15.178873737434">
        <ele>107.4</ele>
        <time>2018-08-05T18:11:44Z</time>
      </trkpt>
      <trkpt lat="59.011564398807" lon="15.178498898866">
        <ele>107.4</ele>
        <time>2018-08-05T18:11:48Z</time>
      </trkpt>
      <trkpt lat="59.011652073481" lon="15.178098076408">
        <ele>107.2</ele>
        <time>2018-08-05T18:11:52Z</time>
      </trkpt>
      <trkpt lat="59.011735473386" lon="15.177699349425">
        <ele>107.4</ele>
        <time>2018-08-05T18:11:56Z</time>
      </trkpt>
      <trkpt lat="59.011811581038" lon="15.177327360703">
        <ele>107</ele>
        <time>2018-08-05T18:12:00Z</time>
      </trkpt>
      <trkpt lat="59.011886263767" lon="15.176944391692">
        <ele>106</ele>
        <time>2018-08-05T18:12:04Z</time>
      </trkpt>
      <trkpt lat="59.011967652016" lon="15.176531080203">
        <ele>104.8</ele>
        <time>2018-08-05T18:12:08Z</time>
      </trkpt>
      <trkpt lat="59.012045100772" lon="15.176099077077">
        <ele>104.2</ele>
        <time>2018-08-05T18:12:12Z</time>
      </trkpt>
      <trkpt lat="59.01209220705" lon="15.175782744171">
        <ele>104</ele>
        <time>2018-08-05T18:12:15Z</time>
      </trkpt>
      <trkpt lat="59.01213495474" lon="15.175326601173">
        <ele>102.6</ele>
        <time>2018-08-05T18:12:19Z</time>
      </trkpt>
      <trkpt lat="59.012168566159" lon="15.174961737066">
        <ele>101.8</ele>
        <time>2018-08-05T18:12:22Z</time>
      </trkpt>
      <trkpt lat="59.012191281108" lon="15.174612295655">
        <ele>101</ele>
        <time>2018-08-05T18:12:25Z</time>
      </trkpt>
      <trkpt lat="59.012193879497" lon="15.174499223824">
        <ele>101</ele>
        <time>2018-08-05T18:12:26Z</time>
      </trkpt>
      <trkpt lat="59.012184072674" lon="15.174064622309">
        <ele>100.4</ele>
        <time>2018-08-05T18:12:30Z</time>
      </trkpt>
      <trkpt lat="59.012136714939" lon="15.173610658605">
        <ele>100.2</ele>
        <time>2018-08-05T18:12:34Z</time>
      </trkpt>
      <trkpt lat="59.012093464335" lon="15.173254595493">
        <ele>99.8</ele>
        <time>2018-08-05T18:12:37Z</time>
      </trkpt>
      <trkpt lat="59.012050465188" lon="15.172890485757">
        <ele>99.8</ele>
        <time>2018-08-05T18:12:40Z</time>
      </trkpt>
      <trkpt lat="59.012006963127" lon="15.17253567993">
        <ele>99.6</ele>
        <time>2018-08-05T18:12:43Z</time>
      </trkpt>
      <trkpt lat="59.011928676181" lon="15.172113399808">
        <ele>99.4</ele>
        <time>2018-08-05T18:12:47Z</time>
      </trkpt>
      <trkpt lat="59.011843683715" lon="15.17167988794">
        <ele>99.8</ele>
        <time>2018-08-05T18:12:51Z</time>
      </trkpt>
      <trkpt lat="59.011780065094" lon="15.171354251125">
        <ele>99.6</ele>
        <time>2018-08-05T18:12:54Z</time>
      </trkpt>
      <trkpt lat="59.011700185587" lon="15.170932054822">
        <ele>100</ele>
        <time>2018-08-05T18:12:58Z</time>
      </trkpt>
      <trkpt lat="59.011619803166" lon="15.170498123859">
        <ele>100.6</ele>
        <time>2018-08-05T18:13:02Z</time>
      </trkpt>
      <trkpt lat="59.011521651117" lon="15.170105934758">
        <ele>101.2</ele>
        <time>2018-08-05T18:13:06Z</time>
      </trkpt>
      <trkpt lat="59.011396593169" lon="15.169761187211">
        <ele>102.4</ele>
        <time>2018-08-05T18:13:10Z</time>
      </trkpt>
      <trkpt lat="59.011271451402" lon="15.169373105241">
        <ele>102</ele>
        <time>2018-08-05T18:13:14Z</time>
      </trkpt>
      <trkpt lat="59.011157876657" lon="15.169005475107">
        <ele>102</ele>
        <time>2018-08-05T18:13:18Z</time>
      </trkpt>
      <trkpt lat="59.011017144556" lon="15.168661733388">
        <ele>102</ele>
        <time>2018-08-05T18:13:22Z</time>
      </trkpt>
      <trkpt lat="59.010893762988" lon="15.168395524244">
        <ele>101.6</ele>
        <time>2018-08-05T18:13:25Z</time>
      </trkpt>
      <trkpt lat="59.010853194592" lon="15.168302736611">
        <ele>101.8</ele>
        <time>2018-08-05T18:13:26Z</time>
      </trkpt>
      <trkpt lat="59.010764765547" lon="15.167989002094">
        <ele>101.8</ele>
        <time>2018-08-05T18:13:29Z</time>
      </trkpt>
      <trkpt lat="59.010746744462" lon="15.167877606643">
        <ele>101.8</ele>
        <time>2018-08-05T18:13:30Z</time>
      </trkpt>
      <trkpt lat="59.01067231319" lon="15.167455661797">
        <ele>102</ele>
        <time>2018-08-05T18:13:34Z</time>
      </trkpt>
      <trkpt lat="59.010552787296" lon="15.167076464641">
        <ele>102.4</ele>
        <time>2018-08-05T18:13:38Z</time>
      </trkpt>
      <trkpt lat="59.010417419611" lon="15.166698440951">
        <ele>103</ele>
        <time>2018-08-05T18:13:42Z</time>
      </trkpt>
      <trkpt lat="59.01029596588" lon="15.166346401151">
        <ele>104.2</ele>
        <time>2018-08-05T18:13:46Z</time>
      </trkpt>
      <trkpt lat="59.010185911533" lon="15.166028727141">
        <ele>103.6</ele>
        <time>2018-08-05T18:13:50Z</time>
      </trkpt>
      <trkpt lat="59.01000176119" lon="15.165815575424">
        <ele>103.2</ele>
        <time>2018-08-05T18:13:54Z</time>
      </trkpt>
      <trkpt lat="59.009795734088" lon="15.165595382911">
        <ele>102.8</ele>
        <time>2018-08-05T18:13:58Z</time>
      </trkpt>
      <trkpt lat="59.009600016723" lon="15.165370999448">
        <ele>103.2</ele>
        <time>2018-08-05T18:14:02Z</time>
      </trkpt>
      <trkpt lat="59.009555089739" lon="15.165305872085">
        <ele>103.4</ele>
        <time>2018-08-05T18:14:03Z</time>
      </trkpt>
      <trkpt lat="59.00950974366" lon="15.164982833659">
        <ele>103.6</ele>
        <time>2018-08-05T18:14:07Z</time>
      </trkpt>
      <trkpt lat="59.009658438566" lon="15.164780326955">
        <ele>103.8</ele>
        <time>2018-08-05T18:14:11Z</time>
      </trkpt>
      <trkpt lat="59.009708143233" lon="15.164736741075">
        <ele>103.4</ele>
        <time>2018-08-05T18:14:12Z</time>
      </trkpt>
      <trkpt lat="59.009880810373" lon="15.164556446406">
        <ele>103.2</ele>
        <time>2018-08-05T18:14:16Z</time>
      </trkpt>
      <trkpt lat="59.010056578816" lon="15.164396268297">
        <ele>103</ele>
        <time>2018-08-05T18:14:21Z</time>
      </trkpt>
      <trkpt lat="59.010237963132" lon="15.164247070477">
        <ele>104.8</ele>
        <time>2018-08-05T18:14:26Z</time>
      </trkpt>
      <trkpt lat="59.010428735176" lon="15.164086640911">
        <ele>105.4</ele>
        <time>2018-08-05T18:14:30Z</time>
      </trkpt>
      <trkpt lat="59.010643144178" lon="15.163900395093">
        <ele>105.2</ele>
        <time>2018-08-05T18:14:34Z</time>
      </trkpt>
      <trkpt lat="59.010815476042" lon="15.163755723499">
        <ele>105.2</ele>
        <time>2018-08-05T18:14:37Z</time>
      </trkpt>
      <trkpt lat="59.01099333996" lon="15.163597976141">
        <ele>105</ele>
        <time>2018-08-05T18:14:40Z</time>
      </trkpt>
      <trkpt lat="59.011172628801" lon="15.163433858539">
        <ele>105</ele>
        <time>2018-08-05T18:14:43Z</time>
      </trkpt>
      <trkpt lat="59.011337165498" lon="15.16324769654">
        <ele>105</ele>
        <time>2018-08-05T18:14:46Z</time>
      </trkpt>
      <trkpt lat="59.011492146829" lon="15.163061199265">
        <ele>104.8</ele>
        <time>2018-08-05T18:14:49Z</time>
      </trkpt>
      <trkpt lat="59.011646625246" lon="15.162856429448">
        <ele>104.6</ele>
        <time>2018-08-05T18:14:52Z</time>
      </trkpt>
      <trkpt lat="59.011793727591" lon="15.162636907487">
        <ele>104.2</ele>
        <time>2018-08-05T18:14:55Z</time>
      </trkpt>
      <trkpt lat="59.011932867131" lon="15.162404142124">
        <ele>103</ele>
        <time>2018-08-05T18:14:58Z</time>
      </trkpt>
      <trkpt lat="59.012058008898" lon="15.162154026228">
        <ele>101</ele>
        <time>2018-08-05T18:15:01Z</time>
      </trkpt>
      <trkpt lat="59.012172757109" lon="15.16187474132">
        <ele>99.6</ele>
        <time>2018-08-05T18:15:04Z</time>
      </trkpt>
      <trkpt lat="59.012288594967" lon="15.161566957952">
        <ele>98.4</ele>
        <time>2018-08-05T18:15:07Z</time>
      </trkpt>
      <trkpt lat="59.012385741188" lon="15.161267137389">
        <ele>97.4</ele>
        <time>2018-08-05T18:15:10Z</time>
      </trkpt>
      <trkpt lat="59.012417257132" lon="15.161165045847">
        <ele>97.6</ele>
        <time>2018-08-05T18:15:11Z</time>
      </trkpt>
      <trkpt lat="59.012507781652" lon="15.160862710714">
        <ele>97.8</ele>
        <time>2018-08-05T18:15:14Z</time>
      </trkpt>
      <trkpt lat="59.012595288688" lon="15.160556771364">
        <ele>99.2</ele>
        <time>2018-08-05T18:15:17Z</time>
      </trkpt>
      <trkpt lat="59.012704253388" lon="15.160152428508">
        <ele>99.2</ele>
        <time>2018-08-05T18:15:21Z</time>
      </trkpt>
      <trkpt lat="59.012821516169" lon="15.159748672385">
        <ele>100</ele>
        <time>2018-08-05T18:15:25Z</time>
      </trkpt>
      <trkpt lat="59.012911370137" lon="15.159444325596">
        <ele>99.6</ele>
        <time>2018-08-05T18:15:28Z</time>
      </trkpt>
      <trkpt lat="59.013007259073" lon="15.159120532799">
        <ele>99.2</ele>
        <time>2018-08-05T18:15:31Z</time>
      </trkpt>
      <trkpt lat="59.013084288734" lon="15.15876421823">
        <ele>98</ele>
        <time>2018-08-05T18:15:34Z</time>
      </trkpt>
      <trkpt lat="59.013147907355" lon="15.158418800131">
        <ele>97.2</ele>
        <time>2018-08-05T18:15:37Z</time>
      </trkpt>
      <trkpt lat="59.01322208717" lon="15.158085032873">
        <ele>97</ele>
        <time>2018-08-05T18:15:40Z</time>
      </trkpt>
      <trkpt lat="59.01331344988" lon="15.157679768008">
        <ele>97</ele>
        <time>2018-08-05T18:15:44Z</time>
      </trkpt>
      <trkpt lat="59.013383187288" lon="15.157309204209">
        <ele>97</ele>
        <time>2018-08-05T18:15:48Z</time>
      </trkpt>
      <trkpt lat="59.013440519484" lon="15.156942496084">
        <ele>96.8</ele>
        <time>2018-08-05T18:15:52Z</time>
      </trkpt>
      <trkpt lat="59.013473460351" lon="15.156640999141">
        <ele>97.6</ele>
        <time>2018-08-05T18:15:55Z</time>
      </trkpt>
      <trkpt lat="59.013538168619" lon="15.156251576067">
        <ele>98.6</ele>
        <time>2018-08-05T18:15:59Z</time>
      </trkpt>
      <trkpt lat="59.013597261014" lon="15.155849747781">
        <ele>99</ele>
        <time>2018-08-05T18:16:03Z</time>
      </trkpt>
      <trkpt lat="59.01367135701" lon="15.155483877846">
        <ele>99.4</ele>
        <time>2018-08-05T18:16:07Z</time>
      </trkpt>
      <trkpt lat="59.013722318962" lon="15.155317413312">
        <ele>99.8</ele>
        <time>2018-08-05T18:16:09Z</time>
      </trkpt>
      <trkpt lat="59.013860368855" lon="15.155023795355">
        <ele>100.2</ele>
        <time>2018-08-05T18:16:13Z</time>
      </trkpt>
      <trkpt lat="59.014013422349" lon="15.15477024288">
        <ele>101</ele>
        <time>2018-08-05T18:16:17Z</time>
      </trkpt>
      <trkpt lat="59.014169660965" lon="15.154546362331">
        <ele>101.8</ele>
        <time>2018-08-05T18:16:21Z</time>
      </trkpt>
      <trkpt lat="59.01433185073" lon="15.154347711301">
        <ele>101.8</ele>
        <time>2018-08-05T18:16:25Z</time>
      </trkpt>
      <trkpt lat="59.014503344404" lon="15.154163560958">
        <ele>102</ele>
        <time>2018-08-05T18:16:29Z</time>
      </trkpt>
      <trkpt lat="59.014676095363" lon="15.153983350108">
        <ele>102.6</ele>
        <time>2018-08-05T18:16:33Z</time>
      </trkpt>
      <trkpt lat="59.01484063206" lon="15.15381638266">
        <ele>103.2</ele>
        <time>2018-08-05T18:16:37Z</time>
      </trkpt>
      <trkpt lat="59.015008353879" lon="15.153643212606">
        <ele>104.2</ele>
        <time>2018-08-05T18:16:41Z</time>
      </trkpt>
      <trkpt lat="59.015175656603" lon="15.153474568778">
        <ele>104.8</ele>
        <time>2018-08-05T18:16:45Z</time>
      </trkpt>
      <trkpt lat="59.015338684558" lon="15.153316067049">
        <ele>105</ele>
        <time>2018-08-05T18:16:49Z</time>
      </trkpt>
      <trkpt lat="59.015508334214" lon="15.153173323292">
        <ele>105.8</ele>
        <time>2018-08-05T18:16:53Z</time>
      </trkpt>
      <trkpt lat="59.015552003913" lon="15.153143819004">
        <ele>106.2</ele>
        <time>2018-08-05T18:16:54Z</time>
      </trkpt>
      <trkpt lat="59.015756438454" lon="15.153043906756">
        <ele>107.4</ele>
        <time>2018-08-05T18:16:59Z</time>
      </trkpt>
      <trkpt lat="59.015959364253" lon="15.153005350016">
        <ele>107.6</ele>
        <time>2018-08-05T18:17:04Z</time>
      </trkpt>
      <trkpt lat="59.016181149327" lon="15.152977605927">
        <ele>107.6</ele>
        <time>2018-08-05T18:17:09Z</time>
      </trkpt>
      <trkpt lat="59.016399749279" lon="15.152965284534">
        <ele>108</ele>
        <time>2018-08-05T18:17:14Z</time>
      </trkpt>
      <trkpt lat="59.016614325919" lon="15.152957992281">
        <ele>108.8</ele>
        <time>2018-08-05T18:17:19Z</time>
      </trkpt>
      <trkpt lat="59.016824292514" lon="15.152956734996">
        <ele>109.8</ele>
        <time>2018-08-05T18:17:24Z</time>
      </trkpt>
      <trkpt lat="59.017002826984" lon="15.15294634144">
        <ele>110.2</ele>
        <time>2018-08-05T18:17:28Z</time>
      </trkpt>
      <trkpt lat="59.017227126628" lon="15.152937288988">
        <ele>109.6</ele>
        <time>2018-08-05T18:17:33Z</time>
      </trkpt>
      <trkpt lat="59.017416725206" lon="15.152935696427">
        <ele>110</ele>
        <time>2018-08-05T18:17:37Z</time>
      </trkpt>
      <trkpt lat="59.017623087584" lon="15.152948688372">
        <ele>110.4</ele>
        <time>2018-08-05T18:17:41Z</time>
      </trkpt>
      <trkpt lat="59.017827689763" lon="15.152943407775">
        <ele>110.4</ele>
        <time>2018-08-05T18:17:45Z</time>
      </trkpt>
      <trkpt lat="59.018031369933" lon="15.152911472736">
        <ele>112</ele>
        <time>2018-08-05T18:17:49Z</time>
      </trkpt>
      <trkpt lat="59.018253657921" lon="15.152792030661">
        <ele>112</ele>
        <time>2018-08-05T18:17:53Z</time>
      </trkpt>
      <trkpt lat="59.018309816651" lon="15.152749199152">
        <ele>111.6</ele>
        <time>2018-08-05T18:17:54Z</time>
      </trkpt>
      <trkpt lat="59.018483573438" lon="15.152623722109">
        <ele>111</ele>
        <time>2018-08-05T18:17:57Z</time>
      </trkpt>
      <trkpt lat="59.018660431528" lon="15.152483157646">
        <ele>110.6</ele>
        <time>2018-08-05T18:18:00Z</time>
      </trkpt>
      <trkpt lat="59.018826812243" lon="15.15233278636">
        <ele>110.2</ele>
        <time>2018-08-05T18:18:03Z</time>
      </trkpt>
      <trkpt lat="59.019026385282" lon="15.152091890554">
        <ele>109.6</ele>
        <time>2018-08-05T18:18:07Z</time>
      </trkpt>
      <trkpt lat="59.019176672749" lon="15.151817970062">
        <ele>109.2</ele>
        <time>2018-08-05T18:18:11Z</time>
      </trkpt>
      <trkpt lat="59.019303323258" lon="15.151528878331">
        <ele>110.2</ele>
        <time>2018-08-05T18:18:15Z</time>
      </trkpt>
      <trkpt lat="59.019416059813" lon="15.151218748031">
        <ele>111.8</ele>
        <time>2018-08-05T18:18:19Z</time>
      </trkpt>
      <trkpt lat="59.019509601817" lon="15.150897637442">
        <ele>112.8</ele>
        <time>2018-08-05T18:18:23Z</time>
      </trkpt>
      <trkpt lat="59.019582943442" lon="15.150547525479">
        <ele>113.2</ele>
        <time>2018-08-05T18:18:27Z</time>
      </trkpt>
      <trkpt lat="59.019641868199" lon="15.150194312213">
        <ele>114.2</ele>
        <time>2018-08-05T18:18:31Z</time>
      </trkpt>
      <trkpt lat="59.019688220106" lon="15.149851660141">
        <ele>115</ele>
        <time>2018-08-05T18:18:35Z</time>
      </trkpt>
      <trkpt lat="59.019702720793" lon="15.149489310604">
        <ele>115.6</ele>
        <time>2018-08-05T18:18:39Z</time>
      </trkpt>
      <trkpt lat="59.019685454079" lon="15.149108688525">
        <ele>115.4</ele>
        <time>2018-08-05T18:18:43Z</time>
      </trkpt>
      <trkpt lat="59.019686711364" lon="15.148708201343">
        <ele>115.6</ele>
        <time>2018-08-05T18:18:47Z</time>
      </trkpt>
      <trkpt lat="59.019730297244" lon="15.148314587319">
        <ele>115.6</ele>
        <time>2018-08-05T18:18:51Z</time>
      </trkpt>
      <trkpt lat="59.019829119845" lon="15.147945448443">
        <ele>115.2</ele>
        <time>2018-08-05T18:18:55Z</time>
      </trkpt>
      <trkpt lat="59.019981502787" lon="15.147635401962">
        <ele>114.8</ele>
        <time>2018-08-05T18:18:59Z</time>
      </trkpt>
      <trkpt lat="59.020166658958" lon="15.147358715443">
        <ele>114.2</ele>
        <time>2018-08-05T18:19:03Z</time>
      </trkpt>
      <trkpt lat="59.020350557844" lon="15.147161908431">
        <ele>113</ele>
        <time>2018-08-05T18:19:06Z</time>
      </trkpt>
      <trkpt lat="59.020568068149" lon="15.146964095591">
        <ele>111.6</ele>
        <time>2018-08-05T18:19:09Z</time>
      </trkpt>
      <trkpt lat="59.020807119937" lon="15.146774664651">
        <ele>110.8</ele>
        <time>2018-08-05T18:19:12Z</time>
      </trkpt>
      <trkpt lat="59.021035023798" lon="15.146600907864">
        <ele>110.6</ele>
        <time>2018-08-05T18:19:15Z</time>
      </trkpt>
      <trkpt lat="59.021251779732" lon="15.146471910423">
        <ele>110.8</ele>
        <time>2018-08-05T18:19:18Z</time>
      </trkpt>
      <trkpt lat="59.021454454074" lon="15.146391360364">
        <ele>111.6</ele>
        <time>2018-08-05T18:19:21Z</time>
      </trkpt>
      <trkpt lat="59.021645645213" lon="15.146334111987">
        <ele>112.2</ele>
        <time>2018-08-05T18:19:24Z</time>
      </trkpt>
      <trkpt lat="59.021838093637" lon="15.146276193058">
        <ele>112.8</ele>
        <time>2018-08-05T18:19:27Z</time>
      </trkpt>
      <trkpt lat="59.022022663075" lon="15.146218609405">
        <ele>113.4</ele>
        <time>2018-08-05T18:19:30Z</time>
      </trkpt>
      <trkpt lat="59.0222552608" lon="15.146144681047">
        <ele>114.2</ele>
        <time>2018-08-05T18:19:34Z</time>
      </trkpt>
      <trkpt lat="59.022491462742" lon="15.146074943639">
        <ele>113.6</ele>
        <time>2018-08-05T18:19:38Z</time>
      </trkpt>
      <trkpt lat="59.022690532867" lon="15.146001518195">
        <ele>113</ele>
        <time>2018-08-05T18:19:41Z</time>
      </trkpt>
      <trkpt lat="59.022892871933" lon="15.14590806001">
        <ele>112.6</ele>
        <time>2018-08-05T18:19:44Z</time>
      </trkpt>
      <trkpt lat="59.023085739452" lon="15.145775039257">
        <ele>113</ele>
        <time>2018-08-05T18:19:47Z</time>
      </trkpt>
      <trkpt lat="59.023266369397" lon="15.145606982162">
        <ele>113</ele>
        <time>2018-08-05T18:19:50Z</time>
      </trkpt>
      <trkpt lat="59.023420847814" lon="15.145368181831">
        <ele>113.6</ele>
        <time>2018-08-05T18:19:53Z</time>
      </trkpt>
      <trkpt lat="59.023554706757" lon="15.14509501571">
        <ele>113.8</ele>
        <time>2018-08-05T18:19:56Z</time>
      </trkpt>
      <trkpt lat="59.02368437475" lon="15.144827884557">
        <ele>113.8</ele>
        <time>2018-08-05T18:19:59Z</time>
      </trkpt>
      <trkpt lat="59.023811025259" lon="15.144567207467">
        <ele>113.8</ele>
        <time>2018-08-05T18:20:02Z</time>
      </trkpt>
      <trkpt lat="59.023940190338" lon="15.144316421019">
        <ele>113.6</ele>
        <time>2018-08-05T18:20:05Z</time>
      </trkpt>
      <trkpt lat="59.024075725661" lon="15.144065634571">
        <ele>112.8</ele>
        <time>2018-08-05T18:20:08Z</time>
      </trkpt>
      <trkpt lat="59.024223498558" lon="15.143790372975">
        <ele>112</ele>
        <time>2018-08-05T18:20:11Z</time>
      </trkpt>
      <trkpt lat="59.024367751057" lon="15.143504214909">
        <ele>111.2</ele>
        <time>2018-08-05T18:20:14Z</time>
      </trkpt>
      <trkpt lat="59.024496077946" lon="15.143237838127">
        <ele>110.4</ele>
        <time>2018-08-05T18:20:17Z</time>
      </trkpt>
      <trkpt lat="59.02461979479" lon="15.142958050305">
        <ele>110.8</ele>
        <time>2018-08-05T18:20:20Z</time>
      </trkpt>
      <trkpt lat="59.024737895761" lon="15.142645153978">
        <ele>110.2</ele>
        <time>2018-08-05T18:20:23Z</time>
      </trkpt>
      <trkpt lat="59.024853565981" lon="15.142330162176">
        <ele>109.8</ele>
        <time>2018-08-05T18:20:26Z</time>
      </trkpt>
      <trkpt lat="59.024980551766" lon="15.142049284707">
        <ele>108.8</ele>
        <time>2018-08-05T18:20:29Z</time>
      </trkpt>
      <trkpt lat="59.025026400759" lon="15.141966220078">
        <ele>108.2</ele>
        <time>2018-08-05T18:20:30Z</time>
      </trkpt>
      <trkpt lat="59.025181885004" lon="15.141751978714">
        <ele>106.8</ele>
        <time>2018-08-05T18:20:33Z</time>
      </trkpt>
      <trkpt lat="59.025346254063" lon="15.141564978525">
        <ele>105.8</ele>
        <time>2018-08-05T18:20:36Z</time>
      </trkpt>
      <trkpt lat="59.025553035536" lon="15.141358280871">
        <ele>104.4</ele>
        <time>2018-08-05T18:20:40Z</time>
      </trkpt>
      <trkpt lat="59.025758475905" lon="15.141149739199">
        <ele>104.4</ele>
        <time>2018-08-05T18:20:44Z</time>
      </trkpt>
      <trkpt lat="59.025925778629" lon="15.141005821976">
        <ele>104.6</ele>
        <time>2018-08-05T18:20:47Z</time>
      </trkpt>
      <trkpt lat="59.02614613878" lon="15.140840027994">
        <ele>104.4</ele>
        <time>2018-08-05T18:20:51Z</time>
      </trkpt>
      <trkpt lat="59.026316458988" lon="15.140713209847">
        <ele>104.2</ele>
        <time>2018-08-05T18:20:54Z</time>
      </trkpt>
      <trkpt lat="59.026493233259" lon="15.140560826905">
        <ele>104.4</ele>
        <time>2018-08-05T18:20:57Z</time>
      </trkpt>
      <trkpt lat="59.026660033069" lon="15.140402408995">
        <ele>105.8</ele>
        <time>2018-08-05T18:21:00Z</time>
      </trkpt>
      <trkpt lat="59.026860192841" lon="15.140145000846">
        <ele>107</ele>
        <time>2018-08-05T18:21:04Z</time>
      </trkpt>
      <trkpt lat="59.027002852779" lon="15.139908379809">
        <ele>107.6</ele>
        <time>2018-08-05T18:21:07Z</time>
      </trkpt>
      <trkpt lat="59.027146267088" lon="15.139682403785">
        <ele>108.4</ele>
        <time>2018-08-05T18:21:10Z</time>
      </trkpt>
      <trkpt lat="59.027296051641" lon="15.13946908443">
        <ele>108.8</ele>
        <time>2018-08-05T18:21:13Z</time>
      </trkpt>
      <trkpt lat="59.027489338255" lon="15.139224249131">
        <ele>109.2</ele>
        <time>2018-08-05T18:21:17Z</time>
      </trkpt>
      <trkpt lat="59.027655802789" lon="15.139080834822">
        <ele>109.8</ele>
        <time>2018-08-05T18:21:20Z</time>
      </trkpt>
      <trkpt lat="59.027839869313" lon="15.138986538447">
        <ele>110</ele>
        <time>2018-08-05T18:21:23Z</time>
      </trkpt>
      <trkpt lat="59.028032401556" lon="15.138925182939">
        <ele>110.8</ele>
        <time>2018-08-05T18:21:26Z</time>
      </trkpt>
      <trkpt lat="59.028217473908" lon="15.13891671722">
        <ele>110.4</ele>
        <time>2018-08-05T18:21:29Z</time>
      </trkpt>
      <trkpt lat="59.028403803545" lon="15.13894940663">
        <ele>110.4</ele>
        <time>2018-08-05T18:21:32Z</time>
      </trkpt>
      <trkpt lat="59.028593234485" lon="15.139018808762">
        <ele>110</ele>
        <time>2018-08-05T18:21:35Z</time>
      </trkpt>
      <trkpt lat="59.028784257986" lon="15.139108578911">
        <ele>109.2</ele>
        <time>2018-08-05T18:21:38Z</time>
      </trkpt>
      <trkpt lat="59.028965977578" lon="15.139204467847">
        <ele>108.4</ele>
        <time>2018-08-05T18:21:41Z</time>
      </trkpt>
      <trkpt lat="59.029192372697" lon="15.139313600185">
        <ele>107.2</ele>
        <time>2018-08-05T18:21:45Z</time>
      </trkpt>
      <trkpt lat="59.029426562983" lon="15.139393479692">
        <ele>106.2</ele>
        <time>2018-08-05T18:21:49Z</time>
      </trkpt>
      <trkpt lat="59.029626555117" lon="15.139383756688">
        <ele>106</ele>
        <time>2018-08-05T18:21:52Z</time>
      </trkpt>
      <trkpt lat="59.029821350473" lon="15.139335644582">
        <ele>106.6</ele>
        <time>2018-08-05T18:21:55Z</time>
      </trkpt>
      <trkpt lat="59.030009859404" lon="15.139254004876">
        <ele>107.4</ele>
        <time>2018-08-05T18:21:58Z</time>
      </trkpt>
      <trkpt lat="59.030187974779" lon="15.139116709354">
        <ele>107.2</ele>
        <time>2018-08-05T18:22:01Z</time>
      </trkpt>
      <trkpt lat="59.030357121521" lon="15.138929625346">
        <ele>107.4</ele>
        <time>2018-08-05T18:22:04Z</time>
      </trkpt>
      <trkpt lat="59.030525513892" lon="15.138733572705">
        <ele>107.4</ele>
        <time>2018-08-05T18:22:07Z</time>
      </trkpt>
      <trkpt lat="59.030695498824" lon="15.138536011322">
        <ele>107.6</ele>
        <time>2018-08-05T18:22:10Z</time>
      </trkpt>
      <trkpt lat="59.030870764353" lon="15.138360410517">
        <ele>108</ele>
        <time>2018-08-05T18:22:13Z</time>
      </trkpt>
      <trkpt lat="59.031047454805" lon="15.138208949584">
        <ele>108.6</ele>
        <time>2018-08-05T18:22:16Z</time>
      </trkpt>
      <trkpt lat="59.03122137923" lon="15.138094369011">
        <ele>109</ele>
        <time>2018-08-05T18:22:19Z</time>
      </trkpt>
      <trkpt lat="59.031402260632" lon="15.138037791186">
        <ele>109.6</ele>
        <time>2018-08-05T18:22:22Z</time>
      </trkpt>
      <trkpt lat="59.031583142034" lon="15.138021278843">
        <ele>110.2</ele>
        <time>2018-08-05T18:22:25Z</time>
      </trkpt>
      <trkpt lat="59.031764693988" lon="15.138017087893">
        <ele>111.2</ele>
        <time>2018-08-05T18:22:28Z</time>
      </trkpt>
      <trkpt lat="59.031944401924" lon="15.138002335749">
        <ele>111.6</ele>
        <time>2018-08-05T18:22:31Z</time>
      </trkpt>
      <trkpt lat="59.032126456792" lon="15.137995294953">
        <ele>112</ele>
        <time>2018-08-05T18:22:34Z</time>
      </trkpt>
      <trkpt lat="59.032352768092" lon="15.138020105377">
        <ele>113.2</ele>
        <time>2018-08-05T18:22:38Z</time>
      </trkpt>
      <trkpt lat="59.03254991038" lon="15.13809193826">
        <ele>114.2</ele>
        <time>2018-08-05T18:22:42Z</time>
      </trkpt>
      <trkpt lat="59.032745543926" lon="15.138174416156">
        <ele>115.2</ele>
        <time>2018-08-05T18:22:46Z</time>
      </trkpt>
      <trkpt lat="59.032955342883" lon="15.138238956786">
        <ele>115</ele>
        <time>2018-08-05T18:22:50Z</time>
      </trkpt>
      <trkpt lat="59.033191293368" lon="15.138260833545">
        <ele>114.6</ele>
        <time>2018-08-05T18:22:54Z</time>
      </trkpt>
      <trkpt lat="59.033385669629" lon="15.138231496895">
        <ele>113.8</ele>
        <time>2018-08-05T18:22:57Z</time>
      </trkpt>
      <trkpt lat="59.033587924876" lon="15.138082550532">
        <ele>113</ele>
        <time>2018-08-05T18:23:00Z</time>
      </trkpt>
      <trkpt lat="59.033651878773" lon="15.138009376545">
        <ele>112.6</ele>
        <time>2018-08-05T18:23:01Z</time>
      </trkpt>
      <trkpt lat="59.033838124591" lon="15.137800080502">
        <ele>111.8</ele>
        <time>2018-08-05T18:23:04Z</time>
      </trkpt>
      <trkpt lat="59.033898725728" lon="15.13774157484">
        <ele>111.8</ele>
        <time>2018-08-05T18:23:05Z</time>
      </trkpt>
      <trkpt lat="59.034085809736" lon="15.137620372566">
        <ele>111.6</ele>
        <time>2018-08-05T18:23:08Z</time>
      </trkpt>
      <trkpt lat="59.034276078866" lon="15.137545270742">
        <ele>112.6</ele>
        <time>2018-08-05T18:23:11Z</time>
      </trkpt>
      <trkpt lat="59.03446349815" lon="15.13749514698">
        <ele>113.4</ele>
        <time>2018-08-05T18:23:14Z</time>
      </trkpt>
      <trkpt lat="59.034694335676" lon="15.137435719309">
        <ele>114.2</ele>
        <time>2018-08-05T18:23:18Z</time>
      </trkpt>
      <trkpt lat="59.034912600352" lon="15.137382494244">
        <ele>115.4</ele>
        <time>2018-08-05T18:23:22Z</time>
      </trkpt>
      <trkpt lat="59.03512818282" lon="15.137324407677">
        <ele>116.6</ele>
        <time>2018-08-05T18:23:26Z</time>
      </trkpt>
      <trkpt lat="59.035179396229" lon="15.137302028004">
        <ele>116.8</ele>
        <time>2018-08-05T18:23:27Z</time>
      </trkpt>
      <trkpt lat="59.035388440815" lon="15.137165151577">
        <ele>117.8</ele>
        <time>2018-08-05T18:23:31Z</time>
      </trkpt>
      <trkpt lat="59.035542416318" lon="15.137030286806">
        <ele>118.2</ele>
        <time>2018-08-05T18:23:34Z</time>
      </trkpt>
      <trkpt lat="59.03572832686" lon="15.136795425968">
        <ele>118</ele>
        <time>2018-08-05T18:23:38Z</time>
      </trkpt>
      <trkpt lat="59.035893031195" lon="15.136520834924">
        <ele>118.4</ele>
        <time>2018-08-05T18:23:42Z</time>
      </trkpt>
      <trkpt lat="59.036032841287" lon="15.136201316896">
        <ele>118.4</ele>
        <time>2018-08-05T18:23:46Z</time>
      </trkpt>
      <trkpt lat="59.036141051616" lon="15.135860089747">
        <ele>119.2</ele>
        <time>2018-08-05T18:23:50Z</time>
      </trkpt>
      <trkpt lat="59.036215734345" lon="15.135524227014">
        <ele>119.8</ele>
        <time>2018-08-05T18:23:54Z</time>
      </trkpt>
      <trkpt lat="59.036264014089" lon="15.135139078709">
        <ele>120</ele>
        <time>2018-08-05T18:23:59Z</time>
      </trkpt>
      <trkpt lat="59.036284801201" lon="15.134761557933">
        <ele>120</ele>
        <time>2018-08-05T18:24:05Z</time>
      </trkpt>
      <trkpt lat="59.036297541689" lon="15.134395771817">
        <ele>120.4</ele>
        <time>2018-08-05T18:25:09Z</time>
      </trkpt>
      <trkpt lat="59.036317239154" lon="15.134026549122">
        <ele>122</ele>
        <time>2018-08-05T18:25:14Z</time>
      </trkpt>
      <trkpt lat="59.036335679334" lon="15.1338473441">
        <ele>122.8</ele>
        <time>2018-08-05T18:25:16Z</time>
      </trkpt>
      <trkpt lat="59.036363842518" lon="15.133643412473">
        <ele>123.4</ele>
        <time>2018-08-05T18:25:18Z</time>
      </trkpt>
      <trkpt lat="59.036461826929" lon="15.133291707949">
        <ele>123.4</ele>
        <time>2018-08-05T18:25:22Z</time>
      </trkpt>
      <trkpt lat="59.036583615936" lon="15.133010998118">
        <ele>123.6</ele>
        <time>2018-08-05T18:25:26Z</time>
      </trkpt>
      <trkpt lat="59.036727616978" lon="15.132730707382">
        <ele>122.8</ele>
        <time>2018-08-05T18:25:30Z</time>
      </trkpt>
      <trkpt lat="59.036901876679" lon="15.132404483834">
        <ele>121</ele>
        <time>2018-08-05T18:25:34Z</time>
      </trkpt>
      <trkpt lat="59.037075884923" lon="15.132139783432">
        <ele>119.4</ele>
        <time>2018-08-05T18:25:37Z</time>
      </trkpt>
      <trkpt lat="59.037259448533" lon="15.131881704731">
        <ele>118.6</ele>
        <time>2018-08-05T18:25:40Z</time>
      </trkpt>
      <trkpt lat="59.037437815365" lon="15.131680203855">
        <ele>118</ele>
        <time>2018-08-05T18:25:43Z</time>
      </trkpt>
      <trkpt lat="59.037620540785" lon="15.13155405626">
        <ele>117.8</ele>
        <time>2018-08-05T18:25:46Z</time>
      </trkpt>
      <trkpt lat="59.037796560685" lon="15.131436877298">
        <ele>117.4</ele>
        <time>2018-08-05T18:25:49Z</time>
      </trkpt>
      <trkpt lat="59.037970149834" lon="15.131298324491">
        <ele>117.2</ele>
        <time>2018-08-05T18:25:52Z</time>
      </trkpt>
      <trkpt lat="59.038082970208" lon="15.131165387557">
        <ele>116.4</ele>
        <time>2018-08-05T18:25:54Z</time>
      </trkpt>
      <trkpt lat="59.038236442797" lon="15.13088937159">
        <ele>115.8</ele>
        <time>2018-08-05T18:25:57Z</time>
      </trkpt>
      <trkpt lat="59.038370637016" lon="15.130590473036">
        <ele>115.8</ele>
        <time>2018-08-05T18:26:00Z</time>
      </trkpt>
      <trkpt lat="59.038499383" lon="15.130314121793">
        <ele>116.2</ele>
        <time>2018-08-05T18:26:03Z</time>
      </trkpt>
      <trkpt lat="59.038635505056" lon="15.130053360884">
        <ele>116.4</ele>
        <time>2018-08-05T18:26:06Z</time>
      </trkpt>
      <trkpt lat="59.038727873594" lon="15.129888069816">
        <ele>116.8</ele>
        <time>2018-08-05T18:26:08Z</time>
      </trkpt>
      <trkpt lat="59.038907916806" lon="15.129617585903">
        <ele>118.2</ele>
        <time>2018-08-05T18:26:12Z</time>
      </trkpt>
      <trkpt lat="59.03906851401" lon="15.129380881047">
        <ele>118</ele>
        <time>2018-08-05T18:26:16Z</time>
      </trkpt>
      <trkpt lat="59.039230536137" lon="15.129122131794">
        <ele>118</ele>
        <time>2018-08-05T18:26:20Z</time>
      </trkpt>
      <trkpt lat="59.039403538553" lon="15.128809067829">
        <ele>117.2</ele>
        <time>2018-08-05T18:26:24Z</time>
      </trkpt>
      <trkpt lat="59.039539325333" lon="15.128549648024">
        <ele>116</ele>
        <time>2018-08-05T18:26:27Z</time>
      </trkpt>
      <trkpt lat="59.039673771009" lon="15.128220993725">
        <ele>114.2</ele>
        <time>2018-08-05T18:26:30Z</time>
      </trkpt>
      <trkpt lat="59.039823304105" lon="15.127818997801">
        <ele>112</ele>
        <time>2018-08-05T18:26:33Z</time>
      </trkpt>
      <trkpt lat="59.039989936277" lon="15.127417756248">
        <ele>111.2</ele>
        <time>2018-08-05T18:26:36Z</time>
      </trkpt>
      <trkpt lat="59.040155897897" lon="15.127065632629">
        <ele>111</ele>
        <time>2018-08-05T18:26:39Z</time>
      </trkpt>
      <trkpt lat="59.040312136513" lon="15.126728009697">
        <ele>110.6</ele>
        <time>2018-08-05T18:26:42Z</time>
      </trkpt>
      <trkpt lat="59.040459155039" lon="15.126355937156">
        <ele>110</ele>
        <time>2018-08-05T18:26:45Z</time>
      </trkpt>
      <trkpt lat="59.040564850798" lon="15.125927957342">
        <ele>109.4</ele>
        <time>2018-08-05T18:26:48Z</time>
      </trkpt>
      <trkpt lat="59.0406200037" lon="15.125467707213">
        <ele>108.6</ele>
        <time>2018-08-05T18:26:51Z</time>
      </trkpt>
      <trkpt lat="59.04067113329" lon="15.125166545546">
        <ele>107.6</ele>
        <time>2018-08-05T18:26:53Z</time>
      </trkpt>
      <trkpt lat="59.040805830423" lon="15.124745941804">
        <ele>107</ele>
        <time>2018-08-05T18:26:56Z</time>
      </trkpt>
      <trkpt lat="59.041003391806" lon="15.124450815105">
        <ele>106.4</ele>
        <time>2018-08-05T18:26:59Z</time>
      </trkpt>
      <trkpt lat="59.041212855487" lon="15.124198268458">
        <ele>105.6</ele>
        <time>2018-08-05T18:27:02Z</time>
      </trkpt>
      <trkpt lat="59.041355766882" lon="15.124037419797">
        <ele>105</ele>
        <time>2018-08-05T18:27:04Z</time>
      </trkpt>
      <trkpt lat="59.041576965223" lon="15.123780766019">
        <ele>104.2</ele>
        <time>2018-08-05T18:27:07Z</time>
      </trkpt>
      <trkpt lat="59.041791458044" lon="15.123513802504">
        <ele>103.2</ele>
        <time>2018-08-05T18:27:10Z</time>
      </trkpt>
      <trkpt lat="59.042002681924" lon="15.123223034393">
        <ele>102.6</ele>
        <time>2018-08-05T18:27:13Z</time>
      </trkpt>
      <trkpt lat="59.042232513622" lon="15.122955232688">
        <ele>101.4</ele>
        <time>2018-08-05T18:27:16Z</time>
      </trkpt>
      <trkpt lat="59.042402330916" lon="15.122830510016">
        <ele>100.8</ele>
        <time>2018-08-05T18:27:18Z</time>
      </trkpt>
      <trkpt lat="59.042576003884" lon="15.122726155361">
        <ele>100.2</ele>
        <time>2018-08-05T18:27:20Z</time>
      </trkpt>
      <trkpt lat="59.042750850318" lon="15.12261392172">
        <ele>100</ele>
        <time>2018-08-05T18:27:22Z</time>
      </trkpt>
      <trkpt lat="59.04300213968" lon="15.122436728354">
        <ele>99.4</ele>
        <time>2018-08-05T18:27:25Z</time>
      </trkpt>
      <trkpt lat="59.043254015775" lon="15.122250901631">
        <ele>98.8</ele>
        <time>2018-08-05T18:27:28Z</time>
      </trkpt>
      <trkpt lat="59.043432885521" lon="15.122152414306">
        <ele>98.4</ele>
        <time>2018-08-05T18:27:30Z</time>
      </trkpt>
      <trkpt lat="59.0436207239" lon="15.122068930582">
        <ele>97.8</ele>
        <time>2018-08-05T18:27:32Z</time>
      </trkpt>
      <trkpt lat="59.043808813736" lon="15.121971197628">
        <ele>97.4</ele>
        <time>2018-08-05T18:27:34Z</time>
      </trkpt>
      <trkpt lat="59.043984079265" lon="15.12183775778">
        <ele>96.8</ele>
        <time>2018-08-05T18:27:36Z</time>
      </trkpt>
      <trkpt lat="59.044066808618" lon="15.121760225205">
        <ele>96.6</ele>
        <time>2018-08-05T18:27:37Z</time>
      </trkpt>
      <trkpt lat="59.044271829892" lon="15.121464847049">
        <ele>96.4</ele>
        <time>2018-08-05T18:27:40Z</time>
      </trkpt>
      <trkpt lat="59.044383309162" lon="15.121058576356">
        <ele>95.4</ele>
        <time>2018-08-05T18:27:43Z</time>
      </trkpt>
      <trkpt lat="59.044411053251" lon="15.120751882635">
        <ele>94.2</ele>
        <time>2018-08-05T18:27:45Z</time>
      </trkpt>
      <trkpt lat="59.044430163983" lon="15.120281574226">
        <ele>92.4</ele>
        <time>2018-08-05T18:27:48Z</time>
      </trkpt>
      <trkpt lat="59.044439970806" lon="15.11982023445">
        <ele>91</ele>
        <time>2018-08-05T18:27:51Z</time>
      </trkpt>
      <trkpt lat="59.04446226666" lon="15.11936090633">
        <ele>89.6</ele>
        <time>2018-08-05T18:27:54Z</time>
      </trkpt>
      <trkpt lat="59.044501242495" lon="15.118937788018">
        <ele>90</ele>
        <time>2018-08-05T18:27:57Z</time>
      </trkpt>
      <trkpt lat="59.04451507263" lon="15.118813484441">
        <ele>89.8</ele>
        <time>2018-08-05T18:27:58Z</time>
      </trkpt>
      <trkpt lat="59.04452680729" lon="15.118597985792">
        <ele>89.8</ele>
        <time>2018-08-05T18:28:00Z</time>
      </trkpt>
      <trkpt lat="59.044430247802" lon="15.118295985935">
        <ele>90.2</ele>
        <time>2018-08-05T18:28:04Z</time>
      </trkpt>
      <trkpt lat="59.044381129868" lon="15.11826623019">
        <ele>90.6</ele>
        <time>2018-08-05T18:28:05Z</time>
      </trkpt>
      <trkpt lat="59.044157081681" lon="15.118154499463">
        <ele>91.2</ele>
        <time>2018-08-05T18:28:09Z</time>
      </trkpt>
      <trkpt lat="59.043981648514" lon="15.118051318274">
        <ele>91.8</ele>
        <time>2018-08-05T18:28:12Z</time>
      </trkpt>
      <trkpt lat="59.043768329159" lon="15.117930618914">
        <ele>92.4</ele>
        <time>2018-08-05T18:28:16Z</time>
      </trkpt>
      <trkpt lat="59.043558111107" lon="15.117803884586">
        <ele>93.2</ele>
        <time>2018-08-05T18:28:20Z</time>
      </trkpt>
      <trkpt lat="59.043341774268" lon="15.117641694821">
        <ele>93.6</ele>
        <time>2018-08-05T18:28:24Z</time>
      </trkpt>
      <trkpt lat="59.043149242025" lon="15.117384538129">
        <ele>94</ele>
        <time>2018-08-05T18:28:28Z</time>
      </trkpt>
      <trkpt lat="59.042987219898" lon="15.117048675396">
        <ele>94.2</ele>
        <time>2018-08-05T18:28:32Z</time>
      </trkpt>
      <trkpt lat="59.042850511109" lon="15.116701832374">
        <ele>94.4</ele>
        <time>2018-08-05T18:28:36Z</time>
      </trkpt>
      <trkpt lat="59.04272302241" lon="15.116415087575">
        <ele>94.6</ele>
        <time>2018-08-05T18:28:40Z</time>
      </trkpt>
      <trkpt lat="59.042588157639" lon="15.116139155427">
        <ele>93.6</ele>
        <time>2018-08-05T18:28:45Z</time>
      </trkpt>
      <trkpt lat="59.042529819615" lon="15.116006721407">
        <ele>93</ele>
        <time>2018-08-05T18:28:47Z</time>
      </trkpt>
      <trkpt lat="59.042473996161" lon="15.115836736475">
        <ele>92.6</ele>
        <time>2018-08-05T18:28:49Z</time>
      </trkpt>
      <trkpt lat="59.042371401705" lon="15.115441194614">
        <ele>92.4</ele>
        <time>2018-08-05T18:28:53Z</time>
      </trkpt>
      <trkpt lat="59.042304681781" lon="15.115025200917">
        <ele>92.8</ele>
        <time>2018-08-05T18:28:57Z</time>
      </trkpt>
      <trkpt lat="59.042277524425" lon="15.114608033754">
        <ele>94.8</ele>
        <time>2018-08-05T18:29:01Z</time>
      </trkpt>
      <trkpt lat="59.042285654868" lon="15.114182233234">
        <ele>95.4</ele>
        <time>2018-08-05T18:29:05Z</time>
      </trkpt>
      <trkpt lat="59.042301077564" lon="15.113726676969">
        <ele>96</ele>
        <time>2018-08-05T18:29:09Z</time>
      </trkpt>
      <trkpt lat="59.042265957403" lon="15.11337706792">
        <ele>96</ele>
        <time>2018-08-05T18:29:12Z</time>
      </trkpt>
      <trkpt lat="59.04224190135" lon="15.113268019401">
        <ele>96</ele>
        <time>2018-08-05T18:29:13Z</time>
      </trkpt>
      <trkpt lat="59.042184569154" lon="15.113069703647">
        <ele>95.4</ele>
        <time>2018-08-05T18:29:15Z</time>
      </trkpt>
      <trkpt lat="59.042044172329" lon="15.112732835086">
        <ele>94.2</ele>
        <time>2018-08-05T18:29:19Z</time>
      </trkpt>
      <trkpt lat="59.041910732481" lon="15.112485652855">
        <ele>93.4</ele>
        <time>2018-08-05T18:29:22Z</time>
      </trkpt>
      <trkpt lat="59.04173228183" lon="15.112197483133">
        <ele>93</ele>
        <time>2018-08-05T18:29:26Z</time>
      </trkpt>
      <trkpt lat="59.04164511007" lon="15.112078376334">
        <ele>92.4</ele>
        <time>2018-08-05T18:29:28Z</time>
      </trkpt>
      <trkpt lat="59.041551987161" lon="15.111980391923">
        <ele>92</ele>
        <time>2018-08-05T18:29:30Z</time>
      </trkpt>
      <trkpt lat="59.041354509597" lon="15.111842425849">
        <ele>90.8</ele>
        <time>2018-08-05T18:29:34Z</time>
      </trkpt>
      <trkpt lat="59.041145967925" lon="15.111792805001">
        <ele>89.6</ele>
        <time>2018-08-05T18:29:38Z</time>
      </trkpt>
      <trkpt lat="59.040935414597" lon="15.111766653473">
        <ele>89.4</ele>
        <time>2018-08-05T18:29:42Z</time>
      </trkpt>
      <trkpt lat="59.040727543477" lon="15.111759612677">
        <ele>89.4</ele>
        <time>2018-08-05T18:29:46Z</time>
      </trkpt>
      <trkpt lat="59.040535262691" lon="15.111743687067">
        <ele>89.4</ele>
        <time>2018-08-05T18:29:50Z</time>
      </trkpt>
      <trkpt lat="59.040444570533" lon="15.111733880244">
        <ele>89.8</ele>
        <time>2018-08-05T18:29:52Z</time>
      </trkpt>
      <trkpt lat="59.040250194272" lon="15.111735472805">
        <ele>91.6</ele>
        <time>2018-08-05T18:29:57Z</time>
      </trkpt>
      <trkpt lat="59.040071324526" lon="15.111776627934">
        <ele>94.2</ele>
        <time>2018-08-05T18:30:02Z</time>
      </trkpt>
      <trkpt lat="59.039862028483" lon="15.111847119713">
        <ele>98</ele>
        <time>2018-08-05T18:30:08Z</time>
      </trkpt>
      <trkpt lat="59.039675615027" lon="15.111838486356">
        <ele>100</ele>
        <time>2018-08-05T18:30:13Z</time>
      </trkpt>
      <trkpt lat="59.039495068901" lon="15.111827422248">
        <ele>103</ele>
        <time>2018-08-05T18:30:18Z</time>
      </trkpt>
      <trkpt lat="59.039304548314" lon="15.111811664276">
        <ele>105</ele>
        <time>2018-08-05T18:30:23Z</time>
      </trkpt>
      <trkpt lat="59.039088295294" lon="15.111749386759">
        <ele>106.2</ele>
        <time>2018-08-05T18:30:28Z</time>
      </trkpt>
      <trkpt lat="59.038955190722" lon="15.11165710204">
        <ele>106.6</ele>
        <time>2018-08-05T18:30:31Z</time>
      </trkpt>
      <trkpt lat="59.038783697048" lon="15.111434478776">
        <ele>106.8</ele>
        <time>2018-08-05T18:30:35Z</time>
      </trkpt>
      <trkpt lat="59.038592254452" lon="15.111224512181">
        <ele>107</ele>
        <time>2018-08-05T18:30:39Z</time>
      </trkpt>
      <trkpt lat="59.038374325052" lon="15.111031057929">
        <ele>106.6</ele>
        <time>2018-08-05T18:30:43Z</time>
      </trkpt>
      <trkpt lat="59.038198388971" lon="15.110884542317">
        <ele>106.2</ele>
        <time>2018-08-05T18:30:46Z</time>
      </trkpt>
      <trkpt lat="59.03802245289" lon="15.11074012218">
        <ele>107.6</ele>
        <time>2018-08-05T18:30:49Z</time>
      </trkpt>
      <trkpt lat="59.037964701599" lon="15.110710869349">
        <ele>108</ele>
        <time>2018-08-05T18:30:50Z</time>
      </trkpt>
      <trkpt lat="59.037783149645" lon="15.110693937911">
        <ele>108.8</ele>
        <time>2018-08-05T18:30:53Z</time>
      </trkpt>
      <trkpt lat="59.037605453365" lon="15.110741630922">
        <ele>108.4</ele>
        <time>2018-08-05T18:30:56Z</time>
      </trkpt>
      <trkpt lat="59.037425410153" lon="15.110816984203">
        <ele>107.6</ele>
        <time>2018-08-05T18:30:59Z</time>
      </trkpt>
      <trkpt lat="59.037242098" lon="15.110898959185">
        <ele>107.8</ele>
        <time>2018-08-05T18:31:02Z</time>
      </trkpt>
      <trkpt lat="59.03705601982" lon="15.1109479933">
        <ele>107.8</ele>
        <time>2018-08-05T18:31:05Z</time>
      </trkpt>
      <trkpt lat="59.036863487577" lon="15.110973306638">
        <ele>107.4</ele>
        <time>2018-08-05T18:31:08Z</time>
      </trkpt>
      <trkpt lat="59.036665590918" lon="15.110971797896">
        <ele>106.8</ele>
        <time>2018-08-05T18:31:11Z</time>
      </trkpt>
      <trkpt lat="59.036470795562" lon="15.110959476503">
        <ele>106.2</ele>
        <time>2018-08-05T18:31:14Z</time>
      </trkpt>
      <trkpt lat="59.03627734131" lon="15.110933241156">
        <ele>105.8</ele>
        <time>2018-08-05T18:31:17Z</time>
      </trkpt>
      <trkpt lat="59.036088078008" lon="15.110912873139">
        <ele>105.8</ele>
        <time>2018-08-05T18:31:20Z</time>
      </trkpt>
      <trkpt lat="59.035900994" lon="15.110919243383">
        <ele>105.4</ele>
        <time>2018-08-05T18:31:23Z</time>
      </trkpt>
      <trkpt lat="59.03572162134" lon="15.110965092376">
        <ele>106</ele>
        <time>2018-08-05T18:31:26Z</time>
      </trkpt>
      <trkpt lat="59.035490197081" lon="15.111068357384">
        <ele>106.4</ele>
        <time>2018-08-05T18:31:30Z</time>
      </trkpt>
      <trkpt lat="59.035260449202" lon="15.111187883278">
        <ele>106.4</ele>
        <time>2018-08-05T18:31:34Z</time>
      </trkpt>
      <trkpt lat="59.035085016035" lon="15.111263739473">
        <ele>106.4</ele>
        <time>2018-08-05T18:31:37Z</time>
      </trkpt>
      <trkpt lat="59.034850490473" lon="15.111331465225">
        <ele>107.2</ele>
        <time>2018-08-05T18:31:41Z</time>
      </trkpt>
      <trkpt lat="59.03461437235" lon="15.111357113839">
        <ele>107.4</ele>
        <time>2018-08-05T18:31:45Z</time>
      </trkpt>
      <trkpt lat="59.034429719093" lon="15.111363567902">
        <ele>107.4</ele>
        <time>2018-08-05T18:31:48Z</time>
      </trkpt>
      <trkpt lat="59.034239869058" lon="15.111348564301">
        <ele>107.2</ele>
        <time>2018-08-05T18:31:51Z</time>
      </trkpt>
      <trkpt lat="59.034053287964" lon="15.11132936975">
        <ele>107.4</ele>
        <time>2018-08-05T18:31:54Z</time>
      </trkpt>
      <trkpt lat="59.033816080194" lon="15.11128829844">
        <ele>107.8</ele>
        <time>2018-08-05T18:31:58Z</time>
      </trkpt>
      <trkpt lat="59.033587841057" lon="15.111190900762">
        <ele>108</ele>
        <time>2018-08-05T18:32:02Z</time>
      </trkpt>
      <trkpt lat="59.033416850297" lon="15.111076068732">
        <ele>108.2</ele>
        <time>2018-08-05T18:32:05Z</time>
      </trkpt>
      <trkpt lat="59.033237309999" lon="15.110943215617">
        <ele>107.6</ele>
        <time>2018-08-05T18:32:08Z</time>
      </trkpt>
      <trkpt lat="59.033048046697" lon="15.110771302848">
        <ele>106</ele>
        <time>2018-08-05T18:32:11Z</time>
      </trkpt>
      <trkpt lat="59.032859621585" lon="15.11060349721">
        <ele>103.8</ele>
        <time>2018-08-05T18:32:14Z</time>
      </trkpt>
      <trkpt lat="59.032675135966" lon="15.110458825616">
        <ele>102</ele>
        <time>2018-08-05T18:32:17Z</time>
      </trkpt>
      <trkpt lat="59.032487716682" lon="15.110355225332">
        <ele>100.4</ele>
        <time>2018-08-05T18:32:20Z</time>
      </trkpt>
      <trkpt lat="59.032354444472" lon="15.110321194818">
        <ele>101</ele>
        <time>2018-08-05T18:32:22Z</time>
      </trkpt>
      <trkpt lat="59.032163337152" lon="15.110319602257">
        <ele>100.4</ele>
        <time>2018-08-05T18:32:25Z</time>
      </trkpt>
      <trkpt lat="59.032102819834" lon="15.110326140139">
        <ele>100.2</ele>
        <time>2018-08-05T18:32:26Z</time>
      </trkpt>
      <trkpt lat="59.031920010595" lon="15.110358326635">
        <ele>99.4</ele>
        <time>2018-08-05T18:32:29Z</time>
      </trkpt>
      <trkpt lat="59.031796796665" lon="15.110415826469">
        <ele>99</ele>
        <time>2018-08-05T18:32:31Z</time>
      </trkpt>
      <trkpt lat="59.031623542792" lon="15.110519510572">
        <ele>98.6</ele>
        <time>2018-08-05T18:32:34Z</time>
      </trkpt>
      <trkpt lat="59.031456323887" lon="15.110670971505">
        <ele>97.2</ele>
        <time>2018-08-05T18:32:37Z</time>
      </trkpt>
      <trkpt lat="59.03128675805" lon="15.110849673613">
        <ele>95.6</ele>
        <time>2018-08-05T18:32:40Z</time>
      </trkpt>
      <trkpt lat="59.031119706783" lon="15.111036673802">
        <ele>96.2</ele>
        <time>2018-08-05T18:32:43Z</time>
      </trkpt>
      <trkpt lat="59.030955756819" lon="15.111180591025">
        <ele>95.6</ele>
        <time>2018-08-05T18:32:46Z</time>
      </trkpt>
      <trkpt lat="59.030736989229" lon="15.111352587613">
        <ele>97.4</ele>
        <time>2018-08-05T18:32:50Z</time>
      </trkpt>
      <trkpt lat="59.030523669874" lon="15.111484937814">
        <ele>99.6</ele>
        <time>2018-08-05T18:32:54Z</time>
      </trkpt>
      <trkpt lat="59.030303644999" lon="15.111604212251">
        <ele>100.8</ele>
        <time>2018-08-05T18:32:58Z</time>
      </trkpt>
      <trkpt lat="59.030074232396" lon="15.111735724262">
        <ele>102.6</ele>
        <time>2018-08-05T18:33:02Z</time>
      </trkpt>
      <trkpt lat="59.029900978523" lon="15.11184737117">
        <ele>104</ele>
        <time>2018-08-05T18:33:05Z</time>
      </trkpt>
      <trkpt lat="59.029731999419" lon="15.111971004195">
        <ele>105.6</ele>
        <time>2018-08-05T18:33:08Z</time>
      </trkpt>
      <trkpt lat="59.029518428607" lon="15.112137468729">
        <ele>106.4</ele>
        <time>2018-08-05T18:33:12Z</time>
      </trkpt>
      <trkpt lat="59.02933628992" lon="15.112265041247">
        <ele>105.6</ele>
        <time>2018-08-05T18:33:15Z</time>
      </trkpt>
      <trkpt lat="59.029127496791" lon="15.11239387105">
        <ele>104.6</ele>
        <time>2018-08-05T18:33:18Z</time>
      </trkpt>
      <trkpt lat="59.028904538251" lon="15.112542817413">
        <ele>103.6</ele>
        <time>2018-08-05T18:33:21Z</time>
      </trkpt>
      <trkpt lat="59.028676802028" lon="15.112702995522">
        <ele>102.4</ele>
        <time>2018-08-05T18:33:24Z</time>
      </trkpt>
      <trkpt lat="59.028446467416" lon="15.112837944112">
        <ele>102.2</ele>
        <time>2018-08-05T18:33:27Z</time>
      </trkpt>
      <trkpt lat="59.02822149722" lon="15.112956799454">
        <ele>102</ele>
        <time>2018-08-05T18:33:30Z</time>
      </trkpt>
      <trkpt lat="59.028000466517" lon="15.11306526124">
        <ele>101.6</ele>
        <time>2018-08-05T18:33:33Z</time>
      </trkpt>
      <trkpt lat="59.027785889877" lon="15.113165927859">
        <ele>101.6</ele>
        <time>2018-08-05T18:33:36Z</time>
      </trkpt>
      <trkpt lat="59.027587406485" lon="15.113286375762">
        <ele>101.8</ele>
        <time>2018-08-05T18:33:39Z</time>
      </trkpt>
      <trkpt lat="59.027402753228" lon="15.113440854179">
        <ele>101.6</ele>
        <time>2018-08-05T18:33:42Z</time>
      </trkpt>
      <trkpt lat="59.027231427192" lon="15.113641349227">
        <ele>103</ele>
        <time>2018-08-05T18:33:45Z</time>
      </trkpt>
      <trkpt lat="59.0271335266" lon="15.113809406322">
        <ele>103.4</ele>
        <time>2018-08-05T18:33:47Z</time>
      </trkpt>
      <trkpt lat="59.027002266046" lon="15.114099503881">
        <ele>104</ele>
        <time>2018-08-05T18:33:50Z</time>
      </trkpt>
      <trkpt lat="59.026876453727" lon="15.114402928661">
        <ele>104.6</ele>
        <time>2018-08-05T18:33:53Z</time>
      </trkpt>
      <trkpt lat="59.026757095471" lon="15.114706521079">
        <ele>105.2</ele>
        <time>2018-08-05T18:33:56Z</time>
      </trkpt>
      <trkpt lat="59.026635809378" lon="15.115012628067">
        <ele>105.6</ele>
        <time>2018-08-05T18:33:59Z</time>
      </trkpt>
      <trkpt lat="59.026515696751" lon="15.115269952397">
        <ele>106.8</ele>
        <time>2018-08-05T18:34:02Z</time>
      </trkpt>
      <trkpt lat="59.026409833354" lon="15.11541889876">
        <ele>107.6</ele>
        <time>2018-08-05T18:34:04Z</time>
      </trkpt>
      <trkpt lat="59.026238758775" lon="15.11557564029">
        <ele>107.6</ele>
        <time>2018-08-05T18:34:07Z</time>
      </trkpt>
      <trkpt lat="59.026038766641" lon="15.115712013803">
        <ele>108.6</ele>
        <time>2018-08-05T18:34:10Z</time>
      </trkpt>
      <trkpt lat="59.025814802273" lon="15.115805220531">
        <ele>107.4</ele>
        <time>2018-08-05T18:34:13Z</time>
      </trkpt>
      <trkpt lat="59.025573068277" lon="15.115885602952">
        <ele>106.6</ele>
        <time>2018-08-05T18:34:16Z</time>
      </trkpt>
      <trkpt lat="59.025334016489" lon="15.115893481938">
        <ele>106.8</ele>
        <time>2018-08-05T18:34:19Z</time>
      </trkpt>
      <trkpt lat="59.025257573561" lon="15.115875879948">
        <ele>106.6</ele>
        <time>2018-08-05T18:34:20Z</time>
      </trkpt>
      <trkpt lat="59.025030591709" lon="15.115787283265">
        <ele>105.8</ele>
        <time>2018-08-05T18:34:23Z</time>
      </trkpt>
      <trkpt lat="59.024808303721" lon="15.115645126241">
        <ele>104.8</ele>
        <time>2018-08-05T18:34:26Z</time>
      </trkpt>
      <trkpt lat="59.024592637434" lon="15.115486373055">
        <ele>103.6</ele>
        <time>2018-08-05T18:34:29Z</time>
      </trkpt>
      <trkpt lat="59.024387699979" lon="15.115320746711">
        <ele>102.6</ele>
        <time>2018-08-05T18:34:32Z</time>
      </trkpt>
      <trkpt lat="59.024189887139" lon="15.115155371824">
        <ele>101.4</ele>
        <time>2018-08-05T18:34:35Z</time>
      </trkpt>
      <trkpt lat="59.023995594697" lon="15.114986811815">
        <ele>100.6</ele>
        <time>2018-08-05T18:34:38Z</time>
      </trkpt>
      <trkpt lat="59.023805744662" lon="15.114779024514">
        <ele>100.8</ele>
        <time>2018-08-05T18:34:41Z</time>
      </trkpt>
      <trkpt lat="59.023627796925" lon="15.114585151167">
        <ele>100.2</ele>
        <time>2018-08-05T18:34:44Z</time>
      </trkpt>
      <trkpt lat="59.023455381242" lon="15.114404772679">
        <ele>98.8</ele>
        <time>2018-08-05T18:34:47Z</time>
      </trkpt>
      <trkpt lat="59.023282714102" lon="15.114225902933">
        <ele>97.6</ele>
        <time>2018-08-05T18:34:50Z</time>
      </trkpt>
      <trkpt lat="59.023111639523" lon="15.11403672345">
        <ele>96.4</ele>
        <time>2018-08-05T18:34:53Z</time>
      </trkpt>
      <trkpt lat="59.02293838565" lon="15.113838659153">
        <ele>95.8</ele>
        <time>2018-08-05T18:34:56Z</time>
      </trkpt>
      <trkpt lat="59.02276488032" lon="15.113649814946">
        <ele>95.2</ele>
        <time>2018-08-05T18:34:59Z</time>
      </trkpt>
      <trkpt lat="59.022584837108" lon="15.113444709853">
        <ele>94</ele>
        <time>2018-08-05T18:35:02Z</time>
      </trkpt>
      <trkpt lat="59.022396747272" lon="15.113249998316">
        <ele>95.6</ele>
        <time>2018-08-05T18:35:05Z</time>
      </trkpt>
      <trkpt lat="59.022205472314" lon="15.113102560695">
        <ele>97.2</ele>
        <time>2018-08-05T18:35:08Z</time>
      </trkpt>
      <trkpt lat="59.022012688614" lon="15.112999966239">
        <ele>98</ele>
        <time>2018-08-05T18:35:11Z</time>
      </trkpt>
      <trkpt lat="59.021819904914" lon="15.112940790025">
        <ele>98.8</ele>
        <time>2018-08-05T18:35:14Z</time>
      </trkpt>
      <trkpt lat="59.021625025739" lon="15.112911788651">
        <ele>99.6</ele>
        <time>2018-08-05T18:35:17Z</time>
      </trkpt>
      <trkpt lat="59.021558221996" lon="15.112910782823">
        <ele>99.6</ele>
        <time>2018-08-05T18:35:18Z</time>
      </trkpt>
      <trkpt lat="59.021354960921" lon="15.112945232432">
        <ele>99</ele>
        <time>2018-08-05T18:35:21Z</time>
      </trkpt>
      <trkpt lat="59.021153795321" lon="15.113029051432">
        <ele>98.4</ele>
        <time>2018-08-05T18:35:24Z</time>
      </trkpt>
      <trkpt lat="59.020954222282" lon="15.113114798269">
        <ele>97.4</ele>
        <time>2018-08-05T18:35:27Z</time>
      </trkpt>
      <trkpt lat="59.020755152157" lon="15.113182440202">
        <ele>97</ele>
        <time>2018-08-05T18:35:30Z</time>
      </trkpt>
      <trkpt lat="59.020566559407" lon="15.113244801538">
        <ele>97</ele>
        <time>2018-08-05T18:35:33Z</time>
      </trkpt>
      <trkpt lat="59.020391377697" lon="15.11330833634">
        <ele>96.8</ele>
        <time>2018-08-05T18:35:36Z</time>
      </trkpt>
      <trkpt lat="59.02019750435" lon="15.113336918619">
        <ele>96</ele>
        <time>2018-08-05T18:35:39Z</time>
      </trkpt>
      <trkpt lat="59.020000864976" lon="15.113323507579">
        <ele>95.8</ele>
        <time>2018-08-05T18:35:42Z</time>
      </trkpt>
      <trkpt lat="59.019809757656" lon="15.11331336548">
        <ele>95.4</ele>
        <time>2018-08-05T18:35:45Z</time>
      </trkpt>
      <trkpt lat="59.019624936761" lon="15.113261984433">
        <ele>93.8</ele>
        <time>2018-08-05T18:35:48Z</time>
      </trkpt>
      <trkpt lat="59.019438607124" lon="15.113165341126">
        <ele>93</ele>
        <time>2018-08-05T18:35:51Z</time>
      </trkpt>
      <trkpt lat="59.019328888053" lon="15.113055705874">
        <ele>92.2</ele>
        <time>2018-08-05T18:35:53Z</time>
      </trkpt>
      <trkpt lat="59.019193101273" lon="15.112810870575">
        <ele>93</ele>
        <time>2018-08-05T18:35:56Z</time>
      </trkpt>
      <trkpt lat="59.019159070759" lon="15.112708359938">
        <ele>92.8</ele>
        <time>2018-08-05T18:35:57Z</time>
      </trkpt>
      <trkpt lat="59.019069552067" lon="15.112372832481">
        <ele>91.8</ele>
        <time>2018-08-05T18:36:00Z</time>
      </trkpt>
      <trkpt lat="59.018969556" lon="15.112001430492">
        <ele>90.4</ele>
        <time>2018-08-05T18:36:03Z</time>
      </trkpt>
      <trkpt lat="59.018859501653" lon="15.111592393772">
        <ele>89.6</ele>
        <time>2018-08-05T18:36:06Z</time>
      </trkpt>
      <trkpt lat="59.018747100374" lon="15.111176986808">
        <ele>90.2</ele>
        <time>2018-08-05T18:36:09Z</time>
      </trkpt>
      <trkpt lat="59.018631681611" lon="15.110860737721">
        <ele>89.8</ele>
        <time>2018-08-05T18:36:12Z</time>
      </trkpt>
      <trkpt lat="59.01851609521" lon="15.110589667075">
        <ele>89.6</ele>
        <time>2018-08-05T18:36:15Z</time>
      </trkpt>
      <trkpt lat="59.018399502981" lon="15.110320691904">
        <ele>88.8</ele>
        <time>2018-08-05T18:36:18Z</time>
      </trkpt>
      <trkpt lat="59.01832750246" lon="15.110143079443">
        <ele>89</ele>
        <time>2018-08-05T18:36:20Z</time>
      </trkpt>
      <trkpt lat="59.018257848871" lon="15.109927161699">
        <ele>89.6</ele>
        <time>2018-08-05T18:36:22Z</time>
      </trkpt>
      <trkpt lat="59.018191464223" lon="15.109483004818">
        <ele>90.2</ele>
        <time>2018-08-05T18:36:26Z</time>
      </trkpt>
      <trkpt lat="59.018162211392" lon="15.109109172078">
        <ele>90.4</ele>
        <time>2018-08-05T18:36:29Z</time>
      </trkpt>
      <trkpt lat="59.018142430108" lon="15.108731483664">
        <ele>91.2</ele>
        <time>2018-08-05T18:36:32Z</time>
      </trkpt>
      <trkpt lat="59.018113931648" lon="15.108276597951">
        <ele>92.6</ele>
        <time>2018-08-05T18:36:36Z</time>
      </trkpt>
      <trkpt lat="59.01807688365" lon="15.108045173692">
        <ele>92.6</ele>
        <time>2018-08-05T18:36:38Z</time>
      </trkpt>
      <trkpt lat="59.018031034657" lon="15.107816012546">
        <ele>92.8</ele>
        <time>2018-08-05T18:36:40Z</time>
      </trkpt>
      <trkpt lat="59.017937827929" lon="15.107462883099">
        <ele>92.8</ele>
        <time>2018-08-05T18:36:43Z</time>
      </trkpt>
      <trkpt lat="59.017847471047" lon="15.107114782792">
        <ele>93</ele>
        <time>2018-08-05T18:36:46Z</time>
      </trkpt>
      <trkpt lat="59.017777566001" lon="15.106791492909">
        <ele>93.8</ele>
        <time>2018-08-05T18:36:49Z</time>
      </trkpt>
      <trkpt lat="59.017728364248" lon="15.106535509683">
        <ele>94.6</ele>
        <time>2018-08-05T18:36:52Z</time>
      </trkpt>
      <trkpt lat="59.017648820017" lon="15.10614097365">
        <ele>96.4</ele>
        <time>2018-08-05T18:36:57Z</time>
      </trkpt>
      <trkpt lat="59.017568521415" lon="15.105754148965">
        <ele>97.4</ele>
        <time>2018-08-05T18:37:01Z</time>
      </trkpt>
      <trkpt lat="59.017508507011" lon="15.105364558253">
        <ele>98.8</ele>
        <time>2018-08-05T18:37:05Z</time>
      </trkpt>
      <trkpt lat="59.01747003409" lon="15.104967591469">
        <ele>99.8</ele>
        <time>2018-08-05T18:37:09Z</time>
      </trkpt>
      <trkpt lat="59.01746500495" lon="15.104522512579">
        <ele>100.2</ele>
        <time>2018-08-05T18:37:13Z</time>
      </trkpt>
      <trkpt lat="59.017499873654" lon="15.104147590192">
        <ele>99.8</ele>
        <time>2018-08-05T18:37:16Z</time>
      </trkpt>
      <trkpt lat="59.0175362511" lon="15.103772416348">
        <ele>99.6</ele>
        <time>2018-08-05T18:37:19Z</time>
      </trkpt>
      <trkpt lat="59.017559552782" lon="15.103422388204">
        <ele>99.8</ele>
        <time>2018-08-05T18:37:22Z</time>
      </trkpt>
      <trkpt lat="59.017549829778" lon="15.10296255717">
        <ele>100</ele>
        <time>2018-08-05T18:37:26Z</time>
      </trkpt>
      <trkpt lat="59.017534993815" lon="15.102844791475">
        <ele>100.2</ele>
        <time>2018-08-05T18:37:27Z</time>
      </trkpt>
      <trkpt lat="59.017478751266" lon="15.102483866861">
        <ele>100</ele>
        <time>2018-08-05T18:37:30Z</time>
      </trkpt>
      <trkpt lat="59.017418485405" lon="15.102116320546">
        <ele>100.4</ele>
        <time>2018-08-05T18:37:33Z</time>
      </trkpt>
      <trkpt lat="59.017359560648" lon="15.101753551914">
        <ele>100.8</ele>
        <time>2018-08-05T18:37:36Z</time>
      </trkpt>
      <trkpt lat="59.017306084126" lon="15.101412827679">
        <ele>101.2</ele>
        <time>2018-08-05T18:37:39Z</time>
      </trkpt>
      <trkpt lat="59.017280938426" lon="15.101195736469">
        <ele>101.6</ele>
        <time>2018-08-05T18:37:41Z</time>
      </trkpt>
      <trkpt lat="59.017282698625" lon="15.100775970917">
        <ele>102</ele>
        <time>2018-08-05T18:37:45Z</time>
      </trkpt>
      <trkpt lat="59.017308431058" lon="15.100359558125">
        <ele>102.4</ele>
        <time>2018-08-05T18:37:49Z</time>
      </trkpt>
      <trkpt lat="59.017259480762" lon="15.099949850853">
        <ele>102.4</ele>
        <time>2018-08-05T18:37:53Z</time>
      </trkpt>
      <trkpt lat="59.01724037003" lon="15.099848765139">
        <ele>102.2</ele>
        <time>2018-08-05T18:37:54Z</time>
      </trkpt>
      <trkpt lat="59.017163424188" lon="15.099424724818">
        <ele>101.8</ele>
        <time>2018-08-05T18:37:58Z</time>
      </trkpt>
      <trkpt lat="59.017078264084" lon="15.099010323682">
        <ele>102.6</ele>
        <time>2018-08-05T18:38:02Z</time>
      </trkpt>
      <trkpt lat="59.017049178891" lon="15.098923487198">
        <ele>102.8</ele>
        <time>2018-08-05T18:38:03Z</time>
      </trkpt>
      <trkpt lat="59.016882714357" lon="15.098647303593">
        <ele>103</ele>
        <time>2018-08-05T18:38:07Z</time>
      </trkpt>
      <trkpt lat="59.016680207653" lon="15.098430128564">
        <ele>102.2</ele>
        <time>2018-08-05T18:38:11Z</time>
      </trkpt>
      <trkpt lat="59.016503349563" lon="15.098144557231">
        <ele>101.2</ele>
        <time>2018-08-05T18:38:15Z</time>
      </trkpt>
      <trkpt lat="59.01646672066" lon="15.098059732403">
        <ele>101</ele>
        <time>2018-08-05T18:38:16Z</time>
      </trkpt>
      <trkpt lat="59.016412489767" lon="15.097665531646">
        <ele>100.8</ele>
        <time>2018-08-05T18:38:20Z</time>
      </trkpt>
      <trkpt lat="59.016422967142" lon="15.097453637214">
        <ele>100.2</ele>
        <time>2018-08-05T18:38:22Z</time>
      </trkpt>
      <trkpt lat="59.016444843901" lon="15.097046025417">
        <ele>100</ele>
        <time>2018-08-05T18:38:26Z</time>
      </trkpt>
      <trkpt lat="59.016435120897" lon="15.096691303409">
        <ele>99.4</ele>
        <time>2018-08-05T18:38:29Z</time>
      </trkpt>
      <trkpt lat="59.016403269677" lon="15.096445881377">
        <ele>99</ele>
        <time>2018-08-05T18:38:31Z</time>
      </trkpt>
      <trkpt lat="59.016322719618" lon="15.096080262899">
        <ele>98.4</ele>
        <time>2018-08-05T18:38:34Z</time>
      </trkpt>
      <trkpt lat="59.016240828455" lon="15.09572730109">
        <ele>97.4</ele>
        <time>2018-08-05T18:38:37Z</time>
      </trkpt>
      <trkpt lat="59.016161200405" lon="15.095387666502">
        <ele>96.4</ele>
        <time>2018-08-05T18:38:40Z</time>
      </trkpt>
      <trkpt lat="59.016051229877" lon="15.094992543736">
        <ele>96.2</ele>
        <time>2018-08-05T18:38:44Z</time>
      </trkpt>
      <trkpt lat="59.015999262097" lon="15.094805040633">
        <ele>98.6</ele>
        <time>2018-08-05T18:38:46Z</time>
      </trkpt>
      <trkpt lat="59.015934218553" lon="15.094388879298">
        <ele>99</ele>
        <time>2018-08-05T18:38:50Z</time>
      </trkpt>
      <trkpt lat="59.015772783159" lon="15.094123089249">
        <ele>99.8</ele>
        <time>2018-08-05T18:38:54Z</time>
      </trkpt>
      <trkpt lat="59.015726179795" lon="15.094080425378">
        <ele>100</ele>
        <time>2018-08-05T18:38:55Z</time>
      </trkpt>
      <trkpt lat="59.015532390267" lon="15.093907925876">
        <ele>99.8</ele>
        <time>2018-08-05T18:38:59Z</time>
      </trkpt>
      <trkpt lat="59.0153150476" lon="15.093806504886">
        <ele>99.2</ele>
        <time>2018-08-05T18:39:03Z</time>
      </trkpt>
      <trkpt lat="59.015121174253" lon="15.093696450539">
        <ele>99</ele>
        <time>2018-08-05T18:39:07Z</time>
      </trkpt>
      <trkpt lat="59.014934425521" lon="15.093558149189">
        <ele>98.8</ele>
        <time>2018-08-05T18:39:12Z</time>
      </trkpt>
      <trkpt lat="59.014749436988" lon="15.093417584726">
        <ele>98.4</ele>
        <time>2018-08-05T18:39:16Z</time>
      </trkpt>
      <trkpt lat="59.014561263333" lon="15.093213485461">
        <ele>98.2</ele>
        <time>2018-08-05T18:39:20Z</time>
      </trkpt>
      <trkpt lat="59.014373508773" lon="15.092967476696">
        <ele>98.2</ele>
        <time>2018-08-05T18:39:24Z</time>
      </trkpt>
      <trkpt lat="59.014209642628" lon="15.092745607803">
        <ele>98.2</ele>
        <time>2018-08-05T18:39:28Z</time>
      </trkpt>
      <trkpt lat="59.01407704097" lon="15.092507478024">
        <ele>98.2</ele>
        <time>2018-08-05T18:39:32Z</time>
      </trkpt>
      <trkpt lat="59.01404435156" lon="15.092431957105">
        <ele>98.4</ele>
        <time>2018-08-05T18:39:33Z</time>
      </trkpt>
      <trkpt lat="59.01394460695" lon="15.092034906502">
        <ele>98.6</ele>
        <time>2018-08-05T18:39:37Z</time>
      </trkpt>
      <trkpt lat="59.013874366628" lon="15.091599466797">
        <ele>98.8</ele>
        <time>2018-08-05T18:39:41Z</time>
      </trkpt>
      <trkpt lat="59.013812424387" lon="15.091148855853">
        <ele>98.4</ele>
        <time>2018-08-05T18:39:45Z</time>
      </trkpt>
      <trkpt lat="59.01375266144" lon="15.090791703094">
        <ele>99.2</ele>
        <time>2018-08-05T18:39:48Z</time>
      </trkpt>
      <trkpt lat="59.013682085842" lon="15.090426755168">
        <ele>99.8</ele>
        <time>2018-08-05T18:39:51Z</time>
      </trkpt>
      <trkpt lat="59.013592315693" lon="15.090111595728">
        <ele>100.6</ele>
        <time>2018-08-05T18:39:54Z</time>
      </trkpt>
      <trkpt lat="59.013498522232" lon="15.089719574265">
        <ele>99.6</ele>
        <time>2018-08-05T18:39:58Z</time>
      </trkpt>
      <trkpt lat="59.013399196717" lon="15.089326630793">
        <ele>98.8</ele>
        <time>2018-08-05T18:40:02Z</time>
      </trkpt>
      <trkpt lat="59.013311689681" lon="15.08900585548">
        <ele>99</ele>
        <time>2018-08-05T18:40:06Z</time>
      </trkpt>
      <trkpt lat="59.013276318063" lon="15.088633531482">
        <ele>99.2</ele>
        <time>2018-08-05T18:40:10Z</time>
      </trkpt>
      <trkpt lat="59.013251004725" lon="15.088208904428">
        <ele>100.2</ele>
        <time>2018-08-05T18:40:14Z</time>
      </trkpt>
      <trkpt lat="59.013198198755" lon="15.0878055674">
        <ele>101.6</ele>
        <time>2018-08-05T18:40:18Z</time>
      </trkpt>
      <trkpt lat="59.013102393638" lon="15.087431315565">
        <ele>101.6</ele>
        <time>2018-08-05T18:40:22Z</time>
      </trkpt>
      <trkpt lat="59.013015640973" lon="15.087142391472">
        <ele>100.8</ele>
        <time>2018-08-05T18:40:25Z</time>
      </trkpt>
      <trkpt lat="59.013007929625" lon="15.086763613411">
        <ele>99.6</ele>
        <time>2018-08-05T18:40:28Z</time>
      </trkpt>
      <trkpt lat="59.013050593496" lon="15.086489106186">
        <ele>99</ele>
        <time>2018-08-05T18:40:30Z</time>
      </trkpt>
      <trkpt lat="59.013128126071" lon="15.08609230704">
        <ele>98.6</ele>
        <time>2018-08-05T18:40:33Z</time>
      </trkpt>
      <trkpt lat="59.013201719153" lon="15.085701459043">
        <ele>98</ele>
        <time>2018-08-05T18:40:36Z</time>
      </trkpt>
      <trkpt lat="59.013291489302" lon="15.085310778684">
        <ele>97.4</ele>
        <time>2018-08-05T18:40:39Z</time>
      </trkpt>
      <trkpt lat="59.013391317731" lon="15.084940969256">
        <ele>97.2</ele>
        <time>2018-08-05T18:40:42Z</time>
      </trkpt>
      <trkpt lat="59.013492068169" lon="15.084585073782">
        <ele>98</ele>
        <time>2018-08-05T18:40:45Z</time>
      </trkpt>
      <trkpt lat="59.01356825964" lon="15.084234878">
        <ele>98</ele>
        <time>2018-08-05T18:40:48Z</time>
      </trkpt>
      <trkpt lat="59.013577228273" lon="15.083878982526">
        <ele>98</ele>
        <time>2018-08-05T18:40:51Z</time>
      </trkpt>
      <trkpt lat="59.013500533888" lon="15.083564828914">
        <ele>97.4</ele>
        <time>2018-08-05T18:40:54Z</time>
      </trkpt>
      <trkpt lat="59.013461306596" lon="15.083471706005">
        <ele>97.2</ele>
        <time>2018-08-05T18:40:55Z</time>
      </trkpt>
      <trkpt lat="59.01332434635" lon="15.083210777458">
        <ele>96</ele>
        <time>2018-08-05T18:40:58Z</time>
      </trkpt>
      <trkpt lat="59.01317933948" lon="15.082957979354">
        <ele>96.8</ele>
        <time>2018-08-05T18:41:01Z</time>
      </trkpt>
      <trkpt lat="59.013039529388" lon="15.082713982245">
        <ele>96.6</ele>
        <time>2018-08-05T18:41:04Z</time>
      </trkpt>
      <trkpt lat="59.012866526972" lon="15.082407456162">
        <ele>96.8</ele>
        <time>2018-08-05T18:41:08Z</time>
      </trkpt>
      <trkpt lat="59.012699308067" lon="15.082108892884">
        <ele>97.2</ele>
        <time>2018-08-05T18:41:12Z</time>
      </trkpt>
      <trkpt lat="59.012542650356" lon="15.08182424356">
        <ele>97.6</ele>
        <time>2018-08-05T18:41:16Z</time>
      </trkpt>
      <trkpt lat="59.012385489731" lon="15.081537666399">
        <ele>97.8</ele>
        <time>2018-08-05T18:41:20Z</time>
      </trkpt>
      <trkpt lat="59.012230843676" lon="15.081259135862">
        <ele>97.8</ele>
        <time>2018-08-05T18:41:24Z</time>
      </trkpt>
      <trkpt lat="59.012083741331" lon="15.08098772994">
        <ele>97.4</ele>
        <time>2018-08-05T18:41:28Z</time>
      </trkpt>
      <trkpt lat="59.011931442208" lon="15.080708696489">
        <ele>97.2</ele>
        <time>2018-08-05T18:41:32Z</time>
      </trkpt>
      <trkpt lat="59.011777550524" lon="15.080420610586">
        <ele>97.4</ele>
        <time>2018-08-05T18:41:36Z</time>
      </trkpt>
      <trkpt lat="59.011623742659" lon="15.080132105588">
        <ele>97.6</ele>
        <time>2018-08-05T18:41:40Z</time>
      </trkpt>
      <trkpt lat="59.01146607912" lon="15.079842008029">
        <ele>97.6</ele>
        <time>2018-08-05T18:41:44Z</time>
      </trkpt>
      <trkpt lat="59.01131269035" lon="15.079543947665">
        <ele>98</ele>
        <time>2018-08-05T18:41:48Z</time>
      </trkpt>
      <trkpt lat="59.011152093146" lon="15.079249491518">
        <ele>98.4</ele>
        <time>2018-08-05T18:41:52Z</time>
      </trkpt>
      <trkpt lat="59.010988646096" lon="15.078943049254">
        <ele>98.2</ele>
        <time>2018-08-05T18:41:56Z</time>
      </trkpt>
      <trkpt lat="59.01082737834" lon="15.078637277542">
        <ele>97.4</ele>
        <time>2018-08-05T18:42:00Z</time>
      </trkpt>
      <trkpt lat="59.010665859127" lon="15.078340306825">
        <ele>97.8</ele>
        <time>2018-08-05T18:42:04Z</time>
      </trkpt>
      <trkpt lat="59.010524959388" lon="15.078065380505">
        <ele>98.6</ele>
        <time>2018-08-05T18:42:08Z</time>
      </trkpt>
      <trkpt lat="59.010370313333" lon="15.077788861624">
        <ele>98.6</ele>
        <time>2018-08-05T18:42:12Z</time>
      </trkpt>
      <trkpt lat="59.010209464672" lon="15.077487699957">
        <ele>98.6</ele>
        <time>2018-08-05T18:42:16Z</time>
      </trkpt>
      <trkpt lat="59.010057752282" lon="15.077203805004">
        <ele>99</ele>
        <time>2018-08-05T18:42:20Z</time>
      </trkpt>
      <trkpt lat="59.009905201702" lon="15.076927621399">
        <ele>99.4</ele>
        <time>2018-08-05T18:42:24Z</time>
      </trkpt>
      <trkpt lat="59.00975952428" lon="15.076660741703">
        <ele>99.6</ele>
        <time>2018-08-05T18:42:28Z</time>
      </trkpt>
      <trkpt lat="59.009614768867" lon="15.076385480107">
        <ele>100</ele>
        <time>2018-08-05T18:42:32Z</time>
      </trkpt>
      <trkpt lat="59.00946867235" lon="15.076110553787">
        <ele>100.2</ele>
        <time>2018-08-05T18:42:36Z</time>
      </trkpt>
      <trkpt lat="59.009323916937" lon="15.075832274707">
        <ele>100</ele>
        <time>2018-08-05T18:42:40Z</time>
      </trkpt>
      <trkpt lat="59.009177317506" lon="15.075556091102">
        <ele>99.8</ele>
        <time>2018-08-05T18:42:44Z</time>
      </trkpt>
      <trkpt lat="59.009025186021" lon="15.075280075135">
        <ele>99.8</ele>
        <time>2018-08-05T18:42:48Z</time>
      </trkpt>
      <trkpt lat="59.008884118644" lon="15.075017218751">
        <ele>99.8</ele>
        <time>2018-08-05T18:42:52Z</time>
      </trkpt>
      <trkpt lat="59.008748834778" lon="15.074762073715">
        <ele>100.6</ele>
        <time>2018-08-05T18:42:56Z</time>
      </trkpt>
      <trkpt lat="59.008613299455" lon="15.074520004443">
        <ele>101</ele>
        <time>2018-08-05T18:43:00Z</time>
      </trkpt>
      <trkpt lat="59.008451025871" lon="15.074263266846">
        <ele>100</ele>
        <time>2018-08-05T18:43:04Z</time>
      </trkpt>
      <trkpt lat="59.008278526369" lon="15.073994459313">
        <ele>99.6</ele>
        <time>2018-08-05T18:43:08Z</time>
      </trkpt>
      <trkpt lat="59.008102674107" lon="15.073717772794">
        <ele>99.6</ele>
        <time>2018-08-05T18:43:12Z</time>
      </trkpt>
      <trkpt lat="59.007918691402" lon="15.073454497315">
        <ele>99.6</ele>
        <time>2018-08-05T18:43:16Z</time>
      </trkpt>
      <trkpt lat="59.007740156932" lon="15.073206141618">
        <ele>99.8</ele>
        <time>2018-08-05T18:43:20Z</time>
      </trkpt>
      <trkpt lat="59.007563047385" lon="15.072976896653">
        <ele>99.6</ele>
        <time>2018-08-05T18:43:24Z</time>
      </trkpt>
      <trkpt lat="59.007376717748" lon="15.072747400231">
        <ele>99.4</ele>
        <time>2018-08-05T18:43:28Z</time>
      </trkpt>
      <trkpt lat="59.007184269324" lon="15.07251362904">
        <ele>99.4</ele>
        <time>2018-08-05T18:43:32Z</time>
      </trkpt>
      <trkpt lat="59.006994586927" lon="15.072289580853">
        <ele>98.6</ele>
        <time>2018-08-05T18:43:36Z</time>
      </trkpt>
      <trkpt lat="59.006801132675" lon="15.072070394168">
        <ele>98</ele>
        <time>2018-08-05T18:43:40Z</time>
      </trkpt>
      <trkpt lat="59.006602146369" lon="15.071845843067">
        <ele>96.8</ele>
        <time>2018-08-05T18:43:44Z</time>
      </trkpt>
      <trkpt lat="59.006442638812" lon="15.071667140959">
        <ele>96.2</ele>
        <time>2018-08-05T18:43:47Z</time>
      </trkpt>
      <trkpt lat="59.006280700504" lon="15.071485086091">
        <ele>95.4</ele>
        <time>2018-08-05T18:43:50Z</time>
      </trkpt>
      <trkpt lat="59.006116834359" lon="15.071304372327">
        <ele>95.2</ele>
        <time>2018-08-05T18:43:53Z</time>
      </trkpt>
      <trkpt lat="59.005956991526" lon="15.071125670219">
        <ele>95.2</ele>
        <time>2018-08-05T18:43:56Z</time>
      </trkpt>
      <trkpt lat="59.005799244168" lon="15.070948309215">
        <ele>95.4</ele>
        <time>2018-08-05T18:43:59Z</time>
      </trkpt>
      <trkpt lat="59.005641832086" lon="15.070774217152">
        <ele>95.4</ele>
        <time>2018-08-05T18:44:02Z</time>
      </trkpt>
      <trkpt lat="59.005436056441" lon="15.070551090974">
        <ele>95</ele>
        <time>2018-08-05T18:44:06Z</time>
      </trkpt>
      <trkpt lat="59.005241093447" lon="15.070335005592">
        <ele>95.4</ele>
        <time>2018-08-05T18:44:10Z</time>
      </trkpt>
      <trkpt lat="59.005053506525" lon="15.070123614074">
        <ele>95.4</ele>
        <time>2018-08-05T18:44:14Z</time>
      </trkpt>
      <trkpt lat="59.004852005649" lon="15.069900906991">
        <ele>95.2</ele>
        <time>2018-08-05T18:44:18Z</time>
      </trkpt>
      <trkpt lat="59.00464656528" lon="15.069669147456">
        <ele>94.8</ele>
        <time>2018-08-05T18:44:22Z</time>
      </trkpt>
      <trkpt lat="59.004445567318" lon="15.06944753002">
        <ele>94.4</ele>
        <time>2018-08-05T18:44:26Z</time>
      </trkpt>
      <trkpt lat="59.004251191057" lon="15.069225828765">
        <ele>93.6</ele>
        <time>2018-08-05T18:44:30Z</time>
      </trkpt>
      <trkpt lat="59.004058658814" lon="15.069007061175">
        <ele>93.8</ele>
        <time>2018-08-05T18:44:34Z</time>
      </trkpt>
      <trkpt lat="59.003869646969" lon="15.068794915286">
        <ele>93.6</ele>
        <time>2018-08-05T18:44:38Z</time>
      </trkpt>
      <trkpt lat="59.003672839957" lon="15.068575141868">
        <ele>93.6</ele>
        <time>2018-08-05T18:44:42Z</time>
      </trkpt>
      <trkpt lat="59.003470752348" lon="15.068344891075">
        <ele>94.4</ele>
        <time>2018-08-05T18:44:46Z</time>
      </trkpt>
      <trkpt lat="59.003270592576" lon="15.068121429621">
        <ele>94.8</ele>
        <time>2018-08-05T18:44:50Z</time>
      </trkpt>
      <trkpt lat="59.003078563247" lon="15.067904170773">
        <ele>95.4</ele>
        <time>2018-08-05T18:44:54Z</time>
      </trkpt>
      <trkpt lat="59.002890054316" lon="15.067690264685">
        <ele>95.8</ele>
        <time>2018-08-05T18:44:58Z</time>
      </trkpt>
      <trkpt lat="59.002704227593" lon="15.067479040805">
        <ele>96.2</ele>
        <time>2018-08-05T18:45:02Z</time>
      </trkpt>
      <trkpt lat="59.002507839676" lon="15.06725650136">
        <ele>96.2</ele>
        <time>2018-08-05T18:45:06Z</time>
      </trkpt>
      <trkpt lat="59.002309607741" lon="15.067038991055">
        <ele>95.8</ele>
        <time>2018-08-05T18:45:10Z</time>
      </trkpt>
      <trkpt lat="59.0021135551" lon="15.066820558741">
        <ele>95.4</ele>
        <time>2018-08-05T18:45:14Z</time>
      </trkpt>
      <trkpt lat="59.001916999545" lon="15.066599192762">
        <ele>96.6</ele>
        <time>2018-08-05T18:45:18Z</time>
      </trkpt>
      <trkpt lat="59.00172128218" lon="15.066382353009">
        <ele>97.6</ele>
        <time>2018-08-05T18:45:22Z</time>
      </trkpt>
      <trkpt lat="59.001526067729" lon="15.066160651754">
        <ele>98</ele>
        <time>2018-08-05T18:45:26Z</time>
      </trkpt>
      <trkpt lat="59.001330769459" lon="15.065944063458">
        <ele>97.4</ele>
        <time>2018-08-05T18:45:30Z</time>
      </trkpt>
      <trkpt lat="59.001136644655" lon="15.065724625316">
        <ele>97</ele>
        <time>2018-08-05T18:45:34Z</time>
      </trkpt>
      <trkpt lat="59.000940005281" lon="15.065505187174">
        <ele>96</ele>
        <time>2018-08-05T18:45:38Z</time>
      </trkpt>
      <trkpt lat="59.000745712839" lon="15.065288179783">
        <ele>95.6</ele>
        <time>2018-08-05T18:45:42Z</time>
      </trkpt>
      <trkpt lat="59.000558545012" lon="15.065071926763">
        <ele>94</ele>
        <time>2018-08-05T18:45:46Z</time>
      </trkpt>
      <trkpt lat="59.000374227031" lon="15.064859110322">
        <ele>91.8</ele>
        <time>2018-08-05T18:45:50Z</time>
      </trkpt>
      <trkpt lat="59.000175156906" lon="15.064628272796">
        <ele>90</ele>
        <time>2018-08-05T18:45:54Z</time>
      </trkpt>
      <trkpt lat="59.000004752879" lon="15.064425011721">
        <ele>92.8</ele>
        <time>2018-08-05T18:45:57Z</time>
      </trkpt>
      <trkpt lat="58.999849520091" lon="15.064226695967">
        <ele>93.4</ele>
        <time>2018-08-05T18:46:00Z</time>
      </trkpt>
      <trkpt lat="58.999700573728" lon="15.064029637498">
        <ele>93.8</ele>
        <time>2018-08-05T18:46:03Z</time>
      </trkpt>
      <trkpt lat="58.999515501376" lon="15.06378388019">
        <ele>93.8</ele>
        <time>2018-08-05T18:46:07Z</time>
      </trkpt>
      <trkpt lat="58.999391700713" lon="15.063601657684">
        <ele>93.8</ele>
        <time>2018-08-05T18:46:10Z</time>
      </trkpt>
      <trkpt lat="58.999352138145" lon="15.063240900708">
        <ele>95.6</ele>
        <time>2018-08-05T18:46:15Z</time>
      </trkpt>
      <trkpt lat="58.999495803911" lon="15.062990365717">
        <ele>97.4</ele>
        <time>2018-08-05T18:46:20Z</time>
      </trkpt>
      <trkpt lat="58.999529499149" lon="15.062929429304">
        <ele>97.8</ele>
        <time>2018-08-05T18:46:21Z</time>
      </trkpt>
      <trkpt lat="58.999661933169" lon="15.062690712792">
        <ele>98.8</ele>
        <time>2018-08-05T18:46:25Z</time>
      </trkpt>
      <trkpt lat="58.999809706066" lon="15.062423078725">
        <ele>99.6</ele>
        <time>2018-08-05T18:46:30Z</time>
      </trkpt>
      <trkpt lat="58.999939206421" lon="15.062180590358">
        <ele>100.4</ele>
        <time>2018-08-05T18:46:34Z</time>
      </trkpt>
      <trkpt lat="59.000004920517" lon="15.062067350889">
        <ele>100.4</ele>
        <time>2018-08-05T18:46:36Z</time>
      </trkpt>
      <trkpt lat="59.000148167188" lon="15.06205972336">
        <ele>100.6</ele>
        <time>2018-08-05T18:46:40Z</time>
      </trkpt>
      <trkpt lat="59.000349332788" lon="15.062163156006">
        <ele>101.2</ele>
        <time>2018-08-05T18:46:44Z</time>
      </trkpt>
      <trkpt lat="59.000513953304" lon="15.062229708292">
        <ele>101.2</ele>
        <time>2018-08-05T18:46:47Z</time>
      </trkpt>
      <trkpt lat="59.000746718667" lon="15.062330877825">
        <ele>101.4</ele>
        <time>2018-08-05T18:46:51Z</time>
      </trkpt>
      <trkpt lat="59.000963893696" lon="15.062420061241">
        <ele>101.8</ele>
        <time>2018-08-05T18:46:55Z</time>
      </trkpt>
      <trkpt lat="59.001080150649" lon="15.062162066359">
        <ele>102.6</ele>
        <time>2018-08-05T18:47:00Z</time>
      </trkpt>
      <trkpt lat="59.001074534776" lon="15.062087802725">
        <ele>102.8</ele>
        <time>2018-08-05T18:47:01Z</time>
      </trkpt>
      <trkpt lat="59.001035223665" lon="15.061679520376">
        <ele>104.2</ele>
        <time>2018-08-05T18:47:06Z</time>
      </trkpt>
      <trkpt lat="59.000997756572" lon="15.06132965987">
        <ele>105.4</ele>
        <time>2018-08-05T18:47:10Z</time>
      </trkpt>
      <trkpt lat="59.000973029967" lon="15.060977955346">
        <ele>106.2</ele>
        <time>2018-08-05T18:47:14Z</time>
      </trkpt>
      <trkpt lat="59.00097529308" lon="15.06066832796">
        <ele>106.8</ele>
        <time>2018-08-05T18:47:18Z</time>
      </trkpt>
      <trkpt lat="59.001169920798" lon="15.060590711566">
        <ele>107.6</ele>
        <time>2018-08-05T18:47:23Z</time>
      </trkpt>
      <trkpt lat="59.001369829113" lon="15.060608565013">
        <ele>108.4</ele>
        <time>2018-08-05T18:47:27Z</time>
      </trkpt>
      <trkpt lat="59.001566468487" lon="15.060644439545">
        <ele>109</ele>
        <time>2018-08-05T18:47:31Z</time>
      </trkpt>
      <trkpt lat="59.001760760929" lon="15.06067754805">
        <ele>109.2</ele>
        <time>2018-08-05T18:47:35Z</time>
      </trkpt>
      <trkpt lat="59.001947342023" lon="15.06071610479">
        <ele>109</ele>
        <time>2018-08-05T18:47:39Z</time>
      </trkpt>
      <trkpt lat="59.002077261473" lon="15.060744351793">
        <ele>109.2</ele>
        <time>2018-08-05T18:47:42Z</time>
      </trkpt>
      <trkpt lat="59.002283875308" lon="15.060710824193">
        <ele>109.2</ele>
        <time>2018-08-05T18:47:47Z</time>
      </trkpt>
      <trkpt lat="59.002463331787" lon="15.060724319052">
        <ele>109.2</ele>
        <time>2018-08-05T18:47:52Z</time>
      </trkpt>
    </trkseg>
  </trk>
</gpx>